[[{"header":{"parameterUnit":"m.s-1","parameterCategory":1,"la1":31.0,"la2":29.5877,"lo1":-88.7671,"lo2":-86.6584,"dy":0.0162,"dx":0.0185,"nx":115,"ny":88,"refTime":"2023-10-15T00:00:00:Z","depth":0,"parameterNumber":2,"parameterNumberName":"U-component_of_WINDS"},"data":[0.0,0.0,0.0,0.0,0.0,0.0,0.0,0.0,0.0,0.0,0.0,0.0,0.0,0.0,0.0,0.0,0.0,0.0,0.0,0.0,0.0,0.0,0.0,0.0,0.0,0.0,0.0,0.0,0.0,0.0,0.0,0.0,0.0,0.0,0.0,0.0,0.0,0.0,0.0,0.0,0.0,0.0,0.0,0.0,0.0,0.0,0.0,0.0,0.0,0.0,0.0,0.0,0.0,0.0,0.0,0.0,0.0,0.0,0.0,0.0,0.0,0.0,0.0,0.0,0.0,0.0,0.0,0.0,0.0,0.0,0.0,0.0,0.0,0.0,0.0,0.0,0.0,0.0,0.0,0.0,0.0,0.0,0.0,0.0,0.0,0.0,0.0,0.0,0.0,0.0,0.0,0.0,0.0,0.0,0.0,0.0,0.0,0.0,0.0,0.0,0.0,0.0,0.0,0.0,0.0,0.0,0.0,0.0,0.0,0.0,0.0,0.0,0.0,0.0,0.0,0.0,0.0,0.0,0.0,0.0,0.0,0.0,0.0,0.0,0.0,0.0,0.0,0.0,0.0,0.0,0.0,0.0,0.0,0.0,0.0,0.0,0.0,0.0,0.0,0.0,0.0,0.0,0.0,0.0,0.0,0.0,0.0,0.0,0.0,0.0,0.0,0.0,0.0,0.0,0.0,0.0,0.0,0.0,0.0,0.0,0.0,0.0,0.0,0.0,0.0,0.0,0.0,0.0,0.0,0.0,0.0,0.0,0.0,0.0,0.0,0.0,0.0,0.0,0.0,0.0,0.0,0.0,0.0,0.0,0.0,0.0,0.0,0.0,0.0,0.0,0.0,0.0,0.0,0.0,0.0,0.0,0.0,0.0,0.0,0.0,0.0,0.0,0.0,0.0,0.0,0.0,0.0,0.0,0.0,0.0,0.0,0.0,0.0,0.0,0.0,0.0,0.0,0.0,0.0,0.0,0.0,0.0,0.0,0.0,0.0,0.0,0.0,0.0,0.0,0.0,0.0,0.0,0.0,0.0,0.0,0.0,0.0,0.0,0.0,0.0,0.0,0.0,0.0,0.0,0.0,0.0,0.0,0.0,0.0,0.0,0.0,0.0,0.0,0.0,0.0,0.0,0.0,0.0,0.0,0.0,0.0,0.0,0.0,0.0,0.0,0.0,0.0,0.0,0.0,0.0,0.0,0.0,0.0,0.0,0.0,0.0,0.0,0.0,0.0,0.0,0.0,0.0,0.0,0.0,0.0,0.0,0.0,0.0,0.0,0.0,0.0,0.0,0.0,0.0,0.0,0.0,0.0,0.0,0.0,0.0,0.0,0.0,0.0,0.0,0.0,0.0,0.0,0.0,0.0,0.0,0.0,0.0,0.0,0.0,0.0,0.0,0.0,0.0,0.0,0.0,0.0,0.0,0.0,0.0,0.0,0.0,0.0,0.0,0.0,0.0,0.0,0.0,0.0,0.0,0.0,0.0,0.0,0.0,0.0,0.0,0.0,0.0,0.0,0.0,0.0,0.0,0.0,0.0,0.0,0.0,0.0,0.0,0.0,0.0,0.0,0.0,0.0,0.0,0.0,0.0,0.0,0.0,0.0,0.0,0.0,0.0,0.0,0.0,0.0,0.0,0.0,0.0,0.0,0.0,0.0,0.0,0.0,0.0,0.0,0.0,0.0,0.0,0.0,0.0,0.0,0.0,0.0,0.0,0.0,0.0,0.0,0.0,0.0,0.0,0.0,0.0,0.0,0.0,0.0,0.0,0.0,0.0,0.0,0.0,0.0,0.0,0.0,0.0,0.0,0.0,0.0,0.0,0.0,0.0,0.0,0.0,0.0,0.0,0.0,0.0,0.0,0.0,0.0,0.0,0.0,0.0,0.0,0.0,0.0,0.0,0.0,0.0,0.0,0.0,0.0,0.0,0.0,0.0,0.0,0.0,0.0,0.0,0.0,0.0,0.0,0.0,0.0,0.0,0.0,0.0,0.0,0.0,0.0,0.0,0.0,0.0,0.0,0.0,0.0,0.0,0.0,0.0,0.0,0.0,0.0,0.0,0.0,0.0,0.0,0.0,0.0,0.0,0.0,0.0,0.0,0.0,0.0,0.0,0.0,0.0,0.0,0.0,0.0,0.0,0.0,0.0,0.0,0.0,0.0,0.0,0.0,0.0,0.0,0.0,0.0,0.0,0.0,0.0,0.0,0.0,0.0,0.0,0.0,0.0,0.0,0.0,0.0,0.0,0.0,0.0,0.0,0.0,0.0,0.0,0.0,0.0,0.0,0.0,0.0,0.0,0.0,0.0,0.0,0.0,0.0,0.0,0.0,0.0,0.0,0.0,0.0,0.0,0.0,0.0,0.0,0.0,0.0,0.0,0.0,0.0,0.0,0.0,0.0,0.0,0.0,0.0,0.0,0.0,0.0,0.0,0.0,0.0,0.0,0.0,0.0,0.0,0.0,0.0,0.0,0.0,0.0,0.0,0.0,0.0,0.0,0.0,0.0,0.0,0.0,0.0,0.0,0.0,0.0,0.0,0.0,0.0,0.0,0.0,0.0,0.0,0.0,0.0,0.0,0.0,0.0,0.0,0.0,0.0,0.0,0.0,0.0,0.0,0.0,0.0,0.0,0.0,0.0,0.0,0.0,0.0,0.0,0.0,0.0,0.0,0.0,0.0,0.0,0.0,0.0,0.0,0.0,0.0,0.0,0.0,0.0,0.0,0.0,0.0,0.0,0.0,0.0,0.0,0.0,0.0,0.0,0.0,0.0,0.0,0.0,0.0,0.0,0.0,0.0,0.0,0.0,0.0,0.0,0.0,0.0,0.0,0.0,0.0,0.0,0.0,0.0,0.0,0.0,0.0,0.0,0.0,0.0,0.0,0.0,0.0,0.0,0.0,0.0,0.0,0.0,0.0,0.0,0.0,0.0,0.0,0.0,0.0,0.0,0.0,0.0,0.0,0.0,0.0,0.0,0.0,0.0,0.0,0.0,0.0,0.0,0.0,0.0,0.0,0.0,0.0,0.0,0.0,0.0,0.0,0.0,0.0,0.0,0.0,0.0,0.0,0.0,0.0,0.0,0.0,0.0,0.0,0.0,0.0,0.0,0.0,0.0,0.0,0.0,0.0,0.0,0.0,0.0,0.0,0.0,0.0,0.0,0.0,0.0,0.0,0.0,0.0,0.0,0.0,0.0,0.0,0.0,0.0,0.0,0.0,0.0,0.0,0.0,0.0,0.0,0.0,0.0,0.0,0.0,0.0,0.0,0.0,0.0,0.0,0.0,0.0,0.0,0.0,0.0,0.0,0.0,0.0,0.0,0.0,0.0,0.0,0.0,0.0,0.0,0.0,0.0,0.0,0.0,0.0,0.0,0.0,0.0,0.0,0.0,0.0,0.0,0.0,0.0,0.0,0.0,0.0,0.0,0.0,0.0,0.0,0.0,0.0,0.0,0.0,0.0,0.0,0.0,0.0,0.0,0.0,0.0,0.0,0.0,0.0,0.0,0.0,0.0,0.0,0.0,0.0,0.0,0.0,0.0,0.0,0.0,0.0,0.0,0.0,0.0,0.0,0.0,0.0,0.0,0.0,0.0,0.0,0.0,0.0,0.0,0.0,0.0,0.0,0.0,0.0,0.0,0.0,0.0,0.0,0.0,0.0,0.0,0.0,0.0,0.0,0.0,0.0,0.0,0.0,0.0,0.0,0.0,0.0,0.0,0.0,0.0,0.0,0.0,0.0,0.0,0.0,0.0,0.0,0.0,0.0,0.0,0.0,0.0,0.0,0.0,0.0,0.0,0.0,0.0,0.0,0.0,0.0,0.0,0.0,0.0,0.0,0.0,0.0,0.0,0.0,0.0,0.0,0.0,0.0,0.0,0.0,0.0,0.0,0.0,0.0,0.0,0.0,0.0,0.0,0.0,0.0,0.0,0.0,0.0,0.0,0.0,0.0,0.0,0.0,0.0,0.0,0.0,0.0,0.0,0.0,0.0,0.0,0.0,0.0,0.0,0.0,0.0,0.0,0.0,0.0,0.0,0.0,0.0,0.0,0.0,0.0,0.0,0.0,0.0,0.0,0.0,0.0,0.0,0.0,0.0,0.0,0.0,0.0,0.0,0.0,0.0,0.0,0.0,0.0,0.0,0.0,0.0,0.0,0.0,0.0,0.0,0.0,0.0,0.0,0.0,0.0,0.0,0.0,0.0,0.0,0.0,0.0,0.0,0.0,0.0,0.0,0.0,0.0,0.0,0.0,0.0,0.0,0.0,0.0,-1.91,0.0,0.0,0.0,0.0,0.0,0.0,0.0,0.0,0.0,0.0,0.0,0.0,0.0,0.0,0.0,0.0,0.0,0.0,0.0,0.0,0.0,0.0,0.0,0.0,0.0,0.0,0.0,0.0,0.0,0.0,0.0,0.0,0.0,0.0,0.0,0.0,0.0,0.0,0.0,0.0,0.0,0.0,0.0,0.0,0.0,0.0,0.0,0.0,0.0,0.0,0.0,0.0,0.0,0.0,0.0,0.0,0.0,0.0,0.0,0.0,0.0,0.0,0.0,0.0,0.0,0.0,0.0,0.0,0.0,0.0,0.0,0.0,0.0,0.0,0.0,0.0,0.0,0.0,0.0,0.0,0.0,0.0,0.0,0.0,0.0,0.0,0.0,0.0,0.0,0.0,0.0,0.0,0.0,0.0,0.0,0.0,0.0,0.0,0.0,0.0,0.0,0.0,0.0,0.0,0.0,0.0,0.0,0.0,0.0,0.0,-2.06,-2.0603,-2.0213,-1.9999,-1.998,0.0,0.0,0.0,0.0,0.0,0.0,0.0,0.0,0.0,0.0,0.0,0.0,0.0,0.0,0.0,0.0,0.0,0.0,0.0,0.0,0.0,0.0,0.0,0.0,0.0,0.0,0.0,0.0,0.0,0.0,0.0,0.0,0.0,0.0,0.0,0.0,0.0,0.0,0.0,0.0,0.0,0.0,0.0,0.0,0.0,0.0,0.0,0.0,0.0,0.0,0.0,0.0,0.0,0.0,0.0,0.0,0.0,0.0,0.0,0.0,0.0,0.0,0.0,0.0,0.0,0.0,0.0,0.0,0.0,0.0,0.0,0.0,0.0,0.0,0.0,0.0,0.0,0.0,0.0,0.0,0.0,0.0,0.0,0.0,0.0,0.0,0.0,0.0,0.0,0.0,0.0,0.0,0.0,0.0,0.0,0.0,0.0,0.0,0.0,0.0,0.0,0.0,0.0,0.0,0.0,0.0,0.0,0.0,0.0,0.0,0.0,0.0,-2.0605,-2.0605,-2.0586,0.0,0.0,0.0,0.0,0.0,0.0,0.0,0.0,0.0,0.0,0.0,0.0,0.0,0.0,0.0,0.0,0.0,0.0,0.0,0.0,0.0,0.0,0.0,0.0,0.0,0.0,0.0,0.0,0.0,0.0,0.0,0.0,0.0,0.0,0.0,0.0,0.0,0.0,0.0,0.0,0.0,0.0,0.0,0.0,0.0,0.0,0.0,0.0,0.0,0.0,0.0,0.0,0.0,0.0,0.0,0.0,0.0,0.0,0.0,0.0,0.0,0.0,0.0,0.0,0.0,0.0,0.0,0.0,0.0,0.0,0.0,0.0,0.0,0.0,0.0,0.0,0.0,0.0,0.0,0.0,0.0,0.0,0.0,0.0,0.0,0.0,0.0,0.0,0.0,0.0,0.0,0.0,0.0,0.0,0.0,0.0,0.0,0.0,0.0,0.0,0.0,0.0,0.0,0.0,0.0,0.0,0.0,0.0,0.0,0.0,-2.0605,-2.0605,-2.0605,0.0,-2.0586,0.0,0.0,0.0,0.0,0.0,0.0,0.0,0.0,0.0,0.0,0.0,0.0,0.0,0.0,0.0,0.0,0.0,0.0,0.0,0.0,0.0,0.0,0.0,0.0,0.0,0.0,0.0,0.0,0.0,0.0,0.0,0.0,0.0,0.0,0.0,0.0,0.0,0.0,0.0,0.0,0.0,0.0,0.0,0.0,0.0,0.0,0.0,0.0,0.0,0.0,0.0,0.0,0.0,0.0,0.0,0.0,0.0,0.0,0.0,0.0,0.0,0.0,0.0,0.0,0.0,0.0,0.0,0.0,0.0,0.0,0.0,0.0,0.0,0.0,0.0,0.0,0.0,0.0,0.0,0.0,0.0,0.0,0.0,0.0,0.0,0.0,0.0,0.0,0.0,0.0,0.0,0.0,0.0,0.0,0.0,0.0,0.0,0.0,0.0,0.0,0.0,0.0,0.0,0.0,0.0,0.0,0.0,0.0,0.0,0.0,-2.0605,-2.0605,-2.0605,-2.0605,0.0,0.0,0.0,0.0,0.0,0.0,0.0,0.0,0.0,0.0,0.0,0.0,0.0,0.0,0.0,0.0,0.0,0.0,0.0,0.0,0.0,0.0,0.0,0.0,0.0,0.0,0.0,0.0,0.0,0.0,0.0,0.0,0.0,0.0,0.0,0.0,0.0,0.0,0.0,0.0,0.0,0.0,0.0,0.0,0.0,0.0,0.0,0.0,0.0,0.0,0.0,0.0,0.0,0.0,0.0,0.0,0.0,0.0,0.0,0.0,0.0,0.0,0.0,0.0,0.0,0.0,0.0,0.0,0.0,0.0,0.0,0.0,0.0,0.0,0.0,0.0,0.0,0.0,0.0,0.0,0.0,0.0,0.0,0.0,0.0,0.0,0.0,0.0,0.0,0.0,0.0,0.0,0.0,0.0,0.0,0.0,0.0,0.0,0.0,0.0,0.0,0.0,0.0,0.0,0.0,0.0,0.0,0.0,0.0,0.0,-2.0957,-2.084,-2.0625,-2.0605,-2.0605,-2.0605,0.0,0.0,0.0,0.0,0.0,0.0,0.0,0.0,0.0,0.0,0.0,0.0,0.0,0.0,0.0,0.0,0.0,0.0,0.0,0.0,0.0,0.0,0.0,0.0,0.0,0.0,0.0,0.0,0.0,0.0,0.0,0.0,0.0,0.0,0.0,0.0,0.0,0.0,0.0,0.0,0.0,0.0,0.0,0.0,0.0,0.0,0.0,0.0,0.0,0.0,0.0,0.0,0.0,0.0,0.0,0.0,0.0,0.0,0.0,0.0,0.0,0.0,0.0,0.0,0.0,0.0,0.0,0.0,0.0,0.0,0.0,0.0,0.0,0.0,0.0,0.0,0.0,0.0,0.0,0.0,0.0,0.0,0.0,0.0,0.0,0.0,0.0,0.0,0.0,0.0,0.0,0.0,0.0,0.0,0.0,0.0,0.0,0.0,0.0,0.0,0.0,0.0,0.0,0.0,0.0,0.0,0.0,0.0,-2.1875,-2.1836,-2.1445,-2.0664,-2.0605,-2.0605,0.0,0.0,0.0,0.0,0.0,0.0,0.0,0.0,0.0,0.0,0.0,0.0,0.0,0.0,0.0,0.0,0.0,0.0,0.0,0.0,0.0,0.0,0.0,0.0,0.0,0.0,0.0,0.0,0.0,0.0,0.0,0.0,0.0,0.0,0.0,0.0,0.0,0.0,0.0,0.0,0.0,0.0,0.0,0.0,0.0,0.0,0.0,0.0,0.0,0.0,0.0,0.0,0.0,0.0,0.0,0.0,0.0,0.0,0.0,0.0,0.0,0.0,0.0,0.0,0.0,0.0,0.0,0.0,0.0,0.0,0.0,0.0,0.0,0.0,0.0,0.0,0.0,0.0,0.0,0.0,0.0,0.0,0.0,0.0,0.0,0.0,0.0,0.0,0.0,0.0,0.0,0.0,0.0,0.0,0.0,0.0,0.0,0.0,0.0,0.0,0.0,0.0,0.0,0.0,0.0,0.0,0.0,0.0,0.0,-2.2676,-2.2168,-2.1758,-2.1445,-2.0898,-2.0605,0.0,0.0,0.0,0.0,0.0,0.0,0.0,0.0,0.0,0.0,0.0,0.0,0.0,0.0,0.0,0.0,0.0,0.0,0.0,0.0,0.0,0.0,0.0,0.0,0.0,0.0,0.0,0.0,0.0,0.0,0.0,0.0,0.0,0.0,0.0,0.0,0.0,0.0,0.0,0.0,0.0,0.0,0.0,0.0,0.0,0.0,0.0,0.0,0.0,0.0,0.0,0.0,0.0,0.0,0.0,0.0,0.0,0.0,0.0,0.0,0.0,0.0,0.0,0.0,0.0,0.0,0.0,0.0,0.0,0.0,0.0,0.0,0.0,0.0,0.0,0.0,0.0,0.0,0.0,0.0,0.0,0.0,0.0,0.0,0.0,0.0,0.0,0.0,0.0,0.0,0.0,0.0,0.0,0.0,0.0,0.0,0.0,0.0,0.0,0.0,0.0,0.0,0.0,0.0,0.0,0.0,0.0,0.0,0.0,-2.3496,0.0,-2.2168,-2.1894,-2.1328,-2.0879,0.0,0.0,0.0,0.0,0.0,0.0,0.0,0.0,0.0,0.0,0.0,0.0,0.0,0.0,0.0,0.0,0.0,0.0,0.0,0.0,0.0,0.0,0.0,0.0,0.0,0.0,0.0,0.0,0.0,0.0,0.0,0.0,0.0,0.0,0.0,0.0,0.0,0.0,0.0,0.0,0.0,0.0,0.0,0.0,0.0,0.0,0.0,0.0,0.0,0.0,0.0,0.0,0.0,0.0,0.0,0.0,0.0,0.0,0.0,0.0,0.0,0.0,0.0,0.0,0.0,0.0,0.0,0.0,0.0,0.0,0.0,0.0,0.0,0.0,0.0,0.0,0.0,0.0,0.0,0.0,0.0,0.0,0.0,0.0,0.0,0.0,0.0,0.0,0.0,0.0,0.0,0.0,0.0,0.0,0.0,0.0,0.0,0.0,0.0,0.0,0.0,0.0,0.0,0.0,0.0,0.0,0.0,0.0,-2.5273,-2.4414,-2.3555,-2.2773,-2.1973,-2.1914,-2.1484,0.0,0.0,0.0,0.0,0.0,0.0,0.0,0.0,0.0,0.0,0.0,0.0,0.0,0.0,0.0,0.0,0.0,0.0,0.0,0.0,0.0,0.0,0.0,0.0,0.0,0.0,0.0,0.0,0.0,0.0,0.0,0.0,0.0,0.0,0.0,0.0,0.0,0.0,0.0,0.0,0.0,0.0,0.0,0.0,0.0,0.0,0.0,0.0,0.0,0.0,0.0,0.0,0.0,0.0,0.0,0.0,0.0,0.0,0.0,0.0,0.0,0.0,0.0,0.0,0.0,0.0,0.0,0.0,0.0,0.0,0.0,0.0,0.0,0.0,0.0,0.0,0.0,0.0,0.0,0.0,0.0,0.0,0.0,0.0,0.0,0.0,0.0,0.0,0.0,0.0,0.0,0.0,0.0,0.0,0.0,0.0,0.0,0.0,0.0,0.0,0.0,0.0,0.0,0.0,0.0,0.0,0.0,0.0,0.0,-2.5293,-2.4434,-2.3867,-2.3594,-2.248,-2.1777,0.0,0.0,0.0,0.0,0.0,0.0,0.0,0.0,0.0,0.0,0.0,0.0,0.0,0.0,0.0,0.0,0.0,0.0,0.0,0.0,0.0,0.0,0.0,0.0,0.0,0.0,0.0,0.0,0.0,0.0,0.0,0.0,0.0,0.0,0.0,0.0,0.0,0.0,0.0,0.0,0.0,0.0,0.0,0.0,0.0,0.0,0.0,0.0,0.0,0.0,0.0,0.0,0.0,0.0,0.0,0.0,0.0,0.0,0.0,0.0,0.0,0.0,0.0,0.0,0.0,0.0,0.0,0.0,0.0,0.0,0.0,0.0,0.0,0.0,0.0,0.0,0.0,0.0,0.0,0.0,0.0,0.0,0.0,0.0,0.0,0.0,0.0,0.0,0.0,0.0,0.0,0.0,0.0,0.0,0.0,0.0,0.0,0.0,0.0,0.0,0.0,0.0,0.0,0.0,0.0,0.0,0.0,0.0,0.0,-2.5684,-2.5156,-2.4727,-2.4414,-2.3379,-2.2539,-2.1934,0.0,0.0,0.0,0.0,0.0,0.0,0.0,0.0,0.0,0.0,0.0,0.0,0.0,0.0,0.0,0.0,0.0,0.0,0.0,0.0,0.0,0.0,0.0,0.0,0.0,0.0,0.0,0.0,0.0,0.0,0.0,0.0,0.0,0.0,0.0,0.0,0.0,0.0,0.0,0.0,0.0,0.0,0.0,0.0,0.0,0.0,0.0,0.0,0.0,0.0,0.0,0.0,0.0,0.0,0.0,0.0,0.0,0.0,0.0,0.0,0.0,0.0,0.0,0.0,0.0,0.0,0.0,0.0,0.0,0.0,0.0,0.0,0.0,0.0,0.0,0.0,0.0,0.0,0.0,0.0,0.0,0.0,0.0,0.0,0.0,0.0,0.0,0.0,0.0,0.0,0.0,0.0,0.0,0.0,0.0,0.0,0.0,0.0,0.0,0.0,0.0,0.0,0.0,0.0,0.0,0.0,0.0,0.0,-2.584,-2.584,-2.541,-2.4512,-2.4414,-2.3652,0.0,0.0,0.0,0.0,0.0,0.0,0.0,0.0,0.0,0.0,0.0,0.0,0.0,0.0,0.0,0.0,0.0,0.0,0.0,0.0,0.0,0.0,0.0,0.0,0.0,0.0,0.0,0.0,0.0,0.0,0.0,0.0,0.0,0.0,0.0,0.0,0.0,0.0,0.0,0.0,0.0,0.0,0.0,0.0,0.0,0.0,0.0,0.0,0.0,0.0,0.0,0.0,0.0,0.0,0.0,0.0,0.0,0.0,0.0,0.0,0.0,0.0,0.0,0.0,0.0,0.0,0.0,0.0,0.0,0.0,0.0,0.0,0.0,0.0,0.0,0.0,0.0,0.0,0.0,0.0,0.0,0.0,0.0,0.0,0.0,0.0,0.0,0.0,0.0,0.0,0.0,0.0,0.0,0.0,0.0,0.0,0.0,0.0,0.0,0.0,0.0,0.0,0.0,0.0,0.0,0.0,0.0,0.0,0.0,-2.7595,-2.7634,-2.6913,-2.541,-2.4746,-2.4199,0.0,0.0,0.0,0.0,0.0,0.0,0.0,0.0,0.0,0.0,0.0,0.0,0.0,0.0,0.0,0.0,0.0,0.0,0.0,0.0,0.0,0.0,0.0,0.0,0.0,0.0,0.0,0.0,0.0,0.0,0.0,0.0,0.0,0.0,0.0,0.0,0.0,0.0,0.0,0.0,0.0,0.0,0.0,0.0,0.0,0.0,0.0,0.0,0.0,0.0,0.0,0.0,0.0,0.0,0.0,0.0,0.0,0.0,0.0,0.0,0.0,0.0,0.0,0.0,0.0,0.0,0.0,0.0,0.0,0.0,0.0,0.0,0.0,0.0,0.0,0.0,0.0,0.0,0.0,0.0,0.0,0.0,0.0,0.0,0.0,0.0,0.0,0.0,0.0,0.0,0.0,0.0,0.0,0.0,0.0,0.0,0.0,0.0,0.0,0.0,0.0,0.0,0.0,0.0,0.0,0.0,0.0,0.0,-2.7789,-2.8277,-2.8296,-2.7653,-2.6268,-2.5761,-2.5136,0.0,0.0,0.0,0.0,0.0,0.0,0.0,0.0,0.0,0.0,0.0,0.0,0.0,0.0,0.0,0.0,0.0,0.0,0.0,0.0,0.0,0.0,0.0,0.0,0.0,0.0,0.0,0.0,0.0,0.0,0.0,0.0,0.0,0.0,0.0,0.0,0.0,0.0,0.0,0.0,0.0,0.0,0.0,0.0,0.0,0.0,0.0,0.0,0.0,0.0,0.0,0.0,0.0,0.0,0.0,0.0,0.0,0.0,0.0,0.0,0.0,0.0,0.0,0.0,0.0,0.0,0.0,0.0,0.0,0.0,0.0,0.0,0.0,0.0,0.0,0.0,0.0,0.0,0.0,0.0,0.0,0.0,0.0,0.0,0.0,0.0,0.0,0.0,0.0,0.0,0.0,0.0,0.0,0.0,0.0,0.0,0.0,0.0,0.0,0.0,0.0,0.0,0.0,0.0,0.0,0.0,0.0,0.0,-2.847,-2.8548,-2.8548,-2.8138,-2.7298,-2.7104,-2.6226,0.0,0.0,0.0,0.0,0.0,0.0,0.0,0.0,0.0,0.0,0.0,0.0,0.0,0.0,0.0,0.0,0.0,0.0,0.0,0.0,0.0,0.0,0.0,0.0,0.0,0.0,0.0,0.0,0.0,0.0,0.0,0.0,0.0,0.0,0.0,0.0,0.0,0.0,0.0,0.0,0.0,0.0,0.0,0.0,0.0,0.0,0.0,0.0,0.0,0.0,0.0,0.0,0.0,0.0,0.0,0.0,0.0,0.0,0.0,0.0,0.0,0.0,0.0,0.0,0.0,0.0,0.0,0.0,0.0,0.0,0.0,0.0,0.0,0.0,0.0,0.0,0.0,0.0,0.0,0.0,0.0,0.0,0.0,0.0,0.0,0.0,0.0,0.0,0.0,0.0,0.0,0.0,0.0,0.0,0.0,0.0,0.0,0.0,0.0,0.0,0.0,0.0,0.0,0.0,0.0,0.0,0.0,0.0,-2.9578,-3.0243,-3.0263,-2.9851,-2.8991,-2.7684,-2.65,0.0,0.0,0.0,0.0,0.0,0.0,0.0,0.0,0.0,0.0,0.0,0.0,0.0,0.0,0.0,0.0,0.0,0.0,0.0,0.0,0.0,0.0,0.0,0.0,0.0,0.0,0.0,0.0,0.0,0.0,0.0,0.0,0.0,0.0,0.0,0.0,0.0,0.0,0.0,0.0,0.0,0.0,0.0,0.0,0.0,0.0,0.0,0.0,-1.6265,0.0,0.0,0.0,0.0,0.0,0.0,0.0,0.0,0.0,0.0,0.0,0.0,0.0,0.0,0.0,0.0,0.0,0.0,0.0,0.0,0.0,0.0,0.0,0.0,0.0,0.0,0.0,0.0,0.0,0.0,0.0,0.0,0.0,0.0,0.0,0.0,0.0,0.0,0.0,0.0,0.0,0.0,0.0,0.0,0.0,0.0,0.0,0.0,0.0,0.0,0.0,0.0,0.0,0.0,0.0,0.0,0.0,0.0,0.0,-3.0338,-3.0763,-3.0802,-3.0392,-2.9494,-2.825,-2.7188,0.0,0.0,0.0,0.0,0.0,0.0,0.0,0.0,0.0,0.0,0.0,0.0,0.0,0.0,0.0,0.0,0.0,0.0,0.0,0.0,0.0,0.0,0.0,0.0,0.0,0.0,0.0,0.0,0.0,0.0,0.0,0.0,0.0,0.0,0.0,0.0,0.0,0.0,0.0,0.0,0.0,0.0,0.0,0.0,0.0,0.0,0.0,0.0,0.0,0.0,0.0,0.0,0.0,0.0,0.0,0.0,0.0,0.0,0.0,0.0,0.0,0.0,0.0,0.0,0.0,0.0,0.0,0.0,0.0,0.0,0.0,0.0,0.0,0.0,0.0,0.0,0.0,0.0,0.0,0.0,0.0,0.0,0.0,0.0,0.0,0.0,0.0,0.0,0.0,0.0,0.0,0.0,0.0,0.0,0.0,0.0,0.0,0.0,0.0,0.0,0.0,0.0,0.0,0.0,0.0,0.0,0.0,-3.0343,-3.0784,-3.0789,-3.0789,-3.0438,-2.9698,-2.8719,-2.7854,-2.716,0.0,0.0,0.0,0.0,0.0,0.0,0.0,0.0,0.0,0.0,0.0,0.0,0.0,0.0,0.0,0.0,0.0,0.0,0.0,0.0,0.0,0.0,0.0,0.0,0.0,0.0,0.0,0.0,0.0,0.0,0.0,0.0,0.0,0.0,0.0,0.0,0.0,0.0,-1.7866,-1.7885,0.0,0.0,0.0,0.0,0.0,0.0,0.0,0.0,-1.7671,0.0,0.0,0.0,0.0,0.0,0.0,0.0,0.0,0.0,0.0,0.0,0.0,0.0,0.0,0.0,0.0,0.0,0.0,0.0,0.0,0.0,0.0,0.0,0.0,0.0,0.0,0.0,0.0,0.0,0.0,0.0,0.0,0.0,0.0,0.0,0.0,0.0,0.0,0.0,0.0,0.0,0.0,0.0,0.0,0.0,0.0,0.0,0.0,0.0,0.0,0.0,0.0,0.0,0.0,0.0,0.0,-2.9404,-3.0263,-3.0724,-3.0711,-3.073,-3.0633,-3.0477,-2.8954,-2.8051,-2.7823,0.0,0.0,0.0,0.0,0.0,0.0,0.0,0.0,0.0,0.0,0.0,0.0,0.0,0.0,0.0,0.0,0.0,0.0,0.0,0.0,0.0,0.0,0.0,0.0,0.0,0.0,0.0,0.0,0.0,0.0,0.0,0.0,0.0,0.0,0.0,0.0,0.0,0.0,0.0,-1.9601,-1.9582,0.0,0.0,0.0,0.0,0.0,0.0,0.0,0.0,-1.816,0.0,0.0,0.0,0.0,0.0,0.0,0.0,0.0,0.0,0.0,0.0,0.0,0.0,0.0,0.0,0.0,0.0,0.0,0.0,0.0,0.0,0.0,0.0,0.0,0.0,0.0,0.0,0.0,0.0,0.0,0.0,0.0,0.0,0.0,0.0,0.0,0.0,0.0,0.0,0.0,0.0,0.0,0.0,0.0,0.0,0.0,0.0,0.0,0.0,0.0,0.0,0.0,0.0,0.0,0.0,-2.997,-3.0436,-3.0638,-3.0591,-3.061,-3.061,-3.0571,-2.8969,-2.811,0.0,0.0,0.0,0.0,0.0,0.0,0.0,0.0,0.0,0.0,0.0,0.0,0.0,0.0,0.0,0.0,0.0,0.0,0.0,0.0,0.0,0.0,0.0,0.0,0.0,0.0,0.0,0.0,0.0,0.0,0.0,0.0,0.0,0.0,0.0,0.0,0.0,0.0,0.0,0.0,-1.991,-1.9897,-1.9897,0.0,0.0,0.0,0.0,0.0,0.0,-1.9264,-1.8987,0.0,0.0,0.0,0.0,0.0,0.0,0.0,0.0,0.0,0.0,0.0,0.0,0.0,0.0,0.0,0.0,0.0,0.0,0.0,0.0,0.0,0.0,0.0,0.0,0.0,0.0,0.0,0.0,0.0,0.0,0.0,0.0,0.0,0.0,0.0,0.0,0.0,0.0,0.0,0.0,0.0,0.0,0.0,0.0,0.0,0.0,0.0,0.0,0.0,0.0,0.0,0.0,0.0,0.0,0.0,-3.0522,-3.058,-3.0539,-3.0492,-3.0487,-3.0487,-3.0448,-2.8919,-2.8055,0.0,0.0,0.0,0.0,0.0,0.0,0.0,0.0,0.0,0.0,0.0,0.0,0.0,0.0,0.0,0.0,0.0,0.0,0.0,0.0,0.0,0.0,0.0,0.0,0.0,0.0,0.0,0.0,0.0,0.0,0.0,0.0,0.0,0.0,0.0,0.0,0.0,0.0,0.0,0.0,0.0,-1.9982,-2.0,-2.0131,0.0,0.0,0.0,0.0,-2.0038,-2.0,0.0,0.0,0.0,0.0,0.0,0.0,0.0,0.0,0.0,0.0,0.0,0.0,0.0,0.0,0.0,0.0,0.0,0.0,0.0,0.0,0.0,0.0,0.0,0.0,0.0,0.0,0.0,0.0,0.0,0.0,0.0,0.0,0.0,0.0,0.0,0.0,0.0,0.0,0.0,0.0,0.0,0.0,0.0,0.0,0.0,0.0,0.0,0.0,0.0,0.0,0.0,0.0,0.0,0.0,0.0,0.0,-3.0467,-3.0519,-3.0488,-3.0408,-3.0427,-3.0402,-3.0389,-2.8779,-2.7918,0.0,0.0,0.0,0.0,0.0,0.0,0.0,0.0,0.0,0.0,0.0,0.0,0.0,0.0,0.0,0.0,0.0,0.0,0.0,0.0,0.0,0.0,0.0,0.0,0.0,0.0,0.0,0.0,0.0,0.0,0.0,0.0,0.0,0.0,0.0,0.0,0.0,0.0,0.0,0.0,0.0,-2.0689,-2.0689,-2.1295,-2.1767,0.0,0.0,-2.1499,-2.08,-2.0689,0.0,0.0,0.0,0.0,0.0,0.0,0.0,0.0,0.0,0.0,0.0,0.0,0.0,0.0,0.0,0.0,0.0,0.0,0.0,0.0,0.0,0.0,0.0,0.0,0.0,0.0,0.0,0.0,0.0,0.0,0.0,0.0,0.0,0.0,0.0,0.0,0.0,0.0,0.0,0.0,0.0,0.0,0.0,0.0,0.0,0.0,0.0,0.0,0.0,0.0,0.0,0.0,0.0,0.0,0.0,-2.9534,-3.034,-3.0348,-3.0311,-3.0279,-3.0273,-3.0279,-3.0279,-2.911,-2.8245,0.0,0.0,0.0,0.0,0.0,0.0,0.0,0.0,0.0,0.0,0.0,0.0,0.0,0.0,0.0,0.0,0.0,0.0,0.0,0.0,0.0,0.0,0.0,0.0,0.0,0.0,0.0,0.0,0.0,0.0,0.0,0.0,0.0,0.0,0.0,0.0,0.0,0.0,0.0,0.0,0.0,0.0,-2.1211,-2.1542,0.0,0.0,0.0,-2.1634,-2.1295,0.0,0.0,0.0,0.0,0.0,0.0,0.0,0.0,0.0,0.0,0.0,0.0,0.0,0.0,0.0,0.0,0.0,0.0,0.0,0.0,0.0,0.0,0.0,0.0,0.0,0.0,0.0,0.0,0.0,0.0,0.0,0.0,0.0,0.0,0.0,0.0,0.0,0.0,0.0,0.0,0.0,0.0,0.0,0.0,0.0,0.0,0.0,0.0,0.0,0.0,0.0,0.0,0.0,0.0,0.0,0.0,0.0,-3.0207,-3.0187,-3.0145,-3.0121,-3.0121,-3.0121,-3.0121,-2.927,0.0,0.0,0.0,0.0,0.0,0.0,0.0,0.0,0.0,0.0,0.0,0.0,0.0,0.0,0.0,0.0,0.0,0.0,0.0,0.0,0.0,0.0,0.0,0.0,0.0,0.0,0.0,-1.8379,0.0,0.0,0.0,0.0,0.0,0.0,0.0,0.0,0.0,0.0,0.0,0.0,0.0,0.0,-2.1214,-2.1735,-2.199,-2.2126,0.0,0.0,-2.2035,-2.1862,-2.137,-2.0958,0.0,0.0,0.0,0.0,0.0,0.0,0.0,0.0,0.0,0.0,0.0,0.0,0.0,0.0,0.0,0.0,0.0,0.0,0.0,0.0,0.0,0.0,0.0,0.0,0.0,0.0,0.0,0.0,0.0,0.0,0.0,0.0,0.0,0.0,0.0,0.0,0.0,0.0,0.0,0.0,0.0,0.0,0.0,0.0,0.0,0.0,0.0,0.0,0.0,0.0,0.0,0.0,0.0,0.0,0.0,-3.0011,-3.0022,-2.9983,-2.9929,-2.9929,-2.992,-2.9901,-2.9071,-2.8271,0.0,0.0,0.0,0.0,0.0,0.0,0.0,0.0,0.0,0.0,0.0,0.0,0.0,0.0,0.0,0.0,0.0,0.0,0.0,0.0,0.0,0.0,0.0,0.0,0.0,0.0,0.0,0.0,0.0,0.0,0.0,0.0,0.0,0.0,0.0,0.0,0.0,0.0,0.0,0.0,0.0,-2.2443,-2.2447,-2.3071,-2.353,0.0,0.0,-2.3235,-2.2545,-2.2393,-2.2133,-2.1439,0.0,0.0,0.0,0.0,0.0,0.0,0.0,0.0,0.0,0.0,0.0,0.0,0.0,0.0,0.0,0.0,0.0,0.0,0.0,0.0,0.0,0.0,0.0,0.0,0.0,0.0,0.0,0.0,0.0,0.0,0.0,0.0,0.0,0.0,0.0,0.0,0.0,0.0,0.0,0.0,0.0,0.0,0.0,0.0,0.0,0.0,0.0,0.0,0.0,0.0,0.0,0.0,0.0,-2.983,-2.9742,-3.0254,-3.0462,-3.0386,-3.0386,-3.0396,-3.0396,-2.9589,-2.8555,0.0,0.0,0.0,0.0,0.0,0.0,0.0,0.0,0.0,0.0,0.0,0.0,0.0,0.0,0.0,0.0,0.0,0.0,0.0,0.0,0.0,0.0,0.0,0.0,0.0,0.0,0.0,0.0,-1.901,-1.894,-1.8923,0.0,0.0,0.0,0.0,0.0,0.0,0.0,0.0,0.0,0.0,-2.2558,-2.2941,-2.3262,0.0,0.0,-2.3359,-2.3328,-2.3037,-2.2629,-2.2289,-2.2005,-2.1329,0.0,0.0,0.0,0.0,0.0,0.0,0.0,0.0,0.0,0.0,0.0,0.0,0.0,0.0,0.0,0.0,0.0,0.0,0.0,0.0,0.0,0.0,0.0,0.0,0.0,0.0,0.0,0.0,0.0,0.0,0.0,0.0,0.0,0.0,0.0,0.0,0.0,0.0,0.0,0.0,0.0,0.0,0.0,0.0,0.0,0.0,0.0,0.0,0.0,0.0,0.0,0.0,-2.9533,-2.9484,-3.0246,-3.0631,-3.0578,-3.0567,-3.0567,-3.0567,-2.9789,-2.8732,0.0,0.0,0.0,0.0,0.0,0.0,0.0,0.0,0.0,0.0,0.0,0.0,0.0,0.0,0.0,0.0,0.0,0.0,0.0,0.0,0.0,0.0,0.0,0.0,0.0,0.0,0.0,0.0,-1.8733,-1.8714,-1.8658,0.0,0.0,0.0,0.0,0.0,0.0,0.0,0.0,0.0,0.0,-2.2705,-2.3141,-2.3205,-2.3168,-2.3057,-2.3119,-2.3175,-2.3217,-2.2817,-2.2533,-2.2544,0.0,0.0,0.0,0.0,0.0,0.0,0.0,0.0,0.0,0.0,0.0,0.0,0.0,0.0,0.0,0.0,0.0,0.0,0.0,0.0,0.0,0.0,0.0,0.0,0.0,0.0,0.0,0.0,0.0,0.0,-2.1844,0.0,0.0,0.0,0.0,0.0,0.0,0.0,0.0,0.0,0.0,0.0,0.0,0.0,0.0,0.0,0.0,0.0,0.0,0.0,0.0,0.0,0.0,-2.9272,-2.9228,-2.9958,-3.0314,-3.0329,-3.0311,-3.0318,-3.0293,-2.9531,-2.8706,-2.7846,0.0,0.0,0.0,0.0,0.0,0.0,0.0,0.0,0.0,0.0,0.0,0.0,0.0,0.0,0.0,0.0,0.0,0.0,0.0,0.0,0.0,0.0,0.0,0.0,0.0,0.0,-1.8565,-1.8406,-1.8352,0.0,0.0,0.0,0.0,0.0,0.0,0.0,0.0,0.0,0.0,-2.2558,-2.3077,-2.3003,-2.3003,-2.2982,-2.2919,-2.2906,-2.2927,-2.2977,-2.2985,-2.2998,0.0,0.0,0.0,0.0,0.0,0.0,0.0,0.0,0.0,0.0,0.0,0.0,0.0,0.0,0.0,0.0,0.0,0.0,0.0,0.0,0.0,0.0,0.0,0.0,0.0,0.0,0.0,-2.1884,-2.1458,0.0,0.0,0.0,0.0,0.0,0.0,0.0,0.0,0.0,0.0,0.0,-2.6645,-2.7137,0.0,0.0,0.0,0.0,0.0,0.0,0.0,0.0,0.0,0.0,0.0,0.0,-2.8938,-2.8923,-3.0075,-3.0691,-3.0698,-3.0603,-3.0559,-3.0559,-2.9303,-2.8046,-2.6811,0.0,0.0,0.0,0.0,0.0,0.0,0.0,0.0,0.0,0.0,0.0,0.0,0.0,0.0,0.0,0.0,0.0,0.0,0.0,0.0,0.0,0.0,0.0,0.0,0.0,-1.9145,0.0,0.0,0.0,0.0,0.0,0.0,0.0,0.0,0.0,0.0,0.0,-2.1445,-2.1611,-2.2322,-2.2816,-2.2734,-2.2721,-2.2712,0.0,0.0,0.0,0.0,0.0,0.0,0.0,0.0,0.0,0.0,0.0,0.0,0.0,0.0,-2.2066,-2.1259,-2.1098,-2.1118,-2.1159,0.0,0.0,0.0,0.0,0.0,0.0,0.0,0.0,0.0,0.0,0.0,0.0,0.0,0.0,-2.2587,0.0,-2.2413,0.0,0.0,0.0,0.0,0.0,0.0,0.0,0.0,-2.6717,-2.7042,-2.706,-2.7542,-2.7757,0.0,-2.78,-2.7439,0.0,0.0,0.0,0.0,0.0,0.0,0.0,0.0,-2.8563,-2.8572,-2.9958,-3.0683,-3.0675,-3.0614,-3.0563,-3.0545,-2.9042,-2.765,-2.6404,-2.5714,-2.4732,0.0,0.0,0.0,0.0,0.0,0.0,0.0,0.0,0.0,0.0,0.0,0.0,0.0,0.0,0.0,0.0,0.0,0.0,0.0,0.0,0.0,0.0,0.0,-1.953,0.0,0.0,0.0,0.0,0.0,0.0,0.0,0.0,0.0,-2.071,-2.1142,-2.1524,-2.1751,-2.2243,-2.2538,-2.2501,0.0,0.0,0.0,0.0,0.0,0.0,0.0,-2.2552,-2.2569,-2.2569,-2.2538,-2.249,-2.2463,-2.2549,-2.2846,0.0,0.0,-2.175,-2.1592,-2.1621,-2.1649,-2.1678,-2.1654,-2.1654,-2.1682,-2.1722,0.0,0.0,0.0,0.0,0.0,0.0,0.0,0.0,-2.4165,-2.3788,0.0,-2.316,0.0,0.0,0.0,0.0,0.0,-2.5605,0.0,0.0,-2.7085,-2.7465,-2.7483,-2.7485,-2.75,-2.75,-2.7517,-2.7483,-2.7476,-2.7975,0.0,0.0,0.0,0.0,0.0,0.0,-2.8191,-2.8227,-2.9565,-3.0271,-3.0271,-3.0271,-3.0236,-3.0148,-2.8679,-2.7511,-2.6688,-2.5955,-2.5232,-2.4502,-2.311,0.0,0.0,0.0,0.0,0.0,0.0,0.0,0.0,0.0,0.0,0.0,0.0,0.0,0.0,0.0,0.0,0.0,0.0,0.0,0.0,-1.9857,0.0,0.0,0.0,0.0,0.0,0.0,0.0,0.0,0.0,0.0,-2.112,-2.116,-2.1404,-2.2164,0.0,0.0,0.0,0.0,-2.2282,-2.2282,-2.2282,-2.2296,-2.2282,-2.2296,-2.2299,-2.2347,0.0,0.0,-2.218,-2.2109,-2.2319,-2.2973,-2.3106,-2.3083,-2.2911,-2.2894,-2.2937,-2.2937,-2.292,-2.2933,-2.2933,-2.2933,-2.2933,-2.7534,0.0,0.0,0.0,0.0,-2.4966,-2.4579,-2.4349,-2.4349,-2.4215,-2.4025,-2.4023,0.0,0.0,0.0,0.0,0.0,0.0,-2.5926,-2.6434,-2.664,-2.6996,-2.7503,-2.7503,-2.7486,-2.7503,-2.7486,-2.7301,-2.694,-2.7084,-2.7352,-2.7763,0.0,0.0,0.0,0.0,-2.7704,-2.7777,-2.9087,-2.9807,-2.9807,-2.9758,-2.9204,-2.8108,-2.7733,-2.7156,-2.6377,-2.568,-2.4935,-2.4165,-2.3233,0.0,0.0,0.0,0.0,0.0,0.0,0.0,0.0,0.0,0.0,0.0,0.0,0.0,0.0,0.0,0.0,0.0,0.0,0.0,-2.0084,-2.0521,-2.0725,0.0,0.0,0.0,0.0,0.0,0.0,0.0,0.0,0.0,-2.106,-2.1376,-2.168,0.0,0.0,-2.193,-2.193,-2.193,-2.1947,-2.193,-2.1945,0.0,-2.1947,-2.193,-2.213,-2.2647,-2.3086,-2.3323,-2.3209,-2.3144,-2.3194,-2.3424,-2.3457,-2.3424,-2.3434,-2.368,-2.3861,-2.3907,-2.3935,-2.3964,-2.3964,-2.4008,-2.3881,-2.8158,-2.8113,-2.677,-2.6218,-2.6117,-2.538,-2.4846,-2.4513,-2.4514,-2.4331,-2.4049,-2.3983,-2.395,-2.3984,-2.4315,0.0,0.0,0.0,-2.5828,-2.6296,-2.649,-2.6836,-2.7267,-2.7531,-2.7644,-2.7644,-2.7661,-2.7354,-2.6766,-2.6784,-2.679,-2.6875,0.0,0.0,-2.7326,-2.7246,-2.7214,-2.7234,-2.8287,-2.8836,-2.8802,-2.8766,-2.8169,-2.6942,-2.6956,-2.6783,-2.629,-2.5326,-2.4584,-2.4076,-2.3107,-2.2361,0.0,0.0,0.0,0.0,0.0,0.0,0.0,0.0,0.0,0.0,0.0,-1.8562,0.0,0.0,0.0,0.0,-1.9922,-2.0102,-2.0304,-2.0671,0.0,0.0,0.0,0.0,0.0,0.0,0.0,-2.0796,-2.0812,-2.0812,-2.0812,-2.1311,-2.1648,-2.159,-2.1573,-2.1572,-2.1586,0.0,-2.1701,-2.2012,-2.2044,-2.2127,-2.2391,-2.244,-2.2588,-2.3014,-2.3324,-2.3499,-2.343,-2.3345,-2.3389,-2.3631,-2.3727,-2.3826,-2.41,-2.4399,-2.4462,-2.4116,-2.4048,-2.4096,-2.4145,-2.4176,-2.4106,-2.8407,-2.8317,-2.7332,-2.6945,-2.6853,-2.6199,-2.5462,-2.4774,-2.465,-2.4207,-2.3575,-2.3455,-2.3402,-2.3452,-2.4252,0.0,-2.463,-2.544,-2.5789,-2.5805,-2.6442,-2.6781,-2.6912,-2.7528,-2.785,-2.7899,-2.7899,-2.7548,-2.6853,-2.6836,-2.6512,-2.5895,-2.6521,-2.6874,-2.6891,-2.6791,-2.6708,-2.6624,-2.7313,-2.7629,-2.7557,-2.7557,-2.7187,-2.6365,-2.6366,-2.6366,-2.6298,-2.4929,-2.4161,-2.4111,-2.2815,-2.2053,-2.202,0.0,0.0,0.0,0.0,0.0,0.0,0.0,0.0,0.0,0.0,0.0,0.0,0.0,0.0,0.0,-2.0528,0.0,-2.0461,-2.0443,0.0,0.0,0.0,-2.0443,-2.0443,-2.0489,-2.052,-2.0503,0.0,0.0,-2.0581,-2.114,-2.1454,-2.1278,-2.1295,-2.1344,-2.1408,-2.1456,-2.1666,-2.2328,-2.2425,-2.2634,-2.3118,-2.3294,-2.3374,-2.3405,-2.333,-2.3317,-2.3299,-2.3156,-2.3283,-2.3872,-2.3948,-2.4121,-2.4839,-2.4953,-2.4789,-2.3902,-2.3762,-2.3831,-2.3998,-2.4048,-2.4065,-2.8412,-2.8334,-2.754,-2.7154,-2.6997,-2.6217,-2.5755,-2.5504,-2.4859,-2.4504,-2.4328,-2.4308,-2.4288,-2.4308,-2.45,-2.4599,-2.4615,-2.4812,-2.491,-2.491,-2.5068,-2.576,-2.6904,-2.7079,-2.7418,-2.7943,-2.7975,-2.7381,-2.6334,-2.6302,-2.5974,-2.5413,-2.5538,-2.5813,-2.6152,-2.6134,-2.61,-2.6099,-2.6809,-2.7156,-2.7135,-2.7118,-2.6788,-2.6043,-2.6026,-2.6026,-2.601,-2.4593,-2.3819,-2.3786,-2.2419,-2.1628,-2.1643,-2.1495,0.0,0.0,0.0,0.0,0.0,0.0,0.0,0.0,0.0,-1.9188,-1.9695,0.0,-1.972,0.0,-2.0181,-2.0133,-1.998,-1.9947,0.0,0.0,-1.9889,-1.9889,-1.9904,-2.0307,-2.0572,-2.0557,-2.1009,-2.1344,-2.1344,-2.148,-2.1637,-2.1731,-2.2085,-2.2355,-2.2445,-2.2445,-2.2493,-2.2669,-2.2701,-2.2764,-2.2968,-2.343,-2.3745,-2.3654,-2.4039,-2.4343,-2.4265,-2.419,-2.4248,-2.4389,-2.442,-2.4498,-2.4675,-2.4695,-2.4657,-2.4449,-2.4675,-2.4991,-2.501,-2.5086,-2.4995,-2.8039,-2.8008,-2.7531,-2.7296,-2.7157,-2.6326,-2.5774,-2.5358,-2.486,-2.448,-2.4245,-2.4168,-2.4162,-2.4147,-2.4204,-2.4245,-2.4245,-2.4302,-2.4323,-2.4338,-2.4646,-2.5228,-2.6056,-2.6351,-2.672,-2.7076,-2.7114,-2.6607,-2.5648,-2.5623,-2.5306,-2.4719,-2.4719,-2.4879,-2.5169,-2.5454,-2.5567,-2.553,-2.5918,-2.6112,-2.6092,-2.6128,-2.5915,-2.5524,-2.5508,-2.5508,-2.5473,-2.4102,-2.3326,-2.3225,-2.1923,-2.1103,-2.1071,-2.1055,-2.0863,0.0,0.0,0.0,0.0,0.0,0.0,0.0,0.0,0.0,0.0,0.0,-1.9722,-1.9758,-1.9962,-2.0031,-1.9909,-2.0138,-2.0311,-2.0287,-2.0268,-2.0268,-2.0287,-2.0573,-2.0794,-2.0794,-2.1103,-2.1344,-2.1344,-2.158,-2.1839,-2.2038,-2.2596,-2.285,-2.2602,-2.2534,-2.2643,-2.2957,-2.3023,-2.3163,-2.3409,-2.3803,-2.4033,-2.4009,-2.4259,-2.4467,-2.4405,-2.4364,-2.4359,-2.4338,-2.4323,-2.4323,-2.4323,-2.4323,-2.4338,-2.4364,-2.4594,-2.4875,-2.5103,-2.5201,-2.5115,-2.7533,-2.7433,-2.731,-2.7248,-2.717,-2.642,-2.5689,-2.501,-2.4725,-2.4245,-2.3674,-2.3566,-2.3523,-2.353,-2.3631,-2.3674,-2.3696,-2.3797,-2.3876,-2.3906,-2.4465,-2.4767,-2.4911,-2.5485,-2.5826,-2.5902,-2.5902,-2.5568,-2.4933,-2.4918,-2.4598,-2.4024,-2.4015,-2.4057,-2.4198,-2.4699,-2.4977,-2.4993,-2.493,-2.4906,-2.4906,-2.4906,-2.4922,-2.4906,-2.4906,-2.4886,-2.4839,-2.3529,-2.2718,-2.2564,-2.1344,-2.056,-2.0443,-2.0426,-2.0426,0.0,-2.0409,0.0,0.0,0.0,0.0,0.0,0.0,0.0,0.0,-1.9807,-1.9601,-1.9365,-1.988,-2.0155,-2.0036,-2.0555,-2.0865,-2.0859,-2.0859,-2.0865,-2.0901,-2.0937,-2.1016,-2.1016,-2.1109,-2.1152,-2.121,-2.1629,-2.2033,-2.2315,-2.2768,-2.2924,-2.247,-2.2415,-2.2688,-2.3263,-2.3345,-2.3493,-2.3953,-2.4137,-2.4152,-2.4168,-2.4126,-2.4078,-2.4078,-2.4051,-2.4003,-2.4003,-2.4024,-2.4003,-2.3982,-2.3982,-2.3982,-2.3946,-2.4015,-2.4224,-2.4605,-2.4726,-2.4782,-2.7159,-2.6695,-2.6563,-2.6445,-2.6324,-2.6175,-2.5984,-2.5703,-2.4511,-2.3631,-2.3068,-2.3046,-2.3024,-2.3024,-2.3046,-2.3068,-2.3068,-2.3091,-2.3105,-2.3127,-2.3245,-2.3635,-2.4264,-2.4397,-2.4792,-2.5414,-2.5429,-2.5078,-2.4454,-2.4416,-2.4089,-2.3466,-2.3436,-2.3458,-2.348,0.0,0.0,0.0,-2.4426,-2.4441,-2.4426,-2.4426,-2.4426,-2.4426,-2.4328,0.0,-2.422,-2.2915,-2.2152,-2.2087,-2.0846,0.0,0.0,0.0,0.0,0.0,0.0,0.0,0.0,0.0,0.0,0.0,-1.9662,-1.9402,-1.9332,-1.9455,-1.9721,-2.0123,-2.0245,-2.0204,-2.0111,-2.0188,-2.0229,-2.0128,-2.012,-2.0164,-2.0264,-2.0692,-2.1044,-2.1169,-2.1637,-2.1971,-2.1928,-2.2084,-2.2218,-2.2468,-2.2643,-2.2749,-2.2739,-2.3018,-2.3372,-2.3543,-2.3483,-2.3573,-2.3709,-2.3745,-2.376,-2.376,-2.3824,-2.3846,-2.3846,-2.3925,-2.3982,-2.3982,-2.3982,-2.394,-2.3861,-2.3839,-2.3782,-2.3717,-2.3696,-2.3788,-2.4162,-2.4323,-2.4405,-2.6511,0.0,-2.5797,-2.5715,0.0,-2.5591,-2.552,-2.5424,-2.4369,-2.335,-2.2472,-2.2457,-2.2411,-2.2365,-2.2342,-2.2365,-2.2365,-2.2411,-2.2472,-2.2457,-2.2518,-2.2767,-2.3166,-2.3166,-2.3371,-2.3768,-2.3782,-2.3585,-2.3282,-2.3259,-2.3109,-2.2851,-2.2851,-2.2859,-2.2912,-2.2912,-2.3201,-2.3818,-2.3818,-2.3797,-2.3818,-2.3797,-2.3803,-2.3818,-2.3754,0.0,0.0,0.0,0.0,0.0,0.0,0.0,0.0,-2.0391,0.0,-2.0162,-2.0143,-2.003,-1.9798,-1.9698,-1.9699,-1.9831,-1.9543,-1.9384,-1.9498,-1.9566,-1.971,-1.9978,-2.0194,-2.0261,-2.0207,-2.0407,-2.0501,-2.0468,-2.0454,-2.0514,-2.0634,-2.0903,-2.1164,-2.1295,-2.1614,-2.1793,-2.1807,-2.1793,-2.1912,-2.2161,-2.2208,-2.2301,-2.254,-2.2957,-2.3246,-2.3268,-2.3312,-2.3355,-2.337,-2.3399,-2.3458,-2.3458,-2.3516,-2.356,-2.3545,-2.3603,-2.3646,-2.3646,-2.3668,-2.3625,-2.3581,-2.3545,-2.3538,-2.3458,-2.3473,-2.3501,-2.3674,-2.3824,-2.3952,-2.5846,-2.5217,-2.5062,-2.4991,-2.4991,-2.485,-2.4644,-2.4403,0.0,0.0,0.0,-2.1841,-2.1746,-2.165,-2.165,-2.165,-2.165,-2.1769,-2.1841,-2.1817,-2.1935,-2.1983,-2.1983,-2.1983,-2.2006,-2.1983,-2.1983,-2.1996,-2.1983,-2.1983,-2.2053,-2.2147,-2.217,-2.2226,-2.2305,-2.2305,-2.2526,-2.2949,-2.3083,-2.315,-2.315,-2.3164,-2.3164,-2.315,-2.3164,-2.3127,-2.3142,-2.2432,-2.1996,-2.1888,-2.1273,-2.0837,-2.0656,-2.0656,-2.0578,-2.0451,-2.0408,-2.0308,-2.0065,-2.0022,-1.9888,-1.9687,-1.9478,-1.9505,-1.9876,-1.9781,-1.9696,-1.9718,-2.008,-2.029,-2.0242,-2.0592,-2.0807,-2.0795,-2.0782,-2.0845,-2.0957,-2.0995,-2.1031,-2.1191,-2.1226,-2.1277,-2.1264,-2.1251,-2.1361,-2.1578,-2.165,-2.1759,-2.2044,-2.2472,-2.2814,-2.2822,-2.2904,-2.2994,-2.3016,-2.3083,-2.3164,-2.3164,-2.3172,-2.3194,-2.3194,-2.3231,-2.3216,-2.3238,-2.3231,-2.3216,-2.3209,-2.3194,-2.3194,-2.3172,-2.3187,-2.3187,-2.3172,-2.3304,-2.3458,-2.5462,-2.4436,-2.4321,-2.4247,-2.4234,-2.4047,-2.3342,-2.2378,-2.2911,-2.2381,-2.1153,-2.114,-2.114,-2.1115,-2.1115,-2.1115,-2.1102,-2.114,-2.114,-2.114,-2.1164,-2.1164,-2.1164,-2.1164,-2.1164,-2.1164,-2.1188,-2.1164,-2.1164,-2.1164,-2.1175,-2.1213,-2.1313,-2.141,-2.1544,-2.1554,-2.1602,-2.166,-2.2296,-2.2603,-2.2603,-2.2626,-2.2626,-2.2603,-2.2563,-2.2532,-2.2518,-2.1761,-2.1279,-2.1153,-2.058,-2.0193,-2.0041,-2.0033,-1.9962,-1.9839,-1.9715,-1.9596,-1.9512,-1.9284,-1.9268,-1.9508,-1.9744,-1.9882,-1.9895,-1.9772,-1.9863,-2.0222,-2.0303,-2.0293,-2.0092,-2.0092,-2.0093,-2.0003,-1.9978,-2.0003,-2.0169,-2.0296,-2.0397,-2.0523,-2.0635,-2.0709,-2.0709,-2.0723,-2.0797,-2.1033,-2.1155,-2.1229,-2.152,-2.1959,-2.2324,-2.2426,-2.2472,-2.2555,-2.2646,-2.2669,-2.2715,-2.2706,-2.2731,-2.2799,-2.2799,-2.2867,-2.2912,-2.2971,-2.2934,-2.2889,-2.2822,-2.2762,-2.2754,-2.2737,-2.2729,-2.2729,-2.2715,-2.276,-2.2896,-2.4509,-2.3424,-2.3297,-2.331,-2.3267,-2.3195,-2.246,-2.1369,-2.1665,-2.1325,-2.0511,-2.0459,-2.0421,-2.0346,-2.0346,-2.0346,-2.0371,-2.0421,-2.0472,-2.0459,-2.0535,-2.056,-2.056,-2.0573,-2.056,-2.056,-2.056,-2.056,-2.0573,-2.056,-2.0573,-2.056,-2.0623,-2.0711,-2.0747,-2.0747,-2.0772,-2.0871,-2.1565,-2.1898,-2.1898,-2.1884,-2.1912,-2.1912,-2.1864,-2.1841,-2.1841,-2.1437,-2.1158,-2.1097,-2.0768,-2.0535,-2.0395,-2.0409,-2.0301,-2.0112,-2.0041,-1.9898,-1.9742,-1.95,-1.9369,-1.9447,-1.9532,-1.9518,-1.9396,-1.956,-1.9737,-1.994,-1.9837,-1.9695,-1.9566,-1.9488,-1.9422,-1.937,-1.937,-1.9422,-1.9566,-1.9682,-1.9823,-1.9939,-2.008,-2.0156,-2.0156,-2.0156,-2.0271,-2.0511,-2.0686,-2.0847,-2.0945,-2.1177,-2.1492,-2.1864,-2.202,-2.2123,-2.224,-2.2333,-2.237,-2.237,-2.2388,-2.2411,-2.2426,-2.2495,-2.2503,-2.2518,-2.2518,-2.2495,-2.2434,-2.2426,-2.2402,-2.2394,-2.2394,-2.2394,-2.237,-2.2394,-2.2509,-2.3492,-2.2378,-2.239,-2.2347,-2.2329,-2.2329,-2.1644,-2.0574,-2.0509,-2.0171,-1.9602,-1.9683,-1.9721,-1.963,-1.9592,-1.963,-1.9643,-1.9721,-1.9773,-1.9798,-1.9888,-1.9914,-1.9939,-1.9914,-1.9926,-1.9914,-1.9926,-1.9914,-1.9914,-1.9926,-1.9952,-1.9965,-1.9965,-1.9991,-2.0029,-2.0029,-2.008,-2.0195,-2.0711,-2.1019,-2.1215,-2.1215,-2.1215,-2.1215,-2.1204,-2.1166,-2.118,-2.1057,-2.097,-2.0921,-2.082,-2.0721,-2.0585,-2.0535,-2.0434,-2.0245,-2.0169,-2.0003,-1.9747,-1.95,-1.9303,-1.9172,-1.9028,-1.8895,-1.8827,-1.9013,-1.9239,-1.9317,-1.916,-1.9001,-1.8948,-1.8881,-1.8813,-1.8774,-1.8813,-1.8827,-1.8948,-1.9119,-1.9251,-1.9382,-1.9539,-1.963,-1.9618,-1.9618,-1.9734,-1.9978,-2.0232,-2.0409,-2.0409,-2.0409,-2.066,-2.1142,-2.1458,-2.1688,-2.1817,-2.1935,-2.1983,-2.202,-2.2006,-2.1983,-2.202,-2.2006,-2.2006,-2.2006,-2.202,-2.202,-2.202,-2.2006,-2.2006,-2.1996,-2.1996,-2.202,-2.1983,-2.1983,-2.2137,-2.2678,-2.1781,-2.1678,-2.1628,-2.1502,-2.1514,-2.0826,-1.9807,-1.9696,-1.9103,-1.8255,-1.8789,-1.9054,-1.9066,-1.9066,-1.9066,-1.9066,-1.9093,-1.9081,-1.9093,-1.9093,-1.9131,-1.9119,-1.9119,-1.9119,-1.9119,-1.9119,-1.9119,-1.9119,-1.9119,-1.9172,-1.9291,-1.9317,-1.9344,-1.9434,-1.9473,-1.9473,-1.9499,-1.9551,-1.9939,-2.0635,-2.0684,-2.0671,-2.066,-2.0535,-2.0498,-2.0498,-2.0346,-2.0245,-2.0118,-2.0118,-2.0016,-1.9914,-1.9785,-1.9708,-1.9668,-1.9448,-1.9186,-1.8919,-1.8774,-1.8602,-1.8414,-1.8263,-1.822,-1.8166,-1.8002,-1.81,-1.8506,-1.8494,-1.8333,-1.822,-1.8193,-1.8193,-1.8193,-1.8193,-1.8193,-1.8236,-1.8479,-1.8667,-1.8694,-1.8922,-1.9078,-1.9066,-1.9093,-1.9198,-1.9447,-1.9708,-1.9875,-1.9875,-1.9875,-1.9952,-2.0321,-2.0723,-2.1131,-2.1375,-2.1471,-2.1458,-2.1471,-2.1458,-2.1458,-2.1471,-2.1471,-2.1471,-2.1482,-2.1482,-2.1482,-2.1458,-2.1458,-2.1496,-2.1482,-2.1482,-2.1471,-2.1458,-2.1482,-2.165,-2.1721,-2.072,-2.073,-2.0677,-2.0624,-2.0571,-2.0054,-1.9318,-1.8926,-1.8342,-1.7671,-1.7673,-1.7897,-1.8224,-1.824,-1.8213,-1.824,-1.8306,-1.836,-1.836,-1.8425,-1.8491,-1.8464,-1.8371,-1.836,-1.8344,-1.8278,-1.824,-1.8213,-1.8251,-1.8267,-1.8321,-1.8375,-1.8467,-1.8521,-1.8587,-1.8667,-1.8747,-1.8735,-1.8975,-1.9384,-1.9734,-1.9901,-1.9888,-1.9849,-1.9823,-1.9785,-1.9682,-1.9604,-1.9514,-1.9436,-1.9344,-1.9225,-1.9158,-1.9013,-1.8842,-1.8667,-1.8479,-1.8263,-1.8139,-1.8018,-1.7826,-1.7661,-1.7551,-1.7551,-1.7312,-1.7284,-1.7507,-1.7645,-1.7673,-1.759,-1.7551,-1.759,-1.7629,-1.7629,-1.7617,-1.759,-1.7865,-1.8057,-1.8084,-1.8317,-1.8452,-1.8491,-1.864,-1.8801,-1.8934,-1.9146,-1.9317,-1.9317,-1.9317,-1.9422,-1.9668,-1.9926,-2.0296,-2.0784,-2.0932,-2.0945,-2.0945,-2.0945,-2.0945,-2.0932,-2.0932,-2.0908,-2.0921,-2.0908,-2.0908,-2.0908,-2.0932,-2.0932,-2.0932,-2.0932,-2.0945,-2.0921,-2.0932,-2.1055,-2.0629,-1.9736,-1.9671,-1.9661,-1.9639,-1.9551,-1.9231,-1.8723,-1.8175,-1.7622,-1.7084,-1.6665,-1.6684,-1.7073,-1.7335,-1.7446,-1.7457,-1.754,-1.7595,-1.7606,-1.77,-1.7755,-1.7717,-1.7661,-1.7606,-1.7579,-1.7512,-1.7446,-1.7457,-1.7457,-1.7457,-1.7473,-1.7551,-1.7606,-1.7595,-1.7717,-1.7826,-1.7952,-1.7979,-1.8061,-1.8263,-1.8614,-1.8907,-1.9131,-1.9119,-1.9093,-1.9105,-1.8975,-1.8857,-1.8842,-1.8735,-1.864,-1.8518,-1.8464,-1.8329,-1.8045,-1.787,-1.7744,-1.7606,-1.7479,-1.734,-1.7162,-1.7022,-1.6948,-1.6909,-1.6684,-1.6552,-1.6581,-1.6694,-1.6779,-1.6937,-1.6937,-1.6976,-1.7015,-1.7015,-1.7004,-1.6994,-1.7245,-1.7462,-1.7479,-1.77,-1.7838,-1.7893,-1.8127,-1.8329,-1.8383,-1.8587,-1.8747,-1.8759,-1.8747,-1.8854,-1.9119,-1.9172,-1.9526,-2.0207,-2.0384,-2.0397,-2.0384,-2.0371,-2.0384,-2.0384,-2.0384,-2.0371,-2.0384,-2.0384,-2.0384,-2.0384,-2.0384,-2.0384,-2.0384,-2.0397,-2.0384,-2.0384,-2.0384,-2.0359,-1.9384,-1.8617,-1.8566,-1.861,-1.8566,-1.8576,-1.8311,-1.7853,-1.7424,-1.6888,-1.6347,-1.588,-1.5584,-1.5613,-1.6389,-1.6835,-1.6807,-1.6835,-1.6835,-1.6846,-1.6864,-1.6864,-1.6864,-1.6864,-1.6846,-1.6835,-1.6807,-1.6807,-1.6835,-1.6807,-1.6835,-1.6835,-1.6835,-1.6835,-1.6864,-1.6983,-1.7039,-1.7084,-1.719,-1.7245,-1.7262,-1.7301,-1.7733,-1.8414,-1.8452,-1.836,-1.8333,-1.8209,-1.81,-1.7963,-1.7952,-1.7897,-1.7749,-1.7623,-1.7507,-1.734,-1.7162,-1.6983,-1.6853,-1.6722,-1.657,-1.64,-1.6343,-1.6324,-1.6314,-1.6104,-1.596,-1.5931,-1.5729,-1.5758,-1.6171,-1.6285,-1.6353,-1.6353,-1.6353,-1.6353,-1.6353,-1.6599,-1.6779,-1.6874,-1.706,-1.7217,-1.7256,-1.7534,-1.77,-1.7783,-1.7975,-1.8139,-1.8139,-1.8139,-1.8275,-1.8506,-1.8655,-1.8883,-1.963,-1.9837,-1.9824,-1.9824,-1.9824,-1.9824,-1.9824,-1.9824,-1.9824,-1.985,-1.9824,-1.9824,-1.9824,-1.9824,-1.9824,-1.9837,-1.9837,-1.9837,-1.9824,-1.9824,-1.9798,-1.8582,-1.7818,-1.7818,-1.7808,-1.7774,-1.7706,-1.7552,-1.736,-1.6573,-1.6116,-1.5839,-1.5194,-1.4854,-1.4854,-1.5177,-1.5526,-1.5884,-1.5999,-1.6028,-1.6056,-1.6171,-1.6228,-1.6218,-1.6114,-1.6028,-1.6028,-1.5941,-1.5912,-1.5902,-1.5902,-1.5902,-1.5941,-1.5999,-1.6028,-1.6056,-1.6189,-1.6293,-1.6304,-1.635,-1.6361,-1.6389,-1.6389,-1.6549,-1.6877,-1.7363,-1.7595,-1.7606,-1.7457,-1.7363,-1.7318,-1.7245,-1.7123,-1.6983,-1.6825,-1.6694,-1.6552,-1.6485,-1.6304,-1.6056,-1.597,-1.5884,-1.5729,-1.5729,-1.5729,-1.5681,-1.5575,-1.543,-1.5313,-1.5089,-1.5059,-1.5177,-1.5468,-1.5739,-1.5729,-1.5729,-1.571,-1.5758,-1.5912,-1.6085,-1.6228,-1.6457,-1.6627,-1.6694,-1.692,-1.7117,-1.7145,-1.7368,-1.7507,-1.7523,-1.7523,-1.7606,-1.7826,-1.7963,-1.8154,-1.8467,-1.9028,-1.9303,-1.9291,-1.9291,-1.9291,-1.9303,-1.9291,-1.9291,-1.9265,-1.9265,-1.9291,-1.9291,-1.9291,-1.9303,-1.9291,-1.9303,-1.9265,-1.9291,-1.9291,-1.9225,-1.7421,-1.6927,-1.689,-1.6881,-1.689,-1.6777,-1.6742,-1.6635,-1.5875,-1.5483,-1.5249,-1.4626,-1.4288,-1.4189,-1.4163,-1.4371,-1.4785,-1.5089,-1.5245,-1.5264,-1.5381,-1.5429,-1.5429,-1.5294,-1.5245,-1.5235,-1.5147,-1.5089,-1.5089,-1.5089,-1.5118,-1.5128,-1.5206,-1.5245,-1.5264,-1.5439,-1.5488,-1.5497,-1.5555,-1.5584,-1.5584,-1.5584,-1.5584,-1.5642,-1.6161,-1.6549,-1.6758,-1.6701,-1.6616,-1.6531,-1.6457,-1.6371,-1.62,-1.6056,-1.5902,-1.5816,-1.57,-1.5555,-1.5362,-1.5264,-1.5206,-1.5118,-1.5089,-1.5118,-1.5118,-1.4961,-1.4813,-1.4666,-1.4508,-1.4359,-1.4291,-1.4558,-1.4874,-1.503,-1.5118,-1.5128,-1.5118,-1.5216,-1.542,-1.5642,-1.5884,-1.5999,-1.6056,-1.6239,-1.641,-1.6495,-1.6712,-1.6853,-1.6909,-1.6909,-1.6976,-1.72,-1.734,-1.7468,-1.7689,-1.81,-1.8568,-1.8622,-1.8682,-1.8694,-1.8732,-1.8721,-1.8721,-1.8694,-1.8721,-1.8747,-1.8759,-1.8759,-1.8759,-1.8786,-1.8721,-1.8682,-1.8694,-1.8721,-1.8614,-1.5815,-1.5833,-1.5798,-1.5833,-1.5833,-1.5833,-1.5798,-1.5729,-1.5343,-1.4958,-1.4557,-1.4149,-1.3766,-1.3532,-1.348,-1.3502,-1.3662,-1.4133,-1.444,-1.4499,-1.4529,-1.4529,-1.4519,-1.4499,-1.4499,-1.4529,-1.4499,-1.4499,-1.4499,-1.4499,-1.4469,-1.4499,-1.4499,-1.4508,-1.4469,-1.4617,-1.4677,-1.4706,-1.4795,-1.4854,-1.4893,-1.4863,-1.4854,-1.4854,-1.4951,-1.5225,-1.5806,-1.5864,-1.5816,-1.5642,-1.5613,-1.5526,-1.541,-1.5264,-1.5196,-1.5118,-1.4883,-1.4736,-1.4677,-1.4588,-1.4499,-1.4499,-1.4499,-1.4499,-1.444,-1.433,-1.4189,-1.404,-1.389,-1.3731,-1.3571,-1.3571,-1.3842,-1.438,-1.4499,-1.4469,-1.4529,-1.4617,-1.4824,-1.5118,-1.5284,-1.5381,-1.541,-1.5536,-1.57,-1.5874,-1.6017,-1.6212,-1.636,-1.6409,-1.6423,-1.6618,-1.6898,-1.7158,-1.713,-1.7166,-1.7618,-1.7961,-1.8052,-1.8111,-1.81,-1.81,-1.81,-1.81,-1.81,-1.8127,-1.8236,-1.8247,-1.822,-1.8209,-1.8154,-1.81,-1.81,-1.8073,-1.7936,-1.4991,-1.4991,-1.4991,-1.4955,-1.4955,-1.4955,-1.4955,-1.495,-1.4616,-1.425,-1.3884,-1.3469,-1.3129,-1.2885,-1.282,-1.2812,-1.285,-1.3056,-1.3359,-1.3743,-1.3803,-1.3803,-1.3812,-1.3803,-1.3812,-1.3812,-1.3803,-1.3812,-1.3812,-1.3812,-1.3812,-1.3812,-1.3812,-1.3812,-1.3803,-1.3863,-1.3872,-1.3872,-1.3902,-1.3932,-1.3953,-1.3932,-1.3932,-1.3932,-1.3923,-1.4043,-1.4252,-1.4785,-1.503,-1.4971,-1.4883,-1.4824,-1.4765,-1.4597,-1.4469,-1.4389,-1.4181,-1.4031,-1.3902,-1.3833,-1.3803,-1.3803,-1.3803,-1.3812,-1.3812,-1.3752,-1.3662,-1.3511,-1.3376,-1.3194,-1.3042,-1.2881,-1.3117,-1.3722,-1.3803,-1.3812,-1.3842,-1.4061,-1.424,-1.4389,-1.4617,-1.4765,-1.4795,-1.4883,-1.5078,-1.5283,-1.543,-1.5625,-1.598,-1.6079,-1.6237,-1.6526,-1.6779,-1.689,-1.6908,-1.6995,-1.733,-1.7593,-1.766,-1.765,-1.7623,-1.7578,-1.7556,-1.7468,-1.7496,-1.7551,-1.7673,-1.7673,-1.7634,-1.7634,-1.7579,-1.7551,-1.7507,-1.7423,-1.734,-1.4209,-1.4209,-1.4173,-1.4217,-1.4173,-1.4173,-1.4181,-1.415,-1.395,-1.37,-1.3361,-1.2963,-1.2618,-1.2327,-1.2204,-1.2182,-1.2182,-1.2182,-1.239,-1.2773,-1.3056,-1.3117,-1.3117,-1.3117,-1.3147,-1.3117,-1.3117,-1.3117,-1.3147,-1.3147,-1.3117,-1.3117,-1.3117,-1.3117,-1.3117,-1.3117,-1.3117,-1.3147,-1.3147,-1.3117,-1.3117,-1.3147,-1.3117,-1.3117,-1.3117,-1.3117,-1.3177,-1.3631,-1.3992,-1.421,-1.4172,-1.4142,-1.4112,-1.389,-1.3709,-1.3619,-1.3437,-1.3246,-1.3147,-1.3147,-1.3117,-1.3117,-1.3117,-1.3117,-1.3147,-1.3147,-1.3056,-1.2934,-1.2828,-1.2683,-1.2552,-1.2428,-1.2544,-1.2803,-1.3025,-1.3147,-1.3246,-1.3467,-1.3679,-1.3791,-1.3962,-1.4121,-1.4172,-1.4333,-1.4529,-1.4807,-1.5049,-1.5292,-1.5706,-1.5866,-1.6034,-1.6221,-1.6311,-1.6459,-1.6672,-1.687,-1.7099,-1.7236,-1.7342,-1.7347,-1.7301,-1.7248,-1.7205,-1.6938,-1.6853,-1.6965,-1.7078,-1.6965,-1.6909,-1.6937,-1.6994,-1.6909,-1.6864,-1.6864,-1.6779,-1.3455,-1.3463,-1.3463,-1.3492,-1.3492,-1.3499,-1.3455,-1.3455,-1.3397,-1.32,-1.2895,-1.2504,-1.2207,-1.1942,-1.166,-1.1536,-1.1536,-1.1529,-1.156,-1.174,-1.2081,-1.2351,-1.2451,-1.2451,-1.2482,-1.2451,-1.2482,-1.2451,-1.2451,-1.2451,-1.2451,-1.2451,-1.2451,-1.2451,-1.2451,-1.2451,-1.2451,-1.2451,-1.2451,-1.2451,-1.2482,-1.2451,-1.2451,-1.2459,-1.2451,-1.2451,-1.249,-1.2544,-1.2842,-1.3359,-1.3442,-1.345,-1.339,-1.3125,-1.2981,-1.295,-1.2636,-1.2513,-1.2451,-1.2451,-1.2451,-1.2451,-1.2451,-1.2451,-1.2451,-1.2451,-1.2421,-1.2297,-1.2243,-1.2182,-1.2058,-1.1996,-1.1965,-1.1872,-1.2236,-1.2544,-1.2744,-1.2897,-1.3033,-1.3216,-1.3329,-1.3445,-1.3518,-1.3769,-1.4101,-1.4469,-1.4774,-1.5076,-1.5454,-1.5587,-1.5596,-1.5752,-1.5997,-1.6206,-1.6482,-1.6646,-1.6885,-1.7054,-1.7119,-1.7071,-1.7011,-1.6958,-1.6804,-1.6537,-1.6391,-1.6436,-1.64,-1.6353,-1.6343,-1.6428,-1.64,-1.6296,-1.6267,-1.6257,-1.6142,-1.3046,-1.3053,-1.3046,-1.3046,-1.3046,-1.29,-1.2826,-1.2826,-1.2673,-1.2435,-1.2134,-1.1833,-1.1512,-1.1166,-1.0983,-1.0877,-1.087,-1.087,-1.0877,-1.087,-1.0996,-1.1404,-1.1747,-1.1833,-1.1833,-1.184,-1.184,-1.184,-1.184,-1.184,-1.1809,-1.184,-1.1833,-1.1833,-1.184,-1.1833,-1.184,-1.184,-1.184,-1.1833,-1.184,-1.184,-1.1833,-1.184,-1.184,-1.184,-1.184,-1.184,-1.212,-1.2689,-1.275,-1.275,-1.275,-1.2574,-1.2428,-1.2305,-1.212,-1.1934,-1.1864,-1.1833,-1.184,-1.184,-1.184,-1.184,-1.184,-1.1833,-1.1809,-1.1747,-1.1654,-1.156,-1.1498,-1.1435,-1.1341,-1.1373,-1.1685,-1.2019,-1.2243,-1.2398,-1.2513,-1.2574,-1.2683,-1.2865,-1.3082,-1.3276,-1.3534,-1.4023,-1.4329,-1.4596,-1.5084,-1.5304,-1.528,-1.5677,-1.5929,-1.6092,-1.6273,-1.6478,-1.6658,-1.6865,-1.6906,-1.683,-1.676,-1.6669,-1.6453,-1.6186,-1.6107,-1.6148,-1.5929,-1.5749,-1.5807,-1.5916,-1.5768,-1.5662,-1.5652,-1.5642,-1.5507,-1.2378,-1.2378,-1.2378,-1.2378,-1.2372,-1.2261,-1.2224,-1.2187,-1.2003,-1.1808,-1.1601,-1.1243,-1.0927,-1.0653,-1.0418,-1.0251,-1.0149,-1.0136,-1.0136,-1.0136,-1.0168,-1.0548,-1.1028,-1.1185,-1.1185,-1.1185,-1.116,-1.1185,-1.1185,-1.1185,-1.1185,-1.1185,-1.124,-1.1279,-1.1272,-1.1341,-1.1404,-1.1404,-1.1404,-1.1373,-1.1373,-1.1373,-1.1404,-1.1404,-1.138,-1.1373,-1.1279,-1.1216,-1.1466,-1.1957,-1.2112,-1.212,-1.212,-1.1957,-1.184,-1.174,-1.1529,-1.1341,-1.1279,-1.1216,-1.1185,-1.1192,-1.1185,-1.1185,-1.1185,-1.1185,-1.1185,-1.116,-1.1059,-1.1028,-1.0996,-1.087,-1.0807,-1.0902,-1.1059,-1.1341,-1.1709,-1.1833,-1.197,-1.2116,-1.2247,-1.2418,-1.2722,-1.2874,-1.3243,-1.3674,-1.4008,-1.4374,-1.478,-1.4882,-1.4993,-1.5246,-1.5417,-1.5483,-1.5625,-1.5826,-1.6026,-1.6262,-1.634,-1.6349,-1.6376,-1.6284,-1.6126,-1.5917,-1.586,-1.5747,-1.5552,-1.5363,-1.5335,-1.5335,-1.5182,-1.5068,-1.5068,-1.5086,-1.4938,-1.1632,-1.1632,-1.1632,-1.1632,-1.1632,-1.1595,-1.1632,-1.1558,-1.1409,-1.1292,-1.1138,-1.0785,-1.0426,-1.0176,-0.9866,-0.9646,-0.9402,-0.9396,-0.9396,-0.9428,-0.946,-0.9754,-1.0206,-1.0428,-1.046,-1.0491,-1.0498,-1.053,-1.053,-1.053,-1.053,-1.0593,-1.0674,-1.0706,-1.0737,-1.087,-1.0965,-1.0933,-1.0933,-1.0902,-1.0902,-1.0902,-1.0902,-1.0902,-1.0909,-1.0839,-1.0737,-1.0649,-1.0796,-1.1392,-1.1488,-1.1466,-1.1466,-1.131,-1.1209,-1.1146,-1.0933,-1.0769,-1.0674,-1.0593,-1.0491,-1.0491,-1.0491,-1.0491,-1.0491,-1.046,-1.0491,-1.0491,-1.0491,-1.046,-1.0428,-1.0301,-1.0301,-1.0364,-1.0333,-1.053,-1.0968,-1.1227,-1.1429,-1.1797,-1.1906,-1.2061,-1.2342,-1.2693,-1.3037,-1.3324,-1.3623,-1.3935,-1.4241,-1.432,-1.4379,-1.4442,-1.4597,-1.4713,-1.4911,-1.5117,-1.5349,-1.5578,-1.5604,-1.5652,-1.5807,-1.576,-1.5674,-1.56,-1.555,-1.5468,-1.5346,-1.5183,-1.5038,-1.4947,-1.4883,-1.4669,-1.4499,-1.456,-1.4496,-1.1223,-1.1223,-1.1223,-1.1223,-1.1223,-1.1074,-1.0999,-1.0962,-1.0775,-1.0631,-1.0424,-1.0146,-0.9796,-0.944,-0.9179,-0.8893,-0.8722,-0.8732,-0.8705,-0.8732,-0.8705,-0.877,-0.9087,-0.9434,-0.9716,-0.9748,-0.9741,-0.9817,-0.9926,-0.9958,-1.0021,-1.0117,-1.0142,-1.0174,-1.0206,-1.0231,-1.0238,-1.0244,-1.0238,-1.0269,-1.0301,-1.0269,-1.0269,-1.0269,-1.0251,-1.0219,-1.0149,-1.0053,-1.0123,-1.0393,-1.0683,-1.0787,-1.0851,-1.0798,-1.071,-1.0583,-1.0486,-1.0282,-1.0091,-1.0008,-0.9894,-0.9779,-0.9754,-0.9748,-0.9741,-0.9716,-0.9748,-0.9748,-0.9748,-0.9754,-0.9748,-0.9684,-0.9702,-0.974,-0.9714,-0.9788,-1.0177,-1.0653,-1.0967,-1.1161,-1.1343,-1.1567,-1.1885,-1.2115,-1.2514,-1.2913,-1.3223,-1.3477,-1.3601,-1.371,-1.3702,-1.3695,-1.3848,-1.3992,-1.4201,-1.4418,-1.4669,-1.4812,-1.484,-1.4867,-1.5041,-1.5272,-1.5181,-1.5205,-1.5297,-1.5201,-1.5064,-1.4856,-1.4659,-1.4649,-1.4588,-1.4354,-1.4181,-1.4155,-1.3993,-1.0556,-1.0556,-1.055,-1.055,-1.0519,-1.04,-1.0406,-1.0331,-1.018,-1.0035,-0.99,-0.967,-0.9291,-0.8835,-0.8656,-0.8412,-0.8108,-0.8052,-0.8019,-0.8052,-0.8057,-0.8052,-0.8155,-0.8468,-0.8753,-0.8985,-0.9145,-0.9247,-0.9318,-0.9414,-0.9472,-0.9536,-0.9632,-0.9658,-0.969,-0.9722,-0.9754,-0.9786,-0.9748,-0.9748,-0.9786,-0.9754,-0.9786,-0.9765,-0.9774,-0.9788,-0.9827,-0.9802,-0.9815,-0.9908,-0.9983,-1.017,-1.0369,-1.0435,-1.0329,-1.0263,-1.0033,-0.9931,-0.9756,-0.9491,-0.928,-0.9189,-0.9119,-0.9049,-0.9049,-0.9011,-0.9017,-0.9017,-0.9017,-0.9049,-0.9049,-0.9017,-0.9051,-0.9171,-0.9182,-0.9263,-0.9553,-1.0074,-1.056,-1.0731,-1.0953,-1.1233,-1.1477,-1.1673,-1.1926,-1.2348,-1.2471,-1.2709,-1.282,-1.2936,-1.2936,-1.2966,-1.3119,-1.3302,-1.3513,-1.3731,-1.3956,-1.4065,-1.4101,-1.4101,-1.4168,-1.4439,-1.4672,-1.4771,-1.4841,-1.4882,-1.4741,-1.4535,-1.4345,-1.4288,-1.4197,-1.3991,-1.3868,-1.3794,-1.3575,-0.9728,-0.9733,-0.9728,-0.9728,-0.9728,-0.9733,-0.969,-0.969,-0.9544,-0.9425,-0.9392,-0.9241,-0.8795,-0.8339,-0.8266,-0.7917,-0.7555,-0.7428,-0.7466,-0.7461,-0.7461,-0.7498,-0.7601,-0.7694,-0.7857,-0.8284,-0.8544,-0.8673,-0.8765,-0.8829,-0.8926,-0.8958,-0.9081,-0.9145,-0.921,-0.9268,-0.93,-0.9306,-0.93,-0.93,-0.9306,-0.9306,-0.9318,-0.9403,-0.9416,-0.9466,-0.9496,-0.9508,-0.959,-0.9617,-0.9447,-0.9604,-0.9897,-1.002,-1.0037,-0.9985,-0.9678,-0.9535,-0.9394,-0.9103,-0.886,-0.8783,-0.8549,-0.8445,-0.8445,-0.837,-0.8344,-0.8344,-0.8344,-0.837,-0.8359,-0.8396,-0.8501,-0.8604,-0.8667,-0.8777,-0.9018,-0.9421,-0.9875,-1.0355,-1.0527,-1.0797,-1.1009,-1.1224,-1.149,-1.1706,-1.1824,-1.1898,-1.2046,-1.2157,-1.2157,-1.2268,-1.2415,-1.2709,-1.2929,-1.3039,-1.3266,-1.3302,-1.3302,-1.3302,-1.3302,-1.3462,-1.3738,-1.4222,-1.4347,-1.4339,-1.43,-1.4128,-1.3995,-1.3932,-1.3854,-1.3702,-1.3551,-1.3434,-1.3155,-0.8894,-0.8894,-0.8894,-0.8889,-0.8894,-0.8894,-0.8927,-0.8894,-0.8894,-0.8742,-0.8632,-0.8546,-0.8259,-0.7794,-0.7633,-0.7371,-0.705,-0.6942,-0.6975,-0.6975,-0.6975,-0.7007,-0.704,-0.7077,-0.7143,-0.7302,-0.7759,-0.8144,-0.8269,-0.8333,-0.8404,-0.8544,-0.8608,-0.8603,-0.8603,-0.8673,-0.8668,-0.8668,-0.8662,-0.8668,-0.8662,-0.8668,-0.8745,-0.8887,-0.894,-0.903,-0.912,-0.909,-0.9126,-0.9274,-0.9145,-0.9207,-0.9348,-0.9349,-0.9311,-0.9349,-0.9265,-0.9147,-0.9026,-0.8925,-0.8771,-0.8601,-0.8298,-0.8097,-0.8019,-0.7854,-0.7819,-0.7752,-0.7752,-0.7744,-0.7808,-0.7894,-0.7962,-0.8096,-0.8178,-0.829,-0.8527,-0.8819,-0.9155,-0.9604,-0.9961,-1.0284,-1.0479,-1.0663,-1.085,-1.1037,-1.1111,-1.1186,-1.1267,-1.1335,-1.1409,-1.1558,-1.1744,-1.204,-1.2372,-1.2409,-1.2489,-1.2489,-1.2489,-1.2482,-1.2482,-1.2489,-1.2783,-1.3178,-1.355,-1.3644,-1.3607,-1.357,-1.354,-1.3401,-1.3378,-1.3356,-1.3173,-1.3011,-1.272,-0.8365,-0.8403,-0.8403,-0.8403,-0.8403,-0.8403,-0.8365,-0.8403,-0.8365,-0.8327,-0.8293,-0.8241,-0.791,-0.7451,-0.7271,-0.693,-0.6497,-0.6387,-0.6383,-0.6383,-0.6383,-0.6449,-0.6548,-0.6585,-0.6716,-0.6876,-0.7237,-0.7526,-0.7684,-0.7814,-0.7884,-0.7949,-0.7982,-0.7987,-0.7982,-0.7982,-0.7982,-0.7987,-0.7987,-0.7987,-0.8007,-0.805,-0.8163,-0.8258,-0.8473,-0.8639,-0.8693,-0.8807,-0.8849,-0.8906,-0.8777,-0.8769,-0.8764,-0.8734,-0.8717,-0.8911,-0.8944,-0.8816,-0.8607,-0.845,-0.8212,-0.8136,-0.7876,-0.7769,-0.7706,-0.7612,-0.7462,-0.7471,-0.7514,-0.7516,-0.7621,-0.759,-0.7685,-0.7825,-0.7879,-0.7979,-0.8156,-0.8323,-0.8548,-0.8837,-0.9295,-0.9658,-0.99,-1.0067,-1.0218,-1.0325,-1.0438,-1.0475,-1.0519,-1.0588,-1.0657,-1.085,-1.1074,-1.1335,-1.1632,-1.1669,-1.1669,-1.1669,-1.1669,-1.1669,-1.1669,-1.1669,-1.1781,-1.1996,-1.2335,-1.2753,-1.2849,-1.2807,-1.2842,-1.2856,-1.2786,-1.2717,-1.2675,-1.2526,-1.2223,-0.7872,-0.7872,-0.7834,-0.7868,-0.7868,-0.7868,-0.7829,-0.7868,-0.7834,-0.7829,-0.7829,-0.7821,-0.7542,-0.7126,-0.6833,-0.6479,-0.5899,-0.5925,-0.5958,-0.5954,-0.5954,-0.602,-0.6115,-0.6251,-0.635,-0.6482,-0.6618,-0.6848,-0.7171,-0.733,-0.7363,-0.7396,-0.7396,-0.7363,-0.7396,-0.7428,-0.7396,-0.7396,-0.7358,-0.7405,-0.7456,-0.7544,-0.7663,-0.7723,-0.8082,-0.8286,-0.8398,-0.8463,-0.8533,-0.8528,-0.8466,-0.8365,-0.8327,-0.8174,-0.8246,-0.8595,-0.8613,-0.8514,-0.8314,-0.8015,-0.7838,-0.7838,-0.7538,-0.7404,-0.7303,-0.7269,-0.7203,-0.7237,-0.722,-0.7237,-0.7239,-0.7296,-0.7385,-0.7549,-0.7608,-0.7651,-0.7753,-0.7842,-0.7872,-0.8219,-0.867,-0.8975,-0.916,-0.9387,-0.9496,-0.9533,-0.9647,-0.9722,-0.976,-0.9836,-0.9949,-1.0175,-1.0406,-1.0631,-1.0812,-1.085,-1.085,-1.085,-1.085,-1.085,-1.085,-1.0887,-1.0993,-1.1105,-1.1329,-1.1706,-1.1892,-1.204,-1.204,-1.204,-1.204,-1.202,-1.1961,-1.1911,-1.1713,-0.7053,-0.7057,-0.7057,-0.7019,-0.7061,-0.7096,-0.7057,-0.7096,-0.7096,-0.7053,-0.7134,-0.7084,-0.6965,-0.6667,-0.6352,-0.6086,-0.5914,-0.5859,-0.5826,-0.5826,-0.5826,-0.5859,-0.5921,-0.5921,-0.5987,-0.6086,-0.609,-0.6383,-0.6745,-0.6913,-0.6946,-0.6942,-0.6942,-0.6946,-0.6909,-0.6909,-0.6979,-0.6942,-0.6946,-0.703,-0.7209,-0.7236,-0.743,-0.7636,-0.7822,-0.7928,-0.8009,-0.808,-0.8097,-0.814,-0.814,-0.814,-0.8102,-0.794,-0.7791,-0.7825,-0.7961,-0.8138,-0.8036,-0.779,-0.7651,-0.7576,-0.7294,-0.7052,-0.6975,-0.6783,-0.6645,-0.6448,-0.6539,-0.6687,-0.6828,-0.6781,-0.6836,-0.698,-0.7144,-0.7118,-0.7138,-0.745,-0.7446,-0.7484,-0.7902,-0.8169,-0.8399,-0.8627,-0.8813,-0.8813,-0.8889,-0.8965,-0.9084,-0.9193,-0.9344,-0.9571,-0.9722,-0.9911,-0.9986,-1.0024,-1.0062,-1.0024,-1.0024,-1.0062,-1.0099,-1.0137,-1.0212,-1.0363,-1.055,-1.0738,-1.0999,-1.1149,-1.118,-1.1217,-1.126,-1.1223,-1.1217,-1.1149,-1.1111,-0.6676,-0.6903,-0.6903,-0.6903,-0.6903,-0.6903,-0.6903,-0.6903,-0.6903,-0.6903,-0.6903,-0.6903,-0.6733,-0.6404,-0.6079,-0.5842,-0.5736,-0.5666,-0.5624,-0.5624,-0.5627,-0.5627,-0.5627,-0.569,-0.5719,-0.5752,-0.5855,-0.602,-0.6288,-0.6354,-0.6321,-0.6354,-0.6354,-0.6321,-0.642,-0.635,-0.6321,-0.6349,-0.6384,-0.6523,-0.667,-0.6825,-0.6945,-0.7138,-0.7268,-0.7361,-0.7417,-0.7403,-0.7442,-0.7403,-0.7403,-0.7403,-0.7403,-0.7326,-0.7246,-0.7211,-0.7288,-0.7399,-0.7395,-0.7322,-0.7322,-0.728,-0.7064,-0.695,-0.6855,-0.6731,-0.66,-0.6656,-0.6652,-0.6648,-0.6689,-0.6757,-0.6832,-0.6842,-0.6749,-0.6788,-0.6826,-0.6945,-0.7099,-0.7099,-0.7099,-0.7365,-0.7672,-0.794,-0.8169,-0.8284,-0.8322,-0.8399,-0.8518,-0.8632,-0.8818,-0.9046,-0.9122,-0.9193,-0.9231,-0.9231,-0.9268,-0.9231,-0.9231,-0.9268,-0.9382,-0.9458,-0.9539,-0.962,-0.9771,-0.9954,-1.0143,-1.0363,-1.055,-1.0513,-1.0438,-1.0438,-1.0438,-1.0406,-1.0288,-0.637,-0.6633,-0.6714,-0.6753,-0.6753,-0.6753,-0.6749,-0.6753,-0.6714,-0.6753,-0.6753,-0.6707,-0.6547,-0.624,-0.5933,-0.5743,-0.5614,-0.5463,-0.5409,-0.5395,-0.5395,-0.5428,-0.5462,-0.5524,-0.555,-0.555,-0.5653,-0.5756,-0.5793,-0.5826,-0.5855,-0.5892,-0.5991,-0.5954,-0.5925,-0.5962,-0.6006,-0.609,-0.6157,-0.6311,-0.6429,-0.6548,-0.6626,-0.675,-0.679,-0.6903,-0.6903,-0.6942,-0.6942,-0.6942,-0.698,-0.7019,-0.698,-0.6942,-0.6865,-0.683,-0.6868,-0.6791,-0.683,-0.6826,-0.6826,-0.6788,-0.6672,-0.6535,-0.6503,-0.656,-0.6553,-0.6405,-0.6409,-0.6454,-0.6556,-0.6507,-0.6472,-0.6433,-0.6479,-0.6556,-0.6602,-0.6574,-0.6493,-0.6444,-0.6483,-0.6637,-0.6942,-0.7288,-0.7518,-0.7714,-0.7791,-0.7868,-0.7944,-0.8102,-0.8212,-0.8399,-0.8399,-0.847,-0.8508,-0.8508,-0.8508,-0.8508,-0.8508,-0.8551,-0.8742,-0.8818,-0.8861,-0.8941,-0.9056,-0.9127,-0.9311,-0.9614,-0.9916,-0.9836,-0.9717,-0.9647,-0.9652,-0.9614,-0.9506,-0.5941,-0.598,-0.6215,-0.6335,-0.6374,-0.6335,-0.6335,-0.6374,-0.6377,-0.6374,-0.6412,-0.637,-0.6252,-0.6074,-0.5898,-0.5749,-0.5593,-0.5467,-0.5416,-0.5402,-0.5395,-0.5395,-0.5428,-0.5425,-0.5425,-0.5425,-0.5491,-0.5495,-0.5472,-0.5563,-0.5675,-0.5859,-0.5833,-0.5874,-0.5889,-0.5862,-0.5947,-0.6046,-0.6157,-0.6335,-0.6452,-0.6578,-0.6629,-0.6771,-0.685,-0.6903,-0.6903,-0.6826,-0.683,-0.683,-0.6788,-0.6826,-0.6749,-0.6676,-0.6602,-0.6598,-0.6486,-0.6412,-0.6409,-0.6483,-0.656,-0.6483,-0.6293,-0.6018,-0.5944,-0.5754,-0.5715,-0.5789,-0.5867,-0.5789,-0.575,-0.5715,-0.5825,-0.5902,-0.598,-0.5983,-0.5993,-0.598,-0.5899,-0.5799,-0.5938,-0.6228,-0.6359,-0.6695,-0.7053,-0.7277,-0.733,-0.7369,-0.7446,-0.7522,-0.7561,-0.7633,-0.7633,-0.771,-0.7859,-0.7859,-0.7897,-0.794,-0.7978,-0.8016,-0.8136,-0.8217,-0.8212,-0.8365,-0.8441,-0.8441,-0.8479,-0.8818,-0.9041,-0.9074,-0.9036,-0.8927,-0.8813,-0.8737,-0.8627,-0.5712,-0.575,-0.5983,-0.6138,-0.63,-0.63,-0.63,-0.63,-0.63,-0.63,-0.63,-0.6293,-0.6269,-0.6139,-0.601,-0.5861,-0.5715,-0.5569,-0.5498,-0.5416,-0.5395,-0.5395,-0.5395,-0.5395,-0.5395,-0.5395,-0.5395,-0.5395,-0.5432,-0.542,-0.5562,-0.5705,-0.5712,-0.5709,-0.5723,-0.5828,-0.592,-0.5996,-0.6094,-0.624,-0.6366,-0.6402,-0.6468,-0.6514,-0.6525,-0.6525,-0.6528,-0.6525,-0.6528,-0.6567,-0.6525,-0.656,-0.656,-0.6447,-0.6409,-0.6416,-0.6306,-0.6193,-0.607,-0.6141,-0.6096,-0.5983,-0.5789,-0.5673,-0.5518,-0.5482,-0.5443,-0.5401,-0.5285,-0.5246,-0.5246,-0.5243,-0.5282,-0.5362,-0.5416,-0.543,-0.5493,-0.5495,-0.5555,-0.5521,-0.5755,-0.6072,-0.615,-0.6184,-0.6529,-0.6835,-0.6848,-0.6903,-0.6945,-0.6945,-0.6984,-0.7019,-0.6984,-0.7057,-0.7207,-0.7246,-0.7288,-0.7326,-0.7403,-0.7442,-0.7522,-0.7526,-0.7603,-0.7753,-0.7829,-0.7787,-0.7863,-0.8016,-0.8208,-0.836,-0.8318,-0.8165,-0.805,-0.7897,-0.7825,-0.5443,-0.5521,-0.5712,-0.5944,-0.618,-0.6257,-0.63,-0.63,-0.63,-0.63,-0.63,-0.63,-0.63,-0.6255,-0.6095,-0.5983,-0.5833,-0.5677,-0.5573,-0.5484,-0.5429,-0.5402,-0.5392,-0.5326,-0.5292,-0.5302,-0.5286,-0.5268,-0.5251,-0.541,-0.5462,-0.5489,-0.5518,-0.5563,-0.5684,-0.5796,-0.5928,-0.5969,-0.6095,-0.6135,-0.6289,-0.6293,-0.6289,-0.6338,-0.6335,-0.6335,-0.6335,-0.6335,-0.6335,-0.6335,-0.6335,-0.6296,-0.6296,-0.6296,-0.6257,-0.6236,-0.6185,-0.6087,-0.5921,-0.5805,-0.5715,-0.5476,-0.544,-0.5321,-0.5246,-0.5129,-0.4971,-0.4968,-0.489,-0.4823,-0.4805,-0.4878,-0.4922,-0.5034,-0.5052,-0.5106,-0.5151,-0.5216,-0.527,-0.5325,-0.555,-0.5628,-0.5664,-0.5723,-0.6006,-0.6225,-0.6246,-0.6261,-0.6328,-0.6328,-0.637,-0.6405,-0.6405,-0.6479,-0.6595,-0.6595,-0.6633,-0.6745,-0.6784,-0.6826,-0.6865,-0.6868,-0.6907,-0.698,-0.7053,-0.7092,-0.713,-0.7169,-0.7442,-0.7757,-0.7638,-0.7514,-0.7365,-0.7249,-0.7096,-0.5124,-0.5323,-0.5521,-0.5712,-0.5902,-0.618,-0.6257,-0.6222,-0.6257,-0.6257,-0.6296,-0.63,-0.6257,-0.623,-0.6077,-0.5928,-0.5842,-0.5678,-0.554,-0.55,-0.5389,-0.5376,-0.5333,-0.5249,-0.518,-0.5111,-0.512,-0.5133,-0.507,-0.527,-0.5287,-0.5301,-0.5429,-0.5534,-0.5755,-0.5912,-0.599,-0.6051,-0.6183,-0.623,-0.6293,-0.63,-0.63,-0.63,-0.63,-0.63,-0.63,-0.63,-0.63,-0.63,-0.63,-0.631,-0.6334,-0.6291,-0.6178,-0.6035,-0.6059,-0.5984,-0.582,-0.5671,-0.5373,-0.5101,-0.5052,-0.4878,-0.4567,-0.4443,-0.4427,-0.4423,-0.4356,-0.4384,-0.4459,-0.4465,-0.451,-0.4577,-0.4588,-0.4678,-0.4719,-0.4797,-0.4853,-0.5001,-0.5037,-0.5077,-0.5121,-0.5235,-0.5476,-0.5618,-0.5641,-0.5671,-0.5764,-0.5819,-0.5887,-0.5843,-0.5882,-0.5883,-0.5957,-0.5944,-0.5977,-0.6128,-0.6167,-0.6128,-0.6128,-0.6128,-0.6167,-0.624,-0.624,-0.624,-0.624,-0.624,-0.6514,-0.6749,-0.6942,-0.6861,-0.671,-0.656,-0.6444,-0.4618,-0.4735,-0.5046,-0.524,-0.5356,-0.5676,-0.5831,-0.5867,-0.5983,-0.6138,-0.6257,-0.63,-0.618,-0.6076,-0.597,-0.5819,-0.5604,-0.5575,-0.5458,-0.5332,-0.5304,-0.5278,-0.5224,-0.5199,-0.5145,-0.5135,-0.5151,-0.5092,-0.5167,-0.5188,-0.5279,-0.5362,-0.5324,-0.5574,-0.567,-0.5749,-0.58,-0.5915,-0.5999,-0.6099,-0.6257,-0.6296,-0.63,-0.63,-0.63,-0.63,-0.6303,-0.6303,-0.6317,-0.632,-0.6323,-0.6368,-0.6347,-0.6284,-0.6168,-0.6105,-0.6128,-0.5838,-0.5427,-0.5102,-0.4803,-0.4673,-0.4613,-0.4448,-0.4342,-0.402,-0.3899,-0.3808,-0.3751,-0.3738,-0.3688,-0.3694,-0.3756,-0.3883,-0.3972,-0.4057,-0.4112,-0.4255,-0.4379,-0.4617,-0.471,-0.4824,-0.4877,-0.4734,-0.4892,-0.5073,-0.5059,-0.5284,-0.5441,-0.5447,-0.5458,-0.5373,-0.5328,-0.5314,-0.5322,-0.537,-0.5397,-0.5467,-0.5446,-0.5389,-0.5389,-0.5467,-0.5467,-0.5506,-0.5428,-0.5386,-0.5467,-0.5506,-0.5506,-0.5625,-0.5896,-0.6093,-0.6018,-0.5906,-0.5828,-0.4231,-0.4348,-0.4657,-0.481,-0.489,-0.5362,-0.5601,-0.5637,-0.575,-0.5906,-0.6028,-0.6064,-0.5986,-0.5825,-0.5777,-0.5722,-0.5459,-0.5404,-0.5374,-0.5255,-0.5204,-0.5209,-0.5173,-0.5054,-0.4941,-0.4987,-0.4882,-0.4826,-0.4795,-0.4946,-0.4998,-0.4988,-0.5162,-0.5101,-0.5229,-0.5389,-0.5664,-0.5777,-0.5867,-0.598,-0.6138,-0.6219,-0.63,-0.63,-0.63,-0.63,-0.6313,-0.6337,-0.6375,-0.6385,-0.639,-0.6407,-0.6367,-0.6285,-0.616,-0.606,-0.5835,-0.5479,-0.4926,-0.4682,-0.4381,-0.4124,-0.4077,-0.4032,-0.3903,-0.3595,-0.3474,-0.3352,-0.3157,-0.3129,-0.3098,-0.3098,-0.3194,-0.3325,-0.3386,-0.3476,-0.3617,-0.3754,-0.3854,-0.4098,-0.424,-0.4412,-0.452,-0.4393,-0.4289,-0.4444,-0.4547,-0.4749,-0.4982,-0.5013,-0.4998,-0.4927,-0.4918,-0.493,-0.4924,-0.4885,-0.4867,-0.4838,-0.4773,-0.475,-0.4807,-0.4888,-0.4807,-0.4768,-0.4807,-0.4846,-0.481,-0.481,-0.4774,-0.4774,-0.489,-0.5087,-0.521,-0.5249,-0.5207,-0.3882,-0.4079,-0.4309,-0.4345,-0.4501,-0.5129,-0.5482,-0.5562,-0.5595,-0.5595,-0.5601,-0.5676,-0.5598,-0.5598,-0.5559,-0.5512,-0.541,-0.5313,-0.5275,-0.5228,-0.5055,-0.5082,-0.4955,-0.4776,-0.4693,-0.4551,-0.4437,-0.4392,-0.4251,-0.4387,-0.4436,-0.4409,-0.4491,-0.4504,-0.4701,-0.4973,-0.5362,-0.5476,-0.567,-0.5786,-0.5906,-0.6138,-0.618,-0.6225,-0.6285,-0.634,-0.6378,-0.6443,-0.6501,-0.6519,-0.6552,-0.6496,-0.6373,-0.6296,-0.605,-0.5759,-0.5422,-0.4894,-0.4511,-0.4299,-0.3863,-0.3527,-0.3409,-0.3396,-0.3261,-0.3071,-0.2951,-0.2905,-0.278,-0.2715,-0.2687,-0.2701,-0.2757,-0.2819,-0.2885,-0.2978,-0.3114,-0.3213,-0.3303,-0.3441,-0.3575,-0.3676,-0.3719,-0.3655,-0.373,-0.3724,-0.3831,-0.3974,-0.4228,-0.4496,-0.4478,-0.4484,-0.4492,-0.4529,-0.4525,-0.4335,-0.4317,-0.4223,-0.4225,-0.4233,-0.4291,-0.4277,-0.4187,-0.4148,-0.4265,-0.4265,-0.4151,-0.4114,-0.4077,-0.4077,-0.4075,-0.4309,-0.4545,-0.4662,-0.4621,-0.3215,-0.3415,-0.3645,-0.3761,-0.3839,-0.4309,-0.4779,-0.5162,-0.5165,-0.5323,-0.5601,-0.5601,-0.5401,-0.5204,-0.5165,-0.501,-0.4841,-0.4707,-0.4694,-0.4658,-0.466,-0.4629,-0.4589,-0.45,-0.4439,-0.437,-0.4203,-0.4065,-0.4071,-0.4036,-0.3958,-0.3995,-0.3958,-0.4038,-0.4194,-0.4389,-0.4776,-0.5124,-0.5356,-0.5524,-0.5724,-0.5922,-0.6006,-0.6107,-0.6301,-0.6364,-0.6407,-0.6519,-0.6583,-0.6616,-0.6475,-0.6405,-0.6518,-0.6224,-0.5858,-0.5444,-0.4958,-0.445,-0.4249,-0.3671,-0.3224,-0.2913,-0.2783,-0.2696,-0.2644,-0.2545,-0.2411,-0.2359,-0.2269,-0.2154,-0.2161,-0.2169,-0.222,-0.223,-0.2286,-0.2331,-0.2422,-0.2511,-0.2645,-0.2915,-0.3005,-0.3093,-0.3093,-0.3135,-0.317,-0.3132,-0.317,-0.3279,-0.3478,-0.3756,-0.3951,-0.3964,-0.3953,-0.3947,-0.381,-0.3628,-0.3624,-0.3609,-0.3625,-0.3618,-0.3576,-0.3557,-0.3512,-0.3532,-0.3614,-0.3573,-0.3452,-0.3415,-0.3413,-0.3335,-0.3333,-0.3606,-0.3802,-0.3919,-0.3958,-0.2608,-0.2783,-0.3091,-0.3263,-0.3368,-0.361,-0.3958,-0.4382,-0.4654,-0.4929,-0.5129,-0.5087,-0.5007,-0.481,-0.4732,-0.4577,-0.4307,-0.4304,-0.43,-0.4181,-0.4153,-0.4178,-0.4148,-0.407,-0.3982,-0.3917,-0.3841,-0.3638,-0.3647,-0.3608,-0.353,-0.353,-0.353,-0.3608,-0.3686,-0.3802,-0.4075,-0.4501,-0.4896,-0.5193,-0.5454,-0.571,-0.585,-0.5986,-0.6239,-0.6306,-0.6335,-0.6463,-0.6486,-0.6515,-0.6317,-0.6355,-0.6356,-0.597,-0.5408,-0.4996,-0.4645,-0.4069,-0.3673,-0.3269,-0.2822,-0.2465,-0.2108,-0.1971,-0.1924,-0.1872,-0.1874,-0.1873,-0.1699,-0.1569,-0.1569,-0.1615,-0.1614,-0.1615,-0.1615,-0.166,-0.1749,-0.184,-0.2064,-0.2333,-0.2511,-0.2601,-0.2645,-0.2645,-0.2645,-0.2645,-0.2645,-0.2683,-0.2896,-0.3154,-0.3317,-0.3345,-0.3338,-0.333,-0.3154,-0.3074,-0.311,-0.3136,-0.3088,-0.3055,-0.2962,-0.2945,-0.3,-0.2961,-0.2921,-0.2923,-0.2926,-0.279,-0.2744,-0.2671,-0.2634,-0.2708,-0.2902,-0.3096,-0.3136,-0.2107,-0.2225,-0.2569,-0.2798,-0.3008,-0.3017,-0.3137,-0.3368,-0.3956,-0.4265,-0.4345,-0.4384,-0.4382,-0.4304,-0.4265,-0.4151,-0.3958,-0.3882,-0.3843,-0.3724,-0.3684,-0.3684,-0.3604,-0.3487,-0.337,-0.3253,-0.3137,-0.3022,-0.2984,-0.2945,-0.2904,-0.3023,-0.2984,-0.2982,-0.3059,-0.3236,-0.3482,-0.3803,-0.4412,-0.4917,-0.5159,-0.5479,-0.5819,-0.5909,-0.5993,-0.6053,-0.6083,-0.616,-0.6214,-0.6294,-0.625,-0.6231,-0.5883,-0.5531,-0.4917,-0.4474,-0.4164,-0.3717,-0.3226,-0.2822,-0.2376,-0.1973,-0.1525,-0.1391,-0.1346,-0.1346,-0.1346,-0.1346,-0.1211,-0.1122,-0.1122,-0.1122,-0.1122,-0.1122,-0.1122,-0.1166,-0.1256,-0.1346,-0.148,-0.1705,-0.1794,-0.1883,-0.1883,-0.1839,-0.1838,-0.1973,-0.2018,-0.1973,-0.2108,-0.2376,-0.264,-0.2723,-0.2804,-0.2796,-0.279,-0.2718,-0.2661,-0.2639,-0.2601,-0.2582,-0.257,-0.2557,-0.2544,-0.2547,-0.2508,-0.2483,-0.2474,-0.2346,-0.2221,-0.2136,-0.2056,-0.1889,-0.2005,-0.2203,-0.2393,-0.161,-0.188,-0.1991,-0.2165,-0.2409,-0.2414,-0.2549,-0.2705,-0.2862,-0.3331,-0.3841,-0.3917,-0.3839,-0.3722,-0.3682,-0.3567,-0.3374,-0.3335,-0.3297,-0.3178,-0.31,-0.3059,-0.302,-0.2862,-0.2744,-0.2666,-0.251,-0.2395,-0.2318,-0.2278,-0.2239,-0.2201,-0.2278,-0.2356,-0.2515,-0.2698,-0.293,-0.3212,-0.3804,-0.4374,-0.4654,-0.5082,-0.5477,-0.5616,-0.5771,-0.6011,-0.6098,-0.6216,-0.632,-0.6357,-0.601,-0.5672,-0.5275,-0.4835,-0.4523,-0.4208,-0.3671,-0.3226,-0.2823,-0.2376,-0.1929,-0.1615,-0.1256,-0.1076,-0.0942,-0.0897,-0.0852,-0.0807,-0.0762,-0.0718,-0.0673,-0.0673,-0.0674,-0.0674,-0.0674,-0.0719,-0.0764,-0.09,-0.0945,-0.1035,-0.1125,-0.1123,-0.1169,-0.1122,-0.1076,-0.1076,-0.1031,-0.1031,-0.1166,-0.139,-0.1838,-0.2014,-0.2285,-0.2326,-0.2283,-0.2233,-0.2127,-0.2116,-0.2091,-0.2166,-0.2199,-0.209,-0.1984,-0.2099,-0.2118,-0.2011,-0.1912,-0.1867,-0.178,-0.1651,-0.1522,-0.136,-0.1193,-0.135,-0.1618,-0.1029,-0.1294,-0.1474,-0.1724,-0.2008,-0.2036,-0.2097,-0.2235,-0.2238,-0.2512,-0.2942,-0.3137,-0.3175,-0.3057,-0.3057,-0.2979,-0.2746,-0.2707,-0.263,-0.2514,-0.2514,-0.2434,-0.2356,-0.2277,-0.2277,-0.2199,-0.2119,-0.2042,-0.1848,-0.1926,-0.1926,-0.1848,-0.1886,-0.1927,-0.2088,-0.2246,-0.2441,-0.2808,-0.3276,-0.3674,-0.4093,-0.4653,-0.5104,-0.5314,-0.5448,-0.5709,-0.5684,-0.5736,-0.575,-0.5722,-0.5411,-0.5097,-0.4743,-0.4387,-0.3985,-0.3628,-0.3181,-0.2734,-0.2376,-0.1973,-0.1525,-0.1256,-0.0942,-0.0673,-0.0583,-0.0538,-0.0494,-0.0449,-0.0404,-0.0314,-0.0314,-0.0314,-0.0317,-0.0318,-0.032,-0.0366,-0.0507,-0.0604,-0.0743,-0.0836,-0.0878,-0.0867,-0.091,-0.09,-0.0854,-0.0852,-0.0718,-0.0674,-0.0674,-0.0628,-0.1032,-0.1301,-0.1571,-0.1571,-0.1434,-0.1433,-0.1431,-0.1469,-0.1639,-0.1503,-0.1449,-0.1426,-0.1409,-0.1492,-0.1485,-0.1341,-0.1249,-0.1288,-0.1202,-0.1073,-0.0943,-0.0815,-0.0688,-0.0564,-0.0848,-0.0513,-0.0629,-0.0969,-0.1322,-0.1614,-0.1626,-0.1648,-0.1717,-0.1726,-0.1729,-0.1767,-0.2119,-0.2276,-0.2393,-0.2433,-0.2315,-0.2237,-0.2276,-0.2121,-0.2005,-0.1887,-0.1886,-0.1847,-0.1769,-0.165,-0.165,-0.1611,-0.1611,-0.1573,-0.1573,-0.1573,-0.1691,-0.1731,-0.1733,-0.1786,-0.1895,-0.2051,-0.2377,-0.2773,-0.3042,-0.3617,-0.4229,-0.4662,-0.4886,-0.4966,-0.501,-0.501,-0.501,-0.501,-0.4877,-0.479,-0.4431,-0.4164,-0.3851,-0.3449,-0.3047,-0.2689,-0.2286,-0.1883,-0.148,-0.1211,-0.0942,-0.0583,-0.0359,-0.0314,-0.0225,-0.018,-0.009,0.0,0.0045,0.0045,0.0091,0.0092,0.0092,0.0046,0.0,-0.0142,-0.0285,-0.0428,-0.0524,-0.0566,-0.0558,-0.06,-0.0593,0.0,0.0,0.0,0.0,-0.054,-0.0449,-0.0584,-0.0673,-0.0808,-0.0718,-0.0762,-0.0852,-0.0987,-0.0986,-0.1115,-0.085,-0.0759,-0.0925,-0.1003,-0.0872,-0.0822,-0.0859,-0.0811,-0.0808,-0.0679,-0.055,-0.0417,-0.029,-0.0207,-0.0124,-0.0167,-0.0405,-0.0545,-0.0663,-0.0779,-0.0824,-0.0855,-0.0835,-0.0841,-0.0897,-0.0864,-0.0943,-0.0982,-0.1295,-0.2004,-0.2004,-0.1925,-0.1806,-0.1846,-0.1925,-0.1887,-0.1533,-0.1415,-0.1336,-0.1218,-0.0904,-0.0943,-0.0983,-0.0904,-0.11,-0.1022,-0.0904,-0.0943,-0.0904,-0.1031,-0.1215,-0.1359,-0.1636,-0.2007,-0.2351,-0.2665,-0.3111,-0.3735,-0.4279,-0.4563,-0.4788,-0.4921,-0.501,-0.501,-0.4924,-0.4701,-0.43,-0.3851,-0.3539,-0.327,-0.2913,-0.2511,-0.2153,-0.1793,-0.1391,-0.1076,-0.0852,-0.0676,-0.0361,-0.0226,-0.0045,0.0183,0.023,0.0276,0.0323,0.0369,0.037,0.0514,0.0518,0.052,0.0523,0.0429,0.0287,0.0192,0.0096,-0.0048,-0.0143,-0.0142,-0.0189,0.0,0.0,0.0,0.0,0.0,0.0,0.0,0.0,-0.0181,-0.0226,-0.0404,-0.0628,-0.0628,-0.0673,-0.0673,-0.0673,-0.0583,-0.0583,-0.0672,-0.0713,-0.0576,-0.0577,-0.0664,-0.0572,-0.0348,-0.026,-0.0129,0.0085,0.0252,0.0338,0.0382,0.0342]},{"header":{"parameterUnit":"m.s-1","parameterCategory":1,"la1":31.0,"la2":29.5877,"lo1":-88.7671,"lo2":-86.6584,"dy":0.0162,"dx":0.0185,"nx":115,"ny":88,"refTime":"2023-10-15T00:00:00:Z","depth":0,"parameterNumber":3,"parameterNumberName":"V-component_of_WINDS"},"data":[0.0,0.0,0.0,0.0,0.0,0.0,0.0,0.0,0.0,0.0,0.0,0.0,0.0,0.0,0.0,0.0,0.0,0.0,0.0,0.0,0.0,0.0,0.0,0.0,0.0,0.0,0.0,0.0,0.0,0.0,0.0,0.0,0.0,0.0,0.0,0.0,0.0,0.0,0.0,0.0,0.0,0.0,0.0,0.0,0.0,0.0,0.0,0.0,0.0,0.0,0.0,0.0,0.0,0.0,0.0,0.0,0.0,0.0,0.0,0.0,0.0,0.0,0.0,0.0,0.0,0.0,0.0,0.0,0.0,0.0,0.0,0.0,0.0,0.0,0.0,0.0,0.0,0.0,0.0,0.0,0.0,0.0,0.0,0.0,0.0,0.0,0.0,0.0,0.0,0.0,0.0,0.0,0.0,0.0,0.0,0.0,0.0,0.0,0.0,0.0,0.0,0.0,0.0,0.0,0.0,0.0,0.0,0.0,0.0,0.0,0.0,0.0,0.0,0.0,0.0,0.0,0.0,0.0,0.0,0.0,0.0,0.0,0.0,0.0,0.0,0.0,0.0,0.0,0.0,0.0,0.0,0.0,0.0,0.0,0.0,0.0,0.0,0.0,0.0,0.0,0.0,0.0,0.0,0.0,0.0,0.0,0.0,0.0,0.0,0.0,0.0,0.0,0.0,0.0,0.0,0.0,0.0,0.0,0.0,0.0,0.0,0.0,0.0,0.0,0.0,0.0,0.0,0.0,0.0,0.0,0.0,0.0,0.0,0.0,0.0,0.0,0.0,0.0,0.0,0.0,0.0,0.0,0.0,0.0,0.0,0.0,0.0,0.0,0.0,0.0,0.0,0.0,0.0,0.0,0.0,0.0,0.0,0.0,0.0,0.0,0.0,0.0,0.0,0.0,0.0,0.0,0.0,0.0,0.0,0.0,0.0,0.0,0.0,0.0,0.0,0.0,0.0,0.0,0.0,0.0,0.0,0.0,0.0,0.0,0.0,0.0,0.0,0.0,0.0,0.0,0.0,0.0,0.0,0.0,0.0,0.0,0.0,0.0,0.0,0.0,0.0,0.0,0.0,0.0,0.0,0.0,0.0,0.0,0.0,0.0,0.0,0.0,0.0,0.0,0.0,0.0,0.0,0.0,0.0,0.0,0.0,0.0,0.0,0.0,0.0,0.0,0.0,0.0,0.0,0.0,0.0,0.0,0.0,0.0,0.0,0.0,0.0,0.0,0.0,0.0,0.0,0.0,0.0,0.0,0.0,0.0,0.0,0.0,0.0,0.0,0.0,0.0,0.0,0.0,0.0,0.0,0.0,0.0,0.0,0.0,0.0,0.0,0.0,0.0,0.0,0.0,0.0,0.0,0.0,0.0,0.0,0.0,0.0,0.0,0.0,0.0,0.0,0.0,0.0,0.0,0.0,0.0,0.0,0.0,0.0,0.0,0.0,0.0,0.0,0.0,0.0,0.0,0.0,0.0,0.0,0.0,0.0,0.0,0.0,0.0,0.0,0.0,0.0,0.0,0.0,0.0,0.0,0.0,0.0,0.0,0.0,0.0,0.0,0.0,0.0,0.0,0.0,0.0,0.0,0.0,0.0,0.0,0.0,0.0,0.0,0.0,0.0,0.0,0.0,0.0,0.0,0.0,0.0,0.0,0.0,0.0,0.0,0.0,0.0,0.0,0.0,0.0,0.0,0.0,0.0,0.0,0.0,0.0,0.0,0.0,0.0,0.0,0.0,0.0,0.0,0.0,0.0,0.0,0.0,0.0,0.0,0.0,0.0,0.0,0.0,0.0,0.0,0.0,0.0,0.0,0.0,0.0,0.0,0.0,0.0,0.0,0.0,0.0,0.0,0.0,0.0,0.0,0.0,0.0,0.0,0.0,0.0,0.0,0.0,0.0,0.0,0.0,0.0,0.0,0.0,0.0,0.0,0.0,0.0,0.0,0.0,0.0,0.0,0.0,0.0,0.0,0.0,0.0,0.0,0.0,0.0,0.0,0.0,0.0,0.0,0.0,0.0,0.0,0.0,0.0,0.0,0.0,0.0,0.0,0.0,0.0,0.0,0.0,0.0,0.0,0.0,0.0,0.0,0.0,0.0,0.0,0.0,0.0,0.0,0.0,0.0,0.0,0.0,0.0,0.0,0.0,0.0,0.0,0.0,0.0,0.0,0.0,0.0,0.0,0.0,0.0,0.0,0.0,0.0,0.0,0.0,0.0,0.0,0.0,0.0,0.0,0.0,0.0,0.0,0.0,0.0,0.0,0.0,0.0,0.0,0.0,0.0,0.0,0.0,0.0,0.0,0.0,0.0,0.0,0.0,0.0,0.0,0.0,0.0,0.0,0.0,0.0,0.0,0.0,0.0,0.0,0.0,0.0,0.0,0.0,0.0,0.0,0.0,0.0,0.0,0.0,0.0,0.0,0.0,0.0,0.0,0.0,0.0,0.0,0.0,0.0,0.0,0.0,0.0,0.0,0.0,0.0,0.0,0.0,0.0,0.0,0.0,0.0,0.0,0.0,0.0,0.0,0.0,0.0,0.0,0.0,0.0,0.0,0.0,0.0,0.0,0.0,0.0,0.0,0.0,0.0,0.0,0.0,0.0,0.0,0.0,0.0,0.0,0.0,0.0,0.0,0.0,0.0,0.0,0.0,0.0,0.0,0.0,0.0,0.0,0.0,0.0,0.0,0.0,0.0,0.0,0.0,0.0,0.0,0.0,0.0,0.0,0.0,0.0,0.0,0.0,0.0,0.0,0.0,0.0,0.0,0.0,0.0,0.0,0.0,0.0,0.0,0.0,0.0,0.0,0.0,0.0,0.0,0.0,0.0,0.0,0.0,0.0,0.0,0.0,0.0,0.0,0.0,0.0,0.0,0.0,0.0,0.0,0.0,0.0,0.0,0.0,0.0,0.0,0.0,0.0,0.0,0.0,0.0,0.0,0.0,0.0,0.0,0.0,0.0,0.0,0.0,0.0,0.0,0.0,0.0,0.0,0.0,0.0,0.0,0.0,0.0,0.0,0.0,0.0,0.0,0.0,0.0,0.0,0.0,0.0,0.0,0.0,0.0,0.0,0.0,0.0,0.0,0.0,0.0,0.0,0.0,0.0,0.0,0.0,0.0,0.0,0.0,0.0,0.0,0.0,0.0,0.0,0.0,0.0,0.0,0.0,0.0,0.0,0.0,0.0,0.0,0.0,0.0,0.0,0.0,0.0,0.0,0.0,0.0,0.0,0.0,0.0,0.0,0.0,0.0,0.0,0.0,0.0,0.0,0.0,0.0,0.0,0.0,0.0,0.0,0.0,0.0,0.0,0.0,0.0,0.0,0.0,0.0,0.0,0.0,0.0,0.0,0.0,0.0,0.0,0.0,0.0,0.0,0.0,0.0,0.0,0.0,0.0,0.0,0.0,0.0,0.0,0.0,0.0,0.0,0.0,0.0,0.0,0.0,0.0,0.0,0.0,0.0,0.0,0.0,0.0,0.0,0.0,0.0,0.0,0.0,0.0,0.0,0.0,0.0,0.0,0.0,0.0,0.0,0.0,0.0,0.0,0.0,0.0,0.0,0.0,0.0,0.0,0.0,0.0,0.0,0.0,0.0,0.0,0.0,0.0,0.0,0.0,0.0,0.0,0.0,0.0,0.0,0.0,0.0,0.0,0.0,0.0,0.0,0.0,0.0,0.0,0.0,0.0,0.0,0.0,0.0,0.0,0.0,0.0,0.0,0.0,0.0,0.0,0.0,0.0,0.0,0.0,0.0,0.0,0.0,0.0,0.0,0.0,0.0,0.0,0.0,0.0,0.0,0.0,0.0,0.0,0.0,0.0,0.0,0.0,0.0,0.0,0.0,0.0,0.0,0.0,0.0,0.0,0.0,0.0,0.0,0.0,0.0,0.0,0.0,0.0,0.0,0.0,0.0,0.0,0.0,0.0,0.0,0.0,0.0,0.0,0.0,0.0,0.0,0.0,0.0,0.0,0.0,0.0,0.0,0.0,0.0,0.0,0.0,0.0,0.0,0.0,0.0,0.0,0.0,0.0,0.0,0.0,0.0,0.0,0.0,0.0,0.0,0.0,0.0,0.0,0.0,0.0,0.0,0.0,0.0,0.0,0.0,0.0,0.0,0.0,0.0,0.0,0.0,0.0,0.0,0.0,0.0,0.0,0.0,0.0,0.0,0.0,0.0,0.0,0.0,0.0,0.0,0.0,0.0,0.0,0.0,0.0,0.0,0.0,0.0,0.0,0.0,0.0,0.0,0.0,0.0,0.0,0.0,0.0208,0.0,0.0,0.0,0.0,0.0,0.0,0.0,0.0,0.0,0.0,0.0,0.0,0.0,0.0,0.0,0.0,0.0,0.0,0.0,0.0,0.0,0.0,0.0,0.0,0.0,0.0,0.0,0.0,0.0,0.0,0.0,0.0,0.0,0.0,0.0,0.0,0.0,0.0,0.0,0.0,0.0,0.0,0.0,0.0,0.0,0.0,0.0,0.0,0.0,0.0,0.0,0.0,0.0,0.0,0.0,0.0,0.0,0.0,0.0,0.0,0.0,0.0,0.0,0.0,0.0,0.0,0.0,0.0,0.0,0.0,0.0,0.0,0.0,0.0,0.0,0.0,0.0,0.0,0.0,0.0,0.0,0.0,0.0,0.0,0.0,0.0,0.0,0.0,0.0,0.0,0.0,0.0,0.0,0.0,0.0,0.0,0.0,0.0,0.0,0.0,0.0,0.0,0.0,0.0,0.0,0.0,0.0,0.0,0.0,0.0,0.0472,0.0292,0.0243,0.0175,0.0087,0.0,0.0,0.0,0.0,0.0,0.0,0.0,0.0,0.0,0.0,0.0,0.0,0.0,0.0,0.0,0.0,0.0,0.0,0.0,0.0,0.0,0.0,0.0,0.0,0.0,0.0,0.0,0.0,0.0,0.0,0.0,0.0,0.0,0.0,0.0,0.0,0.0,0.0,0.0,0.0,0.0,0.0,0.0,0.0,0.0,0.0,0.0,0.0,0.0,0.0,0.0,0.0,0.0,0.0,0.0,0.0,0.0,0.0,0.0,0.0,0.0,0.0,0.0,0.0,0.0,0.0,0.0,0.0,0.0,0.0,0.0,0.0,0.0,0.0,0.0,0.0,0.0,0.0,0.0,0.0,0.0,0.0,0.0,0.0,0.0,0.0,0.0,0.0,0.0,0.0,0.0,0.0,0.0,0.0,0.0,0.0,0.0,0.0,0.0,0.0,0.0,0.0,0.0,0.0,0.0,0.0,0.0,0.0,0.0,0.0,0.0,0.0,0.0157,0.0112,0.0,0.0,0.0,0.0,0.0,0.0,0.0,0.0,0.0,0.0,0.0,0.0,0.0,0.0,0.0,0.0,0.0,0.0,0.0,0.0,0.0,0.0,0.0,0.0,0.0,0.0,0.0,0.0,0.0,0.0,0.0,0.0,0.0,0.0,0.0,0.0,0.0,0.0,0.0,0.0,0.0,0.0,0.0,0.0,0.0,0.0,0.0,0.0,0.0,0.0,0.0,0.0,0.0,0.0,0.0,0.0,0.0,0.0,0.0,0.0,0.0,0.0,0.0,0.0,0.0,0.0,0.0,0.0,0.0,0.0,0.0,0.0,0.0,0.0,0.0,0.0,0.0,0.0,0.0,0.0,0.0,0.0,0.0,0.0,0.0,0.0,0.0,0.0,0.0,0.0,0.0,0.0,0.0,0.0,0.0,0.0,0.0,0.0,0.0,0.0,0.0,0.0,0.0,0.0,0.0,0.0,0.0,0.0,0.0,0.0,0.0,0.0157,0.0022,0.0,0.0,0.0,0.0,0.0,0.0,0.0,0.0,0.0,0.0,0.0,0.0,0.0,0.0,0.0,0.0,0.0,0.0,0.0,0.0,0.0,0.0,0.0,0.0,0.0,0.0,0.0,0.0,0.0,0.0,0.0,0.0,0.0,0.0,0.0,0.0,0.0,0.0,0.0,0.0,0.0,0.0,0.0,0.0,0.0,0.0,0.0,0.0,0.0,0.0,0.0,0.0,0.0,0.0,0.0,0.0,0.0,0.0,0.0,0.0,0.0,0.0,0.0,0.0,0.0,0.0,0.0,0.0,0.0,0.0,0.0,0.0,0.0,0.0,0.0,0.0,0.0,0.0,0.0,0.0,0.0,0.0,0.0,0.0,0.0,0.0,0.0,0.0,0.0,0.0,0.0,0.0,0.0,0.0,0.0,0.0,0.0,0.0,0.0,0.0,0.0,0.0,0.0,0.0,0.0,0.0,0.0,0.0,0.0,0.0,0.0,0.0,0.0,0.0045,0.0,0.0,0.0,0.0,0.0,0.0,0.0,0.0,0.0,0.0,0.0,0.0,0.0,0.0,0.0,0.0,0.0,0.0,0.0,0.0,0.0,0.0,0.0,0.0,0.0,0.0,0.0,0.0,0.0,0.0,0.0,0.0,0.0,0.0,0.0,0.0,0.0,0.0,0.0,0.0,0.0,0.0,0.0,0.0,0.0,0.0,0.0,0.0,0.0,0.0,0.0,0.0,0.0,0.0,0.0,0.0,0.0,0.0,0.0,0.0,0.0,0.0,0.0,0.0,0.0,0.0,0.0,0.0,0.0,0.0,0.0,0.0,0.0,0.0,0.0,0.0,0.0,0.0,0.0,0.0,0.0,0.0,0.0,0.0,0.0,0.0,0.0,0.0,0.0,0.0,0.0,0.0,0.0,0.0,0.0,0.0,0.0,0.0,0.0,0.0,0.0,0.0,0.0,0.0,0.0,0.0,0.0,0.0,0.0,0.0,0.0,0.0,0.0,0.0,0.0,0.0,0.0,0.0,0.0,0.0,0.0,0.0,0.0,0.0,0.0,0.0,0.0,0.0,0.0,0.0,0.0,0.0,0.0,0.0,0.0,0.0,0.0,0.0,0.0,0.0,0.0,0.0,0.0,0.0,0.0,0.0,0.0,0.0,0.0,0.0,0.0,0.0,0.0,0.0,0.0,0.0,0.0,0.0,0.0,0.0,0.0,0.0,0.0,0.0,0.0,0.0,0.0,0.0,0.0,0.0,0.0,0.0,0.0,0.0,0.0,0.0,0.0,0.0,0.0,0.0,0.0,0.0,0.0,0.0,0.0,0.0,0.0,0.0,0.0,0.0,0.0,0.0,0.0,0.0,0.0,0.0,0.0,0.0,0.0,0.0,0.0,0.0,0.0,0.0,0.0,0.0,0.0,0.0,0.0,0.0,0.0,0.0,0.0,0.0,0.0,0.0,0.0,0.0,0.0,0.0,0.0,0.0,0.0,0.0,0.0,0.0,0.0,0.0,0.0,0.0,0.0,0.0,0.0,0.0,0.0,0.0,0.0,0.0,0.0,0.0,0.0,0.0,0.0,0.0,0.0,0.0,0.0,0.0,0.0,0.0,0.0,0.0,0.0,0.0,0.0,0.0,0.0,0.0,0.0,0.0,0.0,0.0,0.0,0.0,0.0,0.0,0.0,0.0,0.0,0.0,0.0,0.0,0.0,0.0,0.0,0.0,0.0,0.0,0.0,0.0,0.0,0.0,0.0,0.0,0.0,0.0,0.0,0.0,0.0,0.0,0.0,0.0,0.0,0.0,0.0,0.0,0.0,0.0,0.0,0.0,0.0,0.0,0.0,0.0,0.0,0.0,0.0,0.0,0.0,0.0,0.0,0.0,0.0,0.0,0.0,0.0,0.0,0.0,0.0,0.0,0.0,0.0,0.0,0.0,0.0,0.0,0.0,0.0,0.0,0.0,0.0,0.0,0.0,0.0,0.0,0.0,0.0,0.0,0.0,0.0,0.0,0.0,0.0,0.0,0.0,0.0,0.0,0.0,0.0,0.0,0.0,0.0,0.0,0.0,0.0,0.0,0.0,0.0,0.0,0.0,0.0,0.0,0.0,0.0,0.0,0.0,0.0,0.0,0.0,0.0,0.0,0.0,0.0,0.0,0.0,0.0,0.0,0.0,0.0,0.0,0.0,0.0,0.0,0.0,0.0,0.0,0.0,0.0,0.0,0.0,0.0,0.0,0.0,0.0,0.0,0.0,0.0,0.0,0.0,0.0,0.0,0.0,0.0,0.0,0.0,0.0,0.0,0.0,0.0,0.0,0.0,0.0,0.0,0.0,0.0,0.0,0.0,0.0,0.0,0.0,0.0,0.0,0.0,0.0,0.0,0.0,0.0,0.0,0.0,0.0,0.0,0.0,0.0,0.0,0.0,0.0,0.0,0.0,0.0,0.0,0.0,0.0,0.0,0.0,0.0,0.0,0.0,0.0,0.0,0.0,0.0,0.0,0.0,0.0,0.0,0.0,0.0,0.0,0.0,0.0,0.0,0.0,0.0,0.0,0.0,0.0,0.0,0.0,0.0,0.0,0.0,0.0,0.0,0.0,0.0,0.0,0.0,0.0,0.0,0.0,0.0,0.0,0.0,0.0,0.0,0.0,0.0,0.0,0.0,0.0,0.0,0.0,0.0,0.0,0.0,0.0,0.0,0.0,0.0,0.0,0.0,0.0,0.0,0.0,0.0,0.0,0.0,0.0,0.0,0.0,0.0,0.0,0.0,0.0,0.0,0.0,0.0,0.0,0.0,0.0,0.0,0.0,0.0,0.0,0.0,0.0,0.0,0.0,0.0,0.0,0.0,0.0,0.0,0.0,0.0,0.0,0.0,0.0,0.0,0.0,0.0,0.0,0.0,0.0,0.0,0.0,0.0,0.0,0.0,0.0,0.0,0.0,0.0,0.0,0.0,0.0,0.0,0.0,0.0,0.0,0.0,0.0,0.0,0.0,0.0,0.0,0.0,0.0,0.0,0.0,0.0,0.0,0.0,0.0,0.0,0.0,0.0,0.0,0.0,0.0,0.0,0.0,0.0,0.0,0.0,0.0,0.0,0.0,0.0,0.0,0.0,0.0,0.0,0.0,0.0,0.0,0.0,0.0,0.0,0.0,0.0,0.0,0.0,0.0,0.0,0.0,0.0,0.0,0.0,0.0,0.0,0.0,0.0,0.0,0.0,0.0,0.0,0.0,0.0,0.0,0.0,0.0,0.0,0.0,0.0,0.0,0.0,0.0,0.0,0.0,0.0,0.0,0.0,0.0,0.0,0.0,0.0,0.0,0.0,0.0,0.0,0.0,0.0,0.0,0.0,0.0,0.0,0.0,0.0,0.0,0.0,0.0,0.0,0.0,0.0,0.0,0.0,0.0,0.0,0.0,0.0,0.0,0.0,0.0,0.0,0.0,0.0,0.0,0.0,0.0,0.0,0.0,0.0,0.0,0.0,0.0,0.0,0.0,0.0,0.0,0.0,0.0,0.0,0.0,0.0,0.0,0.0,0.0,0.0,0.0,0.0,0.0,0.0,0.0,0.0,0.0,0.0,0.0,0.0,0.0,0.0,0.0,0.0,0.0,0.0,0.0,0.0,0.0,0.0,0.0,0.0,0.0,0.0,0.0,0.0,0.0,0.0,0.0,0.0,0.0,0.0,0.0,0.0,0.0,0.0,0.0,0.0,0.0,0.0,0.0,0.0,0.0,0.0,0.0,0.0,0.0,0.0,0.0,0.0,0.0,0.0,0.0,0.0,0.0,0.0,0.0,0.0,0.0,0.0,0.0,0.0,0.0,0.0,0.0,0.0,0.0,0.0,0.0,0.0,0.0,0.0,0.0,0.0,0.0,0.0,0.0,0.0,0.0,0.0,0.0,0.0,0.0,0.0,0.0,0.0,0.0,0.0,0.0,0.0,0.0,0.0,0.0,0.0,0.0,0.0,0.0,0.0,0.0,0.0,0.0,0.0,0.0,0.0,0.0,0.0,0.0,0.0,0.0,0.0,0.0,0.0,0.0,0.0,0.0,0.0,0.0,0.0,0.0,0.0,0.0,0.0,0.0,0.0,0.0,0.0,0.0,0.0,0.0,0.0,0.0,0.0,0.0,0.0,0.0,0.0,0.0,0.0,0.0,0.0,0.0,0.0,0.0,0.0,0.0,0.0,0.0,0.0,0.0,0.0,0.0,0.0,0.0,0.0,0.0,0.0,0.0,0.0,0.0,0.0,0.0,0.0,0.0,0.0,0.0,0.0,0.0,0.0,0.0,0.0,0.0,0.0,0.0,0.0,0.0,0.0,0.0,0.0,0.0,0.0,0.0,0.0,0.0,0.0,0.0,0.0,0.0,0.0,0.0,0.0,0.0,0.0,0.0,0.0,0.0,0.0,0.0,0.0,0.0,0.0,0.0,0.0,0.0,0.0,0.0,0.0,0.0,0.0,0.0,0.0,0.0,0.0,0.0,0.0,0.0,0.0,0.0,0.0,0.0,0.0,0.0,0.0,0.0,0.0,0.0,0.0,0.0,0.0,0.0028,0.0,0.0,0.0,0.0,0.0,0.0,0.0,0.0,0.0,0.0,0.0,0.0,0.0,0.0,0.0,0.0,0.0,0.0,0.0,0.0,0.0,0.0,0.0,0.0,0.0,0.0,0.0,0.0,0.0,0.0,0.0,0.0,0.0,0.0,0.0,0.0,0.0,0.0,0.0,0.0,0.0,0.0,0.0,0.0,0.0,0.0,0.0,0.0,0.0,0.0,0.0,0.0,0.0,0.0,0.0,0.0,0.0,0.0,0.0,0.0,0.0,0.0,0.0,0.0,0.0,0.0,0.0,0.0,0.0,0.0,0.0,0.0,0.0,0.0,0.0,0.0,0.0,0.0,0.0,0.0,0.0,0.0,0.0,0.0,0.0,0.0,0.0,0.0,0.0,0.0,0.0,0.0,0.0,0.0,0.0,0.0,0.0,0.0,0.0,0.0,0.0,0.0,0.0,0.0,0.0,0.0,0.0,0.0,0.0,0.0,0.0,0.0,0.0,0.0,0.0361,0.0362,0.0264,0.0,0.0,0.0,0.0,0.0,0.0,0.0,0.0,0.0,0.0,0.0,0.0,0.0,0.0,0.0,0.0,0.0,0.0,0.0,0.0,0.0,0.0,0.0,0.0,0.0,0.0,0.0,0.0,0.0,0.0,0.0,0.0,0.0,0.0,0.0,0.0,0.0,0.0,0.0,0.0,0.0,0.0,0.0,0.0,0.0,0.0,0.0,0.0,0.0,0.0,0.0,0.0,0.0,0.0,0.0,0.0,0.0,0.0,0.0,0.0,0.0,0.0,0.0,0.0,0.0,0.0,0.0,0.0,0.0,0.0,0.0,0.0,0.0,0.0,0.0,0.0,0.0,0.0,0.0,0.0,0.0,0.0,0.0,0.0,0.0,0.0,0.0,0.0,0.0,0.0,0.0,0.0,0.0,0.0,0.0,0.0,0.0,0.0,0.0,0.0,0.0,0.0,0.0,0.0,0.0,0.0,0.0,0.0,0.0,0.0,0.0,0.0485,0.0494,0.0494,0.0422,0.0229,0.0197,0.0192,0.0,0.0,0.0,0.0,0.0,0.0,0.0,0.0,0.0,0.0,0.0,0.0,0.0,0.0,0.0,0.0,0.0,0.0,0.0,0.0,0.0,0.0,0.0,0.0,0.0,0.0,0.0,0.0,0.0,0.0,0.0,0.0,0.0,0.0,0.0,0.0,0.0,0.0,0.0,0.0,0.0,0.0,0.0,0.0,0.0,0.0,0.0,0.0,0.0,0.0,0.0,0.0,0.0,0.0,0.0,0.0,0.0,0.0,0.0,0.0,0.0,0.0,0.0,0.0,0.0,0.0,0.0,0.0,0.0,0.0,0.0,0.0,0.0,0.0,0.0,0.0,0.0,0.0,0.0,0.0,0.0,0.0,0.0,0.0,0.0,0.0,0.0,0.0,0.0,0.0,0.0,0.0,0.0,0.0,0.0,0.0,0.0,0.0,0.0,0.0,0.0,0.0,0.0,0.0,0.0,0.0,0.0,0.0,0.0621,0.0623,0.0623,0.0614,0.0596,0.0532,0.0486,0.0,0.0,0.0,0.0,0.0,0.0,0.0,0.0,0.0,0.0,0.0,0.0,0.0,0.0,0.0,0.0,0.0,0.0,0.0,0.0,0.0,0.0,0.0,0.0,0.0,0.0,0.0,0.0,0.0,0.0,0.0,0.0,0.0,0.0,0.0,0.0,0.0,0.0,0.0,0.0,0.0,0.0,0.0,0.0,0.0,0.0,0.0,0.0,0.0,0.0,0.0,0.0,0.0,0.0,0.0,0.0,0.0,0.0,0.0,0.0,0.0,0.0,0.0,0.0,0.0,0.0,0.0,0.0,0.0,0.0,0.0,0.0,0.0,0.0,0.0,0.0,0.0,0.0,0.0,0.0,0.0,0.0,0.0,0.0,0.0,0.0,0.0,0.0,0.0,0.0,0.0,0.0,0.0,0.0,0.0,0.0,0.0,0.0,0.0,0.0,0.0,0.0,0.0,0.0,0.0,0.0,0.0,0.0,0.1356,0.1353,0.1354,0.1369,0.1361,0.0785,0.0463,0.0,0.0,0.0,0.0,0.0,0.0,0.0,0.0,0.0,0.0,0.0,0.0,0.0,0.0,0.0,0.0,0.0,0.0,0.0,0.0,0.0,0.0,0.0,0.0,0.0,0.0,0.0,0.0,0.0,0.0,0.0,0.0,0.0,0.0,0.0,0.0,0.0,0.0,0.0,0.0,0.0,0.0,0.0,0.0,0.0,0.0,0.0,0.0,0.3125,0.0,0.0,0.0,0.0,0.0,0.0,0.0,0.0,0.0,0.0,0.0,0.0,0.0,0.0,0.0,0.0,0.0,0.0,0.0,0.0,0.0,0.0,0.0,0.0,0.0,0.0,0.0,0.0,0.0,0.0,0.0,0.0,0.0,0.0,0.0,0.0,0.0,0.0,0.0,0.0,0.0,0.0,0.0,0.0,0.0,0.0,0.0,0.0,0.0,0.0,0.0,0.0,0.0,0.0,0.0,0.0,0.0,0.0,0.0,0.1789,0.1882,0.1884,0.1859,0.1836,0.1326,0.1009,0.0,0.0,0.0,0.0,0.0,0.0,0.0,0.0,0.0,0.0,0.0,0.0,0.0,0.0,0.0,0.0,0.0,0.0,0.0,0.0,0.0,0.0,0.0,0.0,0.0,0.0,0.0,0.0,0.0,0.0,0.0,0.0,0.0,0.0,0.0,0.0,0.0,0.0,0.0,0.0,0.0,0.0,0.0,0.0,0.0,0.0,0.0,0.0,0.0,0.0,0.0,0.0,0.0,0.0,0.0,0.0,0.0,0.0,0.0,0.0,0.0,0.0,0.0,0.0,0.0,0.0,0.0,0.0,0.0,0.0,0.0,0.0,0.0,0.0,0.0,0.0,0.0,0.0,0.0,0.0,0.0,0.0,0.0,0.0,0.0,0.0,0.0,0.0,0.0,0.0,0.0,0.0,0.0,0.0,0.0,0.0,0.0,0.0,0.0,0.0,0.0,0.0,0.0,0.0,0.0,0.0,0.0,0.2022,0.2153,0.2356,0.2356,0.2329,0.2272,0.2008,0.1765,0.1602,0.0,0.0,0.0,0.0,0.0,0.0,0.0,0.0,0.0,0.0,0.0,0.0,0.0,0.0,0.0,0.0,0.0,0.0,0.0,0.0,0.0,0.0,0.0,0.0,0.0,0.0,0.0,0.0,0.0,0.0,0.0,0.0,0.0,0.0,0.0,0.0,0.0,0.0,0.4227,0.4232,0.0,0.0,0.0,0.0,0.0,0.0,0.0,0.0,0.4202,0.0,0.0,0.0,0.0,0.0,0.0,0.0,0.0,0.0,0.0,0.0,0.0,0.0,0.0,0.0,0.0,0.0,0.0,0.0,0.0,0.0,0.0,0.0,0.0,0.0,0.0,0.0,0.0,0.0,0.0,0.0,0.0,0.0,0.0,0.0,0.0,0.0,0.0,0.0,0.0,0.0,0.0,0.0,0.0,0.0,0.0,0.0,0.0,0.0,0.0,0.0,0.0,0.0,0.0,0.0,0.0,0.2734,0.2781,0.2891,0.3025,0.3027,0.3017,0.3002,0.2724,0.2516,0.2434,0.0,0.0,0.0,0.0,0.0,0.0,0.0,0.0,0.0,0.0,0.0,0.0,0.0,0.0,0.0,0.0,0.0,0.0,0.0,0.0,0.0,0.0,0.0,0.0,0.0,0.0,0.0,0.0,0.0,0.0,0.0,0.0,0.0,0.0,0.0,0.0,0.0,0.0,0.0,0.4864,0.486,0.0,0.0,0.0,0.0,0.0,0.0,0.0,0.0,0.4507,0.0,0.0,0.0,0.0,0.0,0.0,0.0,0.0,0.0,0.0,0.0,0.0,0.0,0.0,0.0,0.0,0.0,0.0,0.0,0.0,0.0,0.0,0.0,0.0,0.0,0.0,0.0,0.0,0.0,0.0,0.0,0.0,0.0,0.0,0.0,0.0,0.0,0.0,0.0,0.0,0.0,0.0,0.0,0.0,0.0,0.0,0.0,0.0,0.0,0.0,0.0,0.0,0.0,0.0,0.0,0.3348,0.34,0.3525,0.3756,0.3758,0.3758,0.3754,0.3333,0.311,0.0,0.0,0.0,0.0,0.0,0.0,0.0,0.0,0.0,0.0,0.0,0.0,0.0,0.0,0.0,0.0,0.0,0.0,0.0,0.0,0.0,0.0,0.0,0.0,0.0,0.0,0.0,0.0,0.0,0.0,0.0,0.0,0.0,0.0,0.0,0.0,0.0,0.0,0.0,0.0,0.5382,0.5355,0.5355,0.0,0.0,0.0,0.0,0.0,0.0,0.5229,0.5132,0.0,0.0,0.0,0.0,0.0,0.0,0.0,0.0,0.0,0.0,0.0,0.0,0.0,0.0,0.0,0.0,0.0,0.0,0.0,0.0,0.0,0.0,0.0,0.0,0.0,0.0,0.0,0.0,0.0,0.0,0.0,0.0,0.0,0.0,0.0,0.0,0.0,0.0,0.0,0.0,0.0,0.0,0.0,0.0,0.0,0.0,0.0,0.0,0.0,0.0,0.0,0.0,0.0,0.0,0.0,0.3984,0.3992,0.4156,0.4489,0.4522,0.4522,0.4517,0.4032,0.3725,0.0,0.0,0.0,0.0,0.0,0.0,0.0,0.0,0.0,0.0,0.0,0.0,0.0,0.0,0.0,0.0,0.0,0.0,0.0,0.0,0.0,0.0,0.0,0.0,0.0,0.0,0.0,0.0,0.0,0.0,0.0,0.0,0.0,0.0,0.0,0.0,0.0,0.0,0.0,0.0,0.0,0.5919,0.5924,0.5963,0.0,0.0,0.0,0.0,0.5935,0.5924,0.0,0.0,0.0,0.0,0.0,0.0,0.0,0.0,0.0,0.0,0.0,0.0,0.0,0.0,0.0,0.0,0.0,0.0,0.0,0.0,0.0,0.0,0.0,0.0,0.0,0.0,0.0,0.0,0.0,0.0,0.0,0.0,0.0,0.0,0.0,0.0,0.0,0.0,0.0,0.0,0.0,0.0,0.0,0.0,0.0,0.0,0.0,0.0,0.0,0.0,0.0,0.0,0.0,0.0,0.0,0.0,0.4655,0.4697,0.4897,0.5259,0.5263,0.5292,0.5256,0.4816,0.4516,0.0,0.0,0.0,0.0,0.0,0.0,0.0,0.0,0.0,0.0,0.0,0.0,0.0,0.0,0.0,0.0,0.0,0.0,0.0,0.0,0.0,0.0,0.0,0.0,0.0,0.0,0.0,0.0,0.0,0.0,0.0,0.0,0.0,0.0,0.0,0.0,0.0,0.0,0.0,0.0,0.0,0.6672,0.6672,0.6893,0.702,0.0,0.0,0.696,0.6708,0.6672,0.0,0.0,0.0,0.0,0.0,0.0,0.0,0.0,0.0,0.0,0.0,0.0,0.0,0.0,0.0,0.0,0.0,0.0,0.0,0.0,0.0,0.0,0.0,0.0,0.0,0.0,0.0,0.0,0.0,0.0,0.0,0.0,0.0,0.0,0.0,0.0,0.0,0.0,0.0,0.0,0.0,0.0,0.0,0.0,0.0,0.0,0.0,0.0,0.0,0.0,0.0,0.0,0.0,0.0,0.0,0.5042,0.5418,0.5488,0.5686,0.5954,0.5987,0.5954,0.5954,0.5625,0.5363,0.0,0.0,0.0,0.0,0.0,0.0,0.0,0.0,0.0,0.0,0.0,0.0,0.0,0.0,0.0,0.0,0.0,0.0,0.0,0.0,0.0,0.0,0.0,0.0,0.0,0.0,0.0,0.0,0.0,0.0,0.0,0.0,0.0,0.0,0.0,0.0,0.0,0.0,0.0,0.0,0.0,0.0,0.7563,0.7682,0.0,0.0,0.0,0.7714,0.7619,0.0,0.0,0.0,0.0,0.0,0.0,0.0,0.0,0.0,0.0,0.0,0.0,0.0,0.0,0.0,0.0,0.0,0.0,0.0,0.0,0.0,0.0,0.0,0.0,0.0,0.0,0.0,0.0,0.0,0.0,0.0,0.0,0.0,0.0,0.0,0.0,0.0,0.0,0.0,0.0,0.0,0.0,0.0,0.0,0.0,0.0,0.0,0.0,0.0,0.0,0.0,0.0,0.0,0.0,0.0,0.0,0.0,0.6214,0.6313,0.6511,0.6712,0.6712,0.6712,0.6712,0.6489,0.0,0.0,0.0,0.0,0.0,0.0,0.0,0.0,0.0,0.0,0.0,0.0,0.0,0.0,0.0,0.0,0.0,0.0,0.0,0.0,0.0,0.0,0.0,0.0,0.0,0.0,0.0,0.6194,0.0,0.0,0.0,0.0,0.0,0.0,0.0,0.0,0.0,0.0,0.0,0.0,0.0,0.0,0.8064,0.8452,0.8551,0.8632,0.0,0.0,0.8597,0.8502,0.8203,0.7914,0.0,0.0,0.0,0.0,0.0,0.0,0.0,0.0,0.0,0.0,0.0,0.0,0.0,0.0,0.0,0.0,0.0,0.0,0.0,0.0,0.0,0.0,0.0,0.0,0.0,0.0,0.0,0.0,0.0,0.0,0.0,0.0,0.0,0.0,0.0,0.0,0.0,0.0,0.0,0.0,0.0,0.0,0.0,0.0,0.0,0.0,0.0,0.0,0.0,0.0,0.0,0.0,0.0,0.0,0.0,0.7101,0.7138,0.7302,0.7601,0.7601,0.7634,0.7629,0.7485,0.7147,0.0,0.0,0.0,0.0,0.0,0.0,0.0,0.0,0.0,0.0,0.0,0.0,0.0,0.0,0.0,0.0,0.0,0.0,0.0,0.0,0.0,0.0,0.0,0.0,0.0,0.0,0.0,0.0,0.0,0.0,0.0,0.0,0.0,0.0,0.0,0.0,0.0,0.0,0.0,0.0,0.0,0.9153,0.9298,0.9527,0.9746,0.0,0.0,0.9743,0.9367,0.9276,0.9139,0.8771,0.0,0.0,0.0,0.0,0.0,0.0,0.0,0.0,0.0,0.0,0.0,0.0,0.0,0.0,0.0,0.0,0.0,0.0,0.0,0.0,0.0,0.0,0.0,0.0,0.0,0.0,0.0,0.0,0.0,0.0,0.0,0.0,0.0,0.0,0.0,0.0,0.0,0.0,0.0,0.0,0.0,0.0,0.0,0.0,0.0,0.0,0.0,0.0,0.0,0.0,0.0,0.0,0.0,0.7749,0.8004,0.8284,0.8555,0.8821,0.8821,0.8788,0.8788,0.8554,0.8121,0.0,0.0,0.0,0.0,0.0,0.0,0.0,0.0,0.0,0.0,0.0,0.0,0.0,0.0,0.0,0.0,0.0,0.0,0.0,0.0,0.0,0.0,0.0,0.0,0.0,0.0,0.0,0.0,0.7899,0.7966,0.8057,0.0,0.0,0.0,0.0,0.0,0.0,0.0,0.0,0.0,0.0,0.9838,1.0274,1.0418,0.0,0.0,1.0676,1.0509,1.0347,1.0016,0.972,0.954,0.9136,0.0,0.0,0.0,0.0,0.0,0.0,0.0,0.0,0.0,0.0,0.0,0.0,0.0,0.0,0.0,0.0,0.0,0.0,0.0,0.0,0.0,0.0,0.0,0.0,0.0,0.0,0.0,0.0,0.0,0.0,0.0,0.0,0.0,0.0,0.0,0.0,0.0,0.0,0.0,0.0,0.0,0.0,0.0,0.0,0.0,0.0,0.0,0.0,0.0,0.0,0.0,0.0,0.8678,0.8909,0.9356,0.9695,0.9862,0.9895,0.9895,0.9895,0.9571,0.9094,0.0,0.0,0.0,0.0,0.0,0.0,0.0,0.0,0.0,0.0,0.0,0.0,0.0,0.0,0.0,0.0,0.0,0.0,0.0,0.0,0.0,0.0,0.0,0.0,0.0,0.0,0.0,0.0,0.8488,0.8578,0.8651,0.0,0.0,0.0,0.0,0.0,0.0,0.0,0.0,0.0,0.0,1.0557,1.1007,1.1099,1.1175,1.1402,1.1276,1.1116,1.1074,1.0731,1.0417,1.0393,0.0,0.0,0.0,0.0,0.0,0.0,0.0,0.0,0.0,0.0,0.0,0.0,0.0,0.0,0.0,0.0,0.0,0.0,0.0,0.0,0.0,0.0,0.0,0.0,0.0,0.0,0.0,0.0,0.0,0.0,0.7708,0.0,0.0,0.0,0.0,0.0,0.0,0.0,0.0,0.0,0.0,0.0,0.0,0.0,0.0,0.0,0.0,0.0,0.0,0.0,0.0,0.0,0.0,0.9582,0.9779,1.0242,1.0586,1.0777,1.0771,1.0811,1.0764,1.0458,1.0095,0.9656,0.0,0.0,0.0,0.0,0.0,0.0,0.0,0.0,0.0,0.0,0.0,0.0,0.0,0.0,0.0,0.0,0.0,0.0,0.0,0.0,0.0,0.0,0.0,0.0,0.0,0.0,0.903,0.9177,0.9326,0.0,0.0,0.0,0.0,0.0,0.0,0.0,0.0,0.0,0.0,1.1002,1.1318,1.1469,1.1469,1.1553,1.1678,1.1703,1.1619,1.1519,1.146,1.1435,0.0,0.0,0.0,0.0,0.0,0.0,0.0,0.0,0.0,0.0,0.0,0.0,0.0,0.0,0.0,0.0,0.0,0.0,0.0,0.0,0.0,0.0,0.0,0.0,0.0,0.0,0.0,0.887,0.8724,0.0,0.0,0.0,0.0,0.0,0.0,0.0,0.0,0.0,0.0,0.0,1.1655,1.1941,0.0,0.0,0.0,0.0,0.0,0.0,0.0,0.0,0.0,0.0,0.0,0.0,1.0604,1.0814,1.1469,1.1935,1.2131,1.221,1.2269,1.2269,1.1728,1.1083,1.0325,0.0,0.0,0.0,0.0,0.0,0.0,0.0,0.0,0.0,0.0,0.0,0.0,0.0,0.0,0.0,0.0,0.0,0.0,0.0,0.0,0.0,0.0,0.0,0.0,0.0,1.0046,0.0,0.0,0.0,0.0,0.0,0.0,0.0,0.0,0.0,0.0,0.0,1.0956,1.119,1.1558,1.1877,1.1993,1.2017,1.2076,0.0,0.0,0.0,0.0,0.0,0.0,0.0,0.0,0.0,0.0,0.0,0.0,0.0,0.0,1.0584,0.9632,0.9421,0.9375,0.9283,0.0,0.0,0.0,0.0,0.0,0.0,0.0,0.0,0.0,0.0,0.0,0.0,0.0,0.0,1.0204,0.0,1.0067,0.0,0.0,0.0,0.0,0.0,0.0,0.0,0.0,1.2672,1.2898,1.2907,1.3211,1.3351,0.0,1.326,1.265,0.0,0.0,0.0,0.0,0.0,0.0,0.0,0.0,1.1577,1.1762,1.2601,1.3143,1.3258,1.3351,1.3369,1.3361,1.2703,1.1987,1.1276,1.075,1.0213,0.0,0.0,0.0,0.0,0.0,0.0,0.0,0.0,0.0,0.0,0.0,0.0,0.0,0.0,0.0,0.0,0.0,0.0,0.0,0.0,0.0,0.0,0.0,1.1134,0.0,0.0,0.0,0.0,0.0,0.0,0.0,0.0,0.0,1.1303,1.1449,1.1687,1.1964,1.2203,1.2397,1.2505,0.0,0.0,0.0,0.0,0.0,0.0,0.0,1.2372,1.2382,1.2382,1.2397,1.2403,1.2452,1.2499,1.2566,0.0,0.0,1.0785,1.0531,1.0516,1.0413,1.0398,1.0358,1.0358,1.0255,1.0216,0.0,0.0,0.0,0.0,0.0,0.0,0.0,0.0,1.1982,1.1731,0.0,1.1327,0.0,0.0,0.0,0.0,0.0,1.3117,0.0,0.0,1.3912,1.407,1.4079,1.4118,1.4088,1.4088,1.4096,1.4079,1.3962,1.2934,0.0,0.0,0.0,0.0,0.0,0.0,1.2552,1.2567,1.3591,1.4156,1.4156,1.4156,1.4139,1.4098,1.3411,1.2865,1.2551,1.2137,1.1699,1.1231,1.0471,0.0,0.0,0.0,0.0,0.0,0.0,0.0,0.0,0.0,0.0,0.0,0.0,0.0,0.0,0.0,0.0,0.0,0.0,0.0,0.0,1.2079,0.0,0.0,0.0,0.0,0.0,0.0,0.0,0.0,0.0,0.0,1.2286,1.2217,1.242,1.2861,0.0,0.0,0.0,0.0,1.2929,1.2929,1.2929,1.2905,1.2929,1.2905,1.2939,1.2935,0.0,0.0,1.3065,1.3186,1.3443,1.3872,1.3952,1.3495,1.2118,1.1855,1.1813,1.1813,1.1805,1.178,1.178,1.178,1.178,1.6098,0.0,0.0,0.0,0.0,1.3697,1.3589,1.3601,1.3601,1.3561,1.342,1.3385,0.0,0.0,0.0,0.0,0.0,0.0,1.4781,1.4994,1.5264,1.5547,1.5839,1.5839,1.5869,1.5839,1.5869,1.5564,1.501,1.4667,1.4163,1.3428,0.0,0.0,0.0,0.0,1.3549,1.3623,1.4542,1.5024,1.5024,1.5163,1.496,1.4399,1.4017,1.3688,1.3367,1.2839,1.2364,1.1982,1.1489,0.0,0.0,0.0,0.0,0.0,0.0,0.0,0.0,0.0,0.0,0.0,0.0,0.0,0.0,0.0,0.0,0.0,0.0,0.0,1.3074,1.3583,1.3946,0.0,0.0,0.0,0.0,0.0,0.0,0.0,0.0,0.0,1.3972,1.352,1.3253,0.0,0.0,1.3406,1.3406,1.3406,1.3416,1.3406,1.3382,0.0,1.3416,1.3406,1.3528,1.3844,1.4286,1.4644,1.475,1.4816,1.4883,1.5031,1.5016,1.4887,1.4502,1.3983,1.3672,1.363,1.3542,1.3489,1.3489,1.3411,1.3238,1.8286,1.7185,1.6085,1.5676,1.5693,1.5288,1.5077,1.5022,1.5096,1.502,1.4845,1.4914,1.493,1.495,1.5083,0.0,0.0,0.0,1.5866,1.6075,1.6393,1.6688,1.6956,1.7161,1.7274,1.7274,1.7284,1.6927,1.6242,1.6213,1.586,1.5128,0.0,0.0,1.4339,1.4449,1.4508,1.4595,1.5359,1.5779,1.5842,1.5987,1.5695,1.5088,1.4942,1.477,1.4573,1.3894,1.3418,1.3208,1.2579,1.211,0.0,0.0,0.0,0.0,0.0,0.0,0.0,0.0,0.0,0.0,0.0,1.0582,0.0,0.0,0.0,0.0,1.3249,1.3751,1.435,1.4744,0.0,0.0,0.0,0.0,0.0,0.0,0.0,1.5005,1.5017,1.5017,1.5017,1.4819,1.4499,1.4054,1.401,1.3975,1.3918,0.0,1.3992,1.4158,1.4179,1.4267,1.4471,1.4503,1.4599,1.4874,1.5328,1.5701,1.5804,1.5895,1.6037,1.6203,1.6269,1.6299,1.6486,1.6111,1.5547,1.496,1.4773,1.4694,1.4651,1.4562,1.4413,2.0076,1.9966,1.8436,1.775,1.7605,1.7177,1.6734,1.6359,1.651,1.6328,1.5939,1.6045,1.6122,1.6118,1.6436,0.0,1.6574,1.6838,1.6948,1.6959,1.7377,1.7642,1.7728,1.8177,1.8434,1.8466,1.8466,1.8147,1.7605,1.7595,1.7341,1.6857,1.57,1.5089,1.5059,1.5235,1.5381,1.5526,1.6089,1.6437,1.6558,1.6558,1.6376,1.5999,1.596,1.596,1.5958,1.5127,1.4661,1.4631,1.3641,1.3088,1.3068,0.0,0.0,0.0,0.0,0.0,0.0,0.0,0.0,0.0,0.0,0.0,0.0,0.0,0.0,0.0,1.4676,0.0,1.5524,1.558,0.0,0.0,0.0,1.558,1.558,1.5616,1.5639,1.5662,0.0,0.0,1.5721,1.6148,1.6057,1.5003,1.4842,1.4738,1.461,1.4609,1.4752,1.5167,1.5233,1.5411,1.5777,1.5935,1.599,1.6048,1.626,1.6517,1.6542,1.6708,1.7032,1.7384,1.7479,1.7606,1.8047,1.7922,1.7479,1.6046,1.5728,1.5624,1.5547,1.5505,1.5442,2.1654,2.1594,2.08,1.991,1.8991,1.8572,1.8413,1.836,1.8186,1.8009,1.7919,1.7946,1.7972,1.7946,1.8047,1.8078,1.8089,1.8151,1.8182,1.8182,1.8297,1.8673,1.9324,1.9449,1.9647,1.9886,1.9908,1.9396,1.844,1.8417,1.8103,1.7507,1.7185,1.6803,1.6381,1.641,1.6428,1.6467,1.6915,1.7134,1.7204,1.7193,1.6984,1.6591,1.6581,1.6581,1.657,1.5705,1.5211,1.519,1.4282,1.3779,1.3755,1.3661,0.0,0.0,0.0,0.0,0.0,0.0,0.0,0.0,0.0,1.2942,1.379,0.0,1.4426,0.0,1.5696,1.5979,1.6107,1.6117,0.0,0.0,1.625,1.625,1.6262,1.6665,1.6958,1.6945,1.7318,1.7556,1.7556,1.7667,1.7599,1.717,1.668,1.6316,1.6158,1.6158,1.6192,1.6282,1.6305,1.635,1.6535,1.6829,1.7094,1.7186,1.7586,1.7931,1.8037,1.8105,1.819,1.8295,1.8319,1.8377,1.8467,1.8441,1.8328,1.7886,1.7438,1.7016,1.6989,1.6841,1.6662,2.2604,2.258,2.2394,2.1907,2.117,2.0201,1.9733,1.9634,1.951,1.9298,1.9028,1.9095,1.9133,1.9121,1.9081,1.9028,1.9028,1.8987,1.896,1.8972,1.9213,1.9578,2.0039,2.0265,2.0457,2.0636,2.0618,2.0187,1.9415,1.9352,1.9026,1.8375,1.8375,1.8159,1.7788,1.7412,1.7245,1.7301,1.7564,1.7696,1.7724,1.7707,1.7603,1.7379,1.7368,1.7368,1.7385,1.6449,1.5957,1.6,1.5102,1.4605,1.4651,1.4674,1.4608,0.0,0.0,0.0,0.0,0.0,0.0,0.0,0.0,0.0,0.0,0.0,1.5617,1.6287,1.6713,1.6995,1.7079,1.7352,1.754,1.7597,1.7619,1.7619,1.7597,1.7923,1.8116,1.8116,1.8385,1.8554,1.8554,1.8759,1.8818,1.8615,1.8462,1.8054,1.7226,1.7057,1.714,1.7339,1.7349,1.7455,1.768,1.7937,1.8151,1.8215,1.8531,1.8774,1.8854,1.8907,1.8946,1.8972,1.896,1.896,1.896,1.896,1.8972,1.8907,1.8575,1.8197,1.7947,1.781,1.7627,2.3308,2.3275,2.348,2.3582,2.3463,2.2022,2.1129,2.0663,2.0609,2.0299,1.9734,1.9862,1.9914,1.9875,1.9785,1.9734,1.9708,1.9617,1.9551,1.9576,2.0033,2.0281,2.0353,2.073,2.096,2.1022,2.1022,2.0751,2.0326,2.0313,1.9963,1.9368,1.9317,1.9265,1.9119,1.8402,1.8023,1.8034,1.8154,1.822,1.822,1.822,1.8232,1.822,1.822,1.8247,1.8213,1.7291,1.6811,1.6888,1.5975,1.5458,1.558,1.5603,1.5603,0.0,1.5625,0.0,0.0,0.0,0.0,0.0,0.0,0.0,0.0,1.6473,1.6927,1.7284,1.7822,1.8188,1.8319,1.8794,1.912,1.9156,1.9156,1.912,1.911,1.9186,1.9216,1.9216,1.9258,1.9298,1.9351,1.9732,1.9926,1.9699,1.9923,1.9623,1.8277,1.791,1.8006,1.8381,1.8403,1.8562,1.8925,1.9071,1.9083,1.9095,1.9148,1.9239,1.9239,1.9303,1.9394,1.9394,1.9368,1.9394,1.942,1.942,1.942,1.9434,1.9317,1.9054,1.8625,1.8464,1.8422,2.4508,2.4089,2.4234,2.4392,2.4494,2.4195,2.3448,2.2442,2.1638,2.0953,2.0409,2.0434,2.0459,2.0459,2.0434,2.0409,2.0409,2.0384,2.0397,2.0372,2.0475,2.0682,2.1,2.1115,2.1315,2.161,2.1622,2.1371,2.0839,2.0853,2.0574,2.0042,2.0016,1.9991,1.9965,0.0,0.0,0.0,1.8827,1.8839,1.8827,1.8827,1.8827,1.8827,1.8922,0.0,1.8965,1.8065,1.7581,1.7569,1.6619,0.0,0.0,0.0,0.0,0.0,0.0,0.0,0.0,0.0,0.0,0.0,1.786,1.7623,1.7028,1.771,1.843,1.8972,1.9212,1.9425,1.9549,1.9666,1.9792,1.9867,1.9902,1.9858,1.9784,2.0157,2.0411,2.0309,2.0668,2.0941,2.09,2.1048,2.0992,2.0724,2.0794,2.0619,2.0074,1.9573,1.9395,1.9494,1.9444,1.9519,1.9631,1.9618,1.963,1.963,1.9552,1.9526,1.9526,1.946,1.942,1.942,1.942,1.9473,1.9539,1.9565,1.9604,1.9682,1.9708,1.9566,1.9133,1.896,1.8854,2.5434,0.0,2.5021,2.516,0.0,2.5314,2.5024,2.4338,2.2924,2.187,2.1093,2.108,2.1129,2.1177,2.1202,2.1177,2.1177,2.1129,2.1093,2.108,2.1044,2.1091,2.1321,2.1321,2.1416,2.1589,2.1602,2.1471,2.1194,2.122,2.1037,2.0711,2.0711,2.0673,2.0585,2.0585,2.0258,1.9591,1.9591,1.9617,1.9591,1.9617,1.9578,1.9591,1.9668,0.0,0.0,0.0,0.0,0.0,0.0,0.0,0.0,1.7686,0.0,1.7917,1.7939,1.8035,1.8261,1.8369,1.8653,1.9109,1.9458,1.9341,1.8665,1.9102,1.9539,1.9935,2.0326,2.0617,2.0698,2.0994,2.1229,2.1288,2.1274,2.1243,2.1181,2.141,2.1537,2.1435,2.1614,2.1793,2.1807,2.1793,2.1674,2.1447,2.1399,2.1302,2.1019,2.0535,2.0207,2.0182,2.0131,2.008,2.0093,2.0029,1.9991,1.9991,1.9952,1.9901,1.9888,1.9849,1.9798,1.9798,1.9772,1.9823,1.9875,1.9888,1.9926,1.9991,2.0003,1.9939,1.9734,1.9552,1.9396,2.6301,2.5605,2.5783,2.5879,2.5879,2.6015,2.5969,2.5659,0.0,0.0,0.0,2.1746,2.1841,2.1935,2.1935,2.1935,2.1935,2.1817,2.1746,2.1769,2.165,2.1602,2.1602,2.1602,2.1578,2.1602,2.1602,2.1616,2.1602,2.1602,2.153,2.1434,2.141,2.1323,2.1213,2.1213,2.1006,2.0573,2.0422,2.0346,2.0346,2.0359,2.0359,2.0346,2.0359,2.0372,2.0385,1.989,1.9675,1.9795,1.9281,1.9093,1.9346,1.9346,1.94,1.9535,1.9579,1.9654,1.9847,1.9891,2.0107,2.0521,2.0933,2.0962,2.0447,2.0484,2.062,2.0869,2.144,2.1806,2.185,2.2325,2.2657,2.2694,2.268,2.2649,2.2572,2.2563,2.2503,2.2379,2.2319,2.2324,2.231,2.2296,2.2217,2.2006,2.1935,2.1855,2.1568,2.1093,2.0723,2.0684,2.0623,2.0523,2.0498,2.0422,2.0359,2.0359,2.0321,2.0296,2.0296,2.0283,2.0271,2.0245,2.0283,2.0271,2.0309,2.0296,2.0296,2.0321,2.0334,2.0334,2.0321,2.0169,1.9991,2.7424,2.6377,2.6484,2.6578,2.6563,2.6707,2.621,2.5238,2.4408,2.3431,2.2388,2.2374,2.2374,2.2397,2.2397,2.2397,2.2383,2.2374,2.2374,2.2374,2.2351,2.2351,2.2351,2.2351,2.2351,2.2351,2.2328,2.2351,2.2351,2.2351,2.2314,2.2305,2.2263,2.217,2.2067,2.203,2.1983,2.1898,2.1251,2.0894,2.0894,2.087,2.087,2.0894,2.0995,2.1057,2.1044,2.0651,2.0504,2.0607,2.0048,1.9801,1.9954,1.999,2.0006,2.01,2.0194,2.0337,2.0472,2.0634,2.1074,2.1857,2.2613,2.2622,2.1665,2.1672,2.2011,2.2607,2.2797,2.2937,2.3113,2.3216,2.3319,2.3421,2.3443,2.3421,2.3253,2.3194,2.3105,2.2994,2.2867,2.2799,2.2799,2.2814,2.2746,2.2555,2.244,2.237,2.2091,2.1626,2.1277,2.1142,2.1093,2.1033,2.0934,2.0909,2.086,2.0898,2.0784,2.0709,2.0709,2.0635,2.0585,2.0548,2.056,2.061,2.0684,2.0721,2.0759,2.0835,2.0873,2.0873,2.086,2.081,2.0661,2.8382,2.7306,2.7338,2.7352,2.7363,2.7399,2.6767,2.5693,2.5367,2.437,2.3031,2.2972,2.3031,2.3098,2.3098,2.3098,2.3076,2.3031,2.2987,2.2972,2.2957,2.2934,2.2934,2.2949,2.2934,2.2934,2.2934,2.2934,2.2949,2.2934,2.2949,2.2934,2.2904,2.2851,2.2791,2.2791,2.2768,2.2678,2.1992,2.166,2.166,2.1647,2.1674,2.1674,2.1722,2.1746,2.1746,2.1625,2.1625,2.1657,2.1459,2.1358,2.1492,2.1506,2.1581,2.1757,2.1823,2.1954,2.2119,2.2333,2.2678,2.3125,2.3537,2.3625,2.3218,2.3054,2.3109,2.345,2.3588,2.3681,2.3788,2.3852,2.3931,2.3973,2.3973,2.3931,2.3788,2.3717,2.3625,2.3501,2.3355,2.329,2.329,2.329,2.3216,2.3031,2.2873,2.27,2.2609,2.2365,2.2063,2.1722,2.1592,2.1458,2.1337,2.124,2.1229,2.1229,2.1153,2.1129,2.1142,2.1068,2.1031,2.1044,2.1044,2.1068,2.1104,2.1142,2.1166,2.1204,2.1204,2.1204,2.1229,2.1204,2.1082,2.9205,2.807,2.8085,2.8094,2.8134,2.8134,2.7455,2.6334,2.631,2.5358,2.3885,2.3666,2.3659,2.376,2.3767,2.376,2.3724,2.3659,2.3616,2.3595,2.3545,2.3523,2.3501,2.3523,2.3538,2.3523,2.3538,2.3523,2.3523,2.3538,2.3516,2.348,2.348,2.3458,2.3451,2.3451,2.3407,2.3282,2.2851,2.254,2.2356,2.2356,2.2356,2.2356,2.2394,2.2402,2.2417,2.2532,2.2586,2.2632,2.2672,2.2762,2.2912,2.2957,2.3046,2.3238,2.3304,2.3421,2.3638,2.3867,2.4051,2.4156,2.4245,2.4349,2.4426,2.4281,2.4078,2.4015,2.4141,2.4266,2.4307,2.4385,2.4462,2.4467,2.4462,2.4426,2.4307,2.4198,2.4094,2.3988,2.3861,2.376,2.3745,2.3745,2.3674,2.3494,2.3224,2.3068,2.3068,2.3068,2.2844,2.2426,2.2123,2.1926,2.1769,2.165,2.1602,2.1592,2.1578,2.1602,2.1592,2.1578,2.1578,2.1578,2.1592,2.1592,2.1592,2.1578,2.1578,2.1616,2.1616,2.1592,2.1602,2.1602,2.1471,2.989,2.8708,2.8638,2.8701,2.8795,2.8811,2.8081,2.7013,2.6924,2.6172,2.4953,2.4431,2.4224,2.424,2.424,2.424,2.424,2.4219,2.4204,2.4219,2.4219,2.4213,2.4198,2.4198,2.4198,2.4198,2.4198,2.4198,2.4198,2.4198,2.4156,2.4036,2.4015,2.3994,2.3946,2.394,2.394,2.3919,2.3876,2.3501,2.2867,2.2822,2.2807,2.2844,2.2957,2.3016,2.3016,2.315,2.3238,2.3297,2.3297,2.3384,2.3523,2.3631,2.3696,2.3754,2.3909,2.412,2.438,2.4467,2.4574,2.4715,2.4851,2.4906,2.4946,2.5064,2.497,2.467,2.4655,2.4775,2.4906,2.4926,2.4926,2.4926,2.4926,2.4926,2.4871,2.469,2.4549,2.4528,2.4328,2.4255,2.424,2.4219,2.4135,2.3961,2.3696,2.353,2.353,2.353,2.3465,2.3172,2.2814,2.2463,2.2231,2.2137,2.2123,2.2137,2.2123,2.2123,2.2137,2.2137,2.2137,2.21,2.21,2.21,2.2123,2.2123,2.2114,2.21,2.21,2.2137,2.2123,2.21,2.1935,3.0593,2.9387,2.9332,2.9393,2.9454,2.9515,2.9042,2.8173,2.7731,2.7066,2.6199,2.5535,2.5091,2.4855,2.4819,2.4839,2.4819,2.4795,2.4755,2.4755,2.4731,2.4706,2.4726,2.4771,2.4755,2.4791,2.4815,2.4819,2.4839,2.4835,2.4799,2.4759,2.4719,2.4675,2.4634,2.4609,2.4549,2.4487,2.4472,2.4287,2.3937,2.3674,2.356,2.3545,2.3603,2.3625,2.3631,2.3717,2.3782,2.3831,2.3894,2.3994,2.4114,2.4193,2.4281,2.439,2.4549,2.469,2.4851,2.4966,2.5029,2.5166,2.5282,2.5359,2.5359,2.5546,2.5565,2.5413,2.5317,2.5298,2.5355,2.5359,2.5355,2.5352,2.5352,2.5336,2.5355,2.5162,2.5025,2.5005,2.4811,2.471,2.4706,2.4569,2.4446,2.4343,2.4177,2.4015,2.4015,2.4015,2.3931,2.3754,2.3538,2.3194,2.2731,2.2595,2.2609,2.2609,2.2609,2.2609,2.2595,2.2595,2.2618,2.2632,2.2618,2.2618,2.2618,2.2595,2.2595,2.2595,2.2595,2.2609,2.2632,2.2595,2.248,3.1316,3.0174,3.0075,3.0059,3.0097,3.0177,2.9826,2.9177,2.8461,2.7795,2.7141,2.6412,2.5937,2.5612,2.546,2.5384,2.54,2.5343,2.5304,2.532,2.5278,2.524,2.5243,2.5282,2.532,2.5339,2.5362,2.5384,2.54,2.54,2.54,2.5365,2.5359,2.532,2.5304,2.5243,2.5166,2.5052,2.5033,2.4974,2.4851,2.4589,2.4364,2.4213,2.4198,2.4219,2.4234,2.4287,2.4354,2.439,2.4472,2.4569,2.4686,2.4726,2.4826,2.5009,2.5111,2.5224,2.532,2.5432,2.5527,2.5624,2.5717,2.5789,2.5791,2.5937,2.6045,2.6026,2.5954,2.5899,2.5772,2.5772,2.577,2.5768,2.5768,2.5752,2.5735,2.5567,2.5467,2.5432,2.5278,2.5182,2.5143,2.495,2.4826,2.4786,2.4609,2.4487,2.4503,2.4487,2.4405,2.4198,2.4156,2.3846,2.3246,2.3091,2.3105,2.3091,2.3076,2.3091,2.3091,2.3091,2.3076,2.3091,2.3091,2.3091,2.3091,2.3091,2.3091,2.3091,2.3105,2.3091,2.3091,2.3091,2.3113,3.2101,3.0831,3.0747,3.0744,3.0747,3.0764,3.0399,2.9786,2.8927,2.8246,2.7682,2.6892,2.659,2.6573,2.6101,2.5862,2.5881,2.5862,2.5862,2.5879,2.5844,2.5844,2.5844,2.5844,2.5879,2.5862,2.5881,2.5881,2.5862,2.5881,2.5862,2.5862,2.5862,2.5862,2.5844,2.5719,2.5682,2.5629,2.5605,2.5567,2.5532,2.553,2.5208,2.4715,2.471,2.4755,2.4775,2.489,2.497,2.5068,2.5052,2.5091,2.5173,2.5285,2.5413,2.5527,2.5624,2.5719,2.5828,2.5936,2.601,2.6118,2.6154,2.6188,2.6171,2.6279,2.6366,2.6383,2.6504,2.6487,2.626,2.6189,2.617,2.617,2.617,2.617,2.617,2.5992,2.5899,2.586,2.5715,2.5586,2.5584,2.5394,2.5278,2.522,2.5084,2.4966,2.4966,2.4966,2.4866,2.467,2.4533,2.4333,2.376,2.3588,2.3573,2.3573,2.3573,2.3573,2.3573,2.3573,2.3573,2.3551,2.3573,2.3573,2.3573,2.3573,2.3573,2.3588,2.3588,2.3588,2.3573,2.3573,2.3595,3.2595,3.1254,3.1254,3.1237,3.1257,3.1295,3.1181,3.084,2.9669,2.9074,2.8647,2.7553,2.7005,2.7005,2.6825,2.6624,2.6435,2.6365,2.6348,2.633,2.626,2.6225,2.6208,2.6295,2.6348,2.6348,2.64,2.6418,2.6401,2.6401,2.6401,2.64,2.6365,2.6348,2.633,2.6226,2.6138,2.6155,2.6103,2.6119,2.6101,2.6101,2.5977,2.5742,2.5441,2.5304,2.532,2.54,2.5441,2.5495,2.5567,2.5626,2.5719,2.5846,2.5954,2.6045,2.6064,2.6155,2.633,2.6383,2.6435,2.6504,2.6504,2.6504,2.6555,2.664,2.6725,2.6792,2.6874,2.6891,2.6825,2.6657,2.6521,2.6504,2.6504,2.6538,2.6487,2.6418,2.6313,2.6225,2.6082,2.5974,2.5954,2.5807,2.5677,2.5659,2.5508,2.5413,2.5378,2.5378,2.532,2.5166,2.5068,2.493,2.4675,2.4245,2.4051,2.4036,2.4036,2.4036,2.4051,2.4036,2.4036,2.4057,2.4057,2.4036,2.4036,2.4036,2.4051,2.4036,2.4051,2.4057,2.4036,2.4036,2.4114,3.2678,3.1834,3.1765,3.1748,3.1765,3.1803,3.1821,3.1701,3.0578,2.9901,2.945,2.8321,2.7594,2.7404,2.7352,2.7243,2.702,2.6874,2.6808,2.6775,2.6708,2.6657,2.6657,2.6758,2.6808,2.6791,2.6841,2.6874,2.6874,2.6874,2.6858,2.6875,2.6808,2.6808,2.6775,2.6674,2.6624,2.6641,2.6607,2.659,2.659,2.659,2.659,2.6556,2.6243,2.5977,2.5866,2.5903,2.5957,2.6012,2.6082,2.6136,2.6242,2.633,2.6401,2.6453,2.6521,2.6607,2.6742,2.6775,2.6808,2.6858,2.6874,2.6858,2.6858,2.699,2.7071,2.7152,2.7214,2.7293,2.7307,2.7165,2.6971,2.6907,2.6858,2.6875,2.6858,2.6825,2.6708,2.6556,2.6435,2.6365,2.633,2.6241,2.6134,2.6081,2.5919,2.5828,2.5791,2.5791,2.577,2.5621,2.5527,2.5416,2.5262,2.497,2.4697,2.4656,2.4513,2.4528,2.4523,2.4508,2.4508,2.4528,2.4508,2.4487,2.4503,2.4503,2.4503,2.4482,2.4508,2.4513,2.4528,2.4508,2.4589,3.2336,3.2283,3.2301,3.2283,3.2283,3.2283,3.2301,3.216,3.1458,3.0668,2.9929,2.9171,2.8381,2.7821,2.7716,2.7683,2.7627,2.7367,2.7228,2.7197,2.7181,2.7181,2.7164,2.7197,2.7197,2.7181,2.7197,2.7197,2.7197,2.7197,2.7213,2.7197,2.7197,2.7214,2.7213,2.7133,2.7101,2.7085,2.7037,2.7005,2.7006,2.7022,2.7005,2.7005,2.6973,2.6774,2.6436,2.6401,2.6453,2.6556,2.6573,2.6624,2.6691,2.6775,2.6791,2.6858,2.6989,2.7069,2.7101,2.7149,2.7197,2.7197,2.7197,2.7197,2.7228,2.7308,2.7404,2.7481,2.7557,2.7615,2.7672,2.7672,2.7537,2.726,2.7197,2.7213,2.7181,2.7133,2.7021,2.6858,2.6741,2.6708,2.6691,2.664,2.6521,2.6418,2.6331,2.6327,2.6373,2.6388,2.6219,2.6211,2.6334,2.6421,2.6066,2.5691,2.5455,2.5238,2.5076,2.4985,2.497,2.497,2.497,2.497,2.497,2.495,2.4871,2.4886,2.4906,2.489,2.493,2.497,2.497,2.4989,2.5088,3.2705,3.2705,3.2705,3.2721,3.2721,3.2721,3.2721,3.2616,3.1888,3.1089,3.029,2.9556,2.8809,2.8191,2.8049,2.8031,2.8035,2.7918,2.7774,2.7565,2.7535,2.7535,2.7552,2.7535,2.7552,2.7552,2.7535,2.7552,2.7552,2.7552,2.7552,2.7552,2.7552,2.7552,2.7535,2.7504,2.7522,2.7522,2.7507,2.7491,2.7459,2.7491,2.7491,2.7491,2.7474,2.7413,2.7305,2.702,2.6907,2.694,2.6989,2.7021,2.7053,2.7166,2.7213,2.7277,2.7386,2.7463,2.7507,2.7519,2.7535,2.7535,2.7535,2.7552,2.7552,2.7582,2.7627,2.7701,2.781,2.7896,2.7968,2.8021,2.789,2.7597,2.7535,2.7552,2.7537,2.7448,2.7355,2.7277,2.7133,2.7053,2.7037,2.6989,2.6992,2.6876,2.6793,2.686,2.7264,2.7364,2.7634,2.7916,2.7856,2.7629,2.7389,2.7197,2.7008,2.658,2.6183,2.5741,2.5641,2.5577,2.5545,2.5416,2.5397,2.5359,2.5298,2.5298,2.5301,2.5301,2.5339,2.5359,2.5413,2.547,2.5527,3.3073,3.3073,3.3088,3.3091,3.3088,3.3088,3.3106,3.3034,3.2568,3.1888,3.1099,3.0356,2.9547,2.8865,2.8492,2.8353,2.8353,2.8353,2.8242,2.8027,2.7918,2.789,2.789,2.789,2.7876,2.789,2.789,2.789,2.7876,2.7876,2.789,2.789,2.789,2.789,2.789,2.789,2.789,2.7876,2.7876,2.789,2.789,2.7876,2.789,2.789,2.789,2.789,2.7861,2.7642,2.7461,2.7371,2.7369,2.7384,2.74,2.7557,2.7647,2.7692,2.778,2.785,2.7876,2.7876,2.789,2.789,2.789,2.789,2.7876,2.7876,2.7918,2.7975,2.8067,2.8154,2.8191,2.8246,2.8174,2.8014,2.7933,2.7876,2.785,2.7766,2.7662,2.7585,2.7476,2.7417,2.7369,2.7681,2.7689,2.763,2.7788,2.7945,2.8408,2.8476,2.8852,2.9038,2.883,2.8724,2.8804,2.8711,2.8598,2.8058,2.7486,2.6904,2.6515,2.6433,2.6367,2.5959,2.5828,2.5754,2.568,2.5754,2.5791,2.5772,2.5735,2.5791,2.5844,2.5844,2.5899,3.3408,3.3426,3.3426,3.3393,3.3393,3.3411,3.3408,3.3408,3.3368,3.2879,3.2117,3.1243,3.0499,2.9743,2.8951,2.8643,2.8643,2.8625,2.8612,2.8518,2.8375,2.8237,2.8214,2.8214,2.8201,2.8214,2.8201,2.8214,2.8214,2.8214,2.8214,2.8214,2.8214,2.8214,2.8214,2.8214,2.8214,2.8214,2.8214,2.8214,2.8201,2.8214,2.8214,2.8232,2.8214,2.8214,2.8219,2.8174,2.8017,2.7774,2.7713,2.773,2.776,2.7908,2.7996,2.8011,2.8132,2.8187,2.8214,2.8214,2.8214,2.8214,2.8214,2.8214,2.8214,2.8214,2.8228,2.8282,2.8327,2.8353,2.8406,2.8432,2.8445,2.8484,2.8309,2.8174,2.8126,2.8056,2.795,2.7864,2.7789,2.7798,2.7871,2.8466,2.8673,2.8862,2.9232,2.9429,2.9608,2.9626,2.9644,2.9782,3.0006,3.0004,3.0121,3.0031,2.992,2.9688,2.9063,2.841,2.7624,2.7404,2.7155,2.6723,2.6423,2.6303,2.6118,2.617,2.6154,2.61,2.6118,2.6206,2.6224,2.6207,2.6278,3.3549,3.3567,3.3549,3.3549,3.3549,3.3605,3.3633,3.3633,3.3671,3.3259,3.2454,3.1649,3.0893,3.0064,2.9277,2.89,2.8881,2.8881,2.89,2.8881,2.8834,2.8675,2.8536,2.8479,2.8479,2.8497,2.8497,2.8497,2.8497,2.8497,2.851,2.8497,2.8479,2.8479,2.8497,2.8479,2.8497,2.8497,2.8497,2.8479,2.8497,2.8497,2.8479,2.8497,2.8497,2.8497,2.8497,2.8497,2.838,2.8087,2.8059,2.8059,2.8059,2.816,2.8246,2.83,2.838,2.8458,2.8466,2.8479,2.8497,2.8497,2.8497,2.8497,2.8497,2.8479,2.851,2.8536,2.8574,2.8612,2.8637,2.8662,2.87,2.8687,2.8562,2.8401,2.8327,2.8259,2.8187,2.816,2.8154,2.8393,2.8874,2.9215,2.9526,2.9816,3.0125,3.043,3.0671,3.078,3.0814,3.1358,3.1603,3.1498,3.1427,3.132,3.1247,3.1225,3.0735,3.013,2.9249,2.8512,2.8141,2.7686,2.7551,2.7414,2.684,2.6538,2.6503,2.662,2.6504,2.6589,2.6572,2.6556,2.6657,3.378,3.378,3.378,3.378,3.3762,3.3802,3.3815,3.3829,3.3895,3.3694,3.3104,3.2422,3.1622,3.0828,3.0042,2.9459,2.9163,2.9127,2.9127,2.9127,2.9115,2.898,2.8822,2.8761,2.8761,2.8761,2.8792,2.8761,2.8761,2.8761,2.8761,2.8761,2.8718,2.8724,2.8706,2.87,2.8675,2.8675,2.8675,2.8687,2.8687,2.8687,2.8675,2.8675,2.8705,2.8687,2.8724,2.8749,2.865,2.8427,2.8362,2.838,2.838,2.8427,2.8497,2.8518,2.8625,2.87,2.8724,2.8749,2.8761,2.8779,2.8761,2.8761,2.8761,2.8761,2.8761,2.8792,2.881,2.8822,2.8834,2.8881,2.8905,2.887,2.881,2.87,2.8531,2.8479,2.8634,2.8806,2.8941,2.9166,2.997,3.033,3.0639,3.0984,3.137,3.1633,3.1877,3.1915,3.1971,3.2327,3.2506,3.2279,3.2124,3.2004,3.1882,3.1916,3.1811,3.1322,3.0557,2.9606,2.9091,2.8715,2.8613,2.8408,2.7913,2.7504,2.7453,2.7453,2.718,2.6975,2.6975,2.7077,2.7159,3.4023,3.4023,3.4023,3.4023,3.4023,3.4036,3.4023,3.4049,3.4099,3.4117,3.3901,3.3317,3.2448,3.179,3.0823,3.0134,2.9372,2.9353,2.9353,2.9343,2.9332,2.9257,2.9123,2.9044,2.9033,2.9021,2.904,2.9028,2.9028,2.9028,2.9028,2.9005,2.8934,2.8922,2.891,2.8881,2.8846,2.8858,2.8858,2.887,2.887,2.887,2.887,2.887,2.8888,2.8893,2.891,2.8964,2.8972,2.8827,2.8704,2.865,2.865,2.8712,2.8731,2.8755,2.8858,2.8899,2.8934,2.9005,2.9021,2.9021,2.9021,2.9021,2.9021,2.9033,2.9021,2.9021,2.9021,2.9033,2.9044,2.9089,2.9089,2.9067,2.9078,2.9028,2.8949,2.887,2.9106,2.9759,2.9842,3.0326,3.1034,3.1714,3.2166,3.2069,3.2388,3.2532,3.2655,3.2641,3.2679,3.2822,3.2882,3.2852,3.2719,3.2603,3.2452,3.2386,3.2351,3.2002,3.1446,3.0681,3.011,2.973,2.9712,2.9556,2.9245,2.8934,2.8657,2.8485,2.8363,2.7881,2.7484,2.7673,2.7773,3.4161,3.4161,3.4161,3.4161,3.4161,3.4209,3.4233,3.4245,3.4305,3.437,3.4229,3.3579,3.2807,3.1996,3.1238,3.0386,2.9683,2.9598,2.9626,2.9598,2.9626,2.9607,2.9491,2.9361,2.9249,2.9238,2.922,2.9235,2.924,2.9229,2.9207,2.9175,2.9145,2.9134,2.9123,2.9093,2.9112,2.913,2.9112,2.91,2.9089,2.91,2.91,2.91,2.9149,2.916,2.9163,2.9197,2.9503,2.9761,2.945,2.9142,2.9118,2.9075,2.9129,2.9175,2.9106,2.9137,2.9204,2.9274,2.9251,2.9228,2.9257,2.9238,2.922,2.9249,2.9238,2.9238,2.9238,2.9257,2.9238,2.9259,2.9315,2.9323,2.9352,2.9575,2.998,2.998,2.9929,3.0253,3.0748,3.1352,3.2109,3.2295,3.2707,3.3098,3.3248,3.3357,3.3349,3.3304,3.3286,3.3268,3.3226,3.3165,3.3055,3.2961,3.285,3.2786,3.2752,3.2718,3.2165,3.1839,3.1298,3.1003,3.0849,3.0657,3.0463,3.0043,2.9726,2.9623,2.95,2.9028,2.8677,2.8625,2.8531,3.4393,3.4393,3.4374,3.4374,3.4404,3.442,3.4439,3.4461,3.4506,3.4569,3.4526,3.4145,3.3359,3.2269,3.1751,3.0988,2.9998,2.979,2.9799,2.979,2.9809,2.979,2.9783,2.9654,2.9551,2.9502,2.9453,2.9441,2.944,2.9409,2.937,2.9349,2.9318,2.9289,2.9278,2.9267,2.9257,2.9246,2.9238,2.9238,2.9246,2.9257,2.9246,2.9397,2.9641,2.9903,2.9911,3.0392,3.0778,3.0953,3.0724,3.0394,3.0327,3.0305,3.032,3.0343,2.9987,2.9898,2.9914,2.9651,2.9431,2.948,2.9481,2.9482,2.9482,2.9474,2.9492,2.9492,2.9492,2.9482,2.9482,2.9492,2.9604,2.9997,3.0034,3.0418,3.1003,3.0776,3.0778,3.1277,3.1923,3.2508,3.2982,3.3079,3.3217,3.3583,3.3579,3.3657,3.3615,3.3591,3.3591,3.3559,3.352,3.3448,3.3342,3.3253,3.318,3.3135,3.3119,3.3119,3.2878,3.2717,3.257,3.2225,3.1827,3.1915,3.1701,3.1259,3.0851,3.0727,3.0533,3.0176,2.991,2.9751,2.9701,3.4636,3.4655,3.4636,3.4636,3.4636,3.4655,3.4647,3.4647,3.4708,3.472,3.4749,3.479,3.3857,3.2683,3.24,3.146,3.0303,2.9932,2.9943,2.9924,2.9924,2.9934,2.9929,2.9885,2.9842,2.9747,2.9673,2.9636,2.9589,2.9569,2.954,2.9531,2.9472,2.9453,2.9433,2.9394,2.9384,2.9402,2.9384,2.9384,2.9402,2.9402,2.944,2.9822,3.0207,3.0723,3.0939,3.1466,3.1992,3.2208,3.2279,3.2293,3.2246,3.1901,3.1834,3.1789,3.1169,3.0947,3.0847,3.0486,3.0151,3.0011,2.9936,2.9945,2.9945,2.9804,2.971,2.971,2.971,2.9804,2.9888,3.002,3.0396,3.0894,3.112,3.1515,3.1975,3.1553,3.1926,3.2594,3.301,3.3478,3.3758,3.3913,3.3969,3.3998,3.3978,3.3952,3.39,3.386,3.386,3.382,3.3766,3.3657,3.3573,3.353,3.3462,3.3448,3.3448,3.3448,3.3448,3.3321,3.3166,3.3003,3.28,3.2782,3.2693,3.2299,3.1995,3.1852,3.1673,3.1419,3.1166,3.0897,3.0805,3.486,3.486,3.486,3.4841,3.486,3.486,3.4831,3.486,3.486,3.4898,3.4946,3.4926,3.4072,3.2938,3.2575,3.1613,3.0384,3.0068,3.0061,3.0061,3.0061,3.0053,3.0046,3.0057,3.0041,2.9983,2.9868,2.9745,2.969,2.9672,2.9673,2.9673,2.9655,2.9636,2.9636,2.9636,2.9617,2.9617,2.9598,2.9617,2.9598,2.9739,3.0001,3.0489,3.0921,3.1363,3.1804,3.2097,3.2493,3.3161,3.3258,3.3626,3.3708,3.2876,3.2338,3.2206,3.2047,3.1898,3.1871,3.1778,3.176,3.1685,3.1241,3.089,3.0729,3.0368,3.0236,3.0112,3.0112,3.0215,3.0884,3.0942,3.1348,3.1879,3.22,3.2494,3.3119,3.3204,3.3012,3.3494,3.3899,3.417,3.4274,3.434,3.4281,3.4221,3.4197,3.4173,3.4167,3.4124,3.4099,3.4049,3.3985,3.3881,3.3762,3.3748,3.3739,3.3739,3.3739,3.3721,3.3721,3.3739,3.3629,3.3455,3.3327,3.3247,3.3156,3.3066,3.2994,3.2755,3.2701,3.2647,3.23,3.1902,3.1682,3.5011,3.5001,3.5001,3.5001,3.5001,3.5001,3.5011,3.5001,3.5011,3.502,3.5048,3.5,3.4435,3.3438,3.2797,3.1752,3.0567,3.0211,3.0192,3.0192,3.0192,3.0178,3.0157,3.0169,3.014,3.0083,2.9999,2.9907,2.9847,2.9813,2.9815,2.9798,2.9789,2.9808,2.9789,2.9789,2.9789,2.9808,2.9808,2.9808,2.9883,3.0175,3.0731,3.109,3.1902,3.2525,3.2874,3.345,3.3762,3.413,3.4245,3.4529,3.451,3.4235,3.3554,3.3402,3.309,3.2902,3.2836,3.2675,3.2333,3.2332,3.2034,3.19,3.1794,3.1556,3.123,3.1268,3.1298,3.1458,3.1895,3.1922,3.2321,3.2911,3.3139,3.3557,3.4137,3.4338,3.4282,3.4169,3.4391,3.4534,3.4526,3.4539,3.4495,3.4443,3.4409,3.4397,3.4404,3.4363,3.4321,3.4281,3.4209,3.4124,3.4023,3.4011,3.4011,3.4011,3.4011,3.4011,3.4011,3.4011,3.3972,3.3876,3.3775,3.3661,3.3583,3.3473,3.3564,3.3601,3.3419,3.3236,3.3127,3.2953,3.2692,3.5145,3.5145,3.5153,3.5126,3.5126,3.5126,3.5134,3.5126,3.5153,3.5134,3.5134,3.5096,3.4737,3.3888,3.2851,3.1668,3.035,3.0305,3.0299,3.0279,3.0279,3.0266,3.0227,3.0219,3.0199,3.0171,3.0161,3.011,3.0014,2.9956,2.9948,2.994,2.994,2.9948,2.994,2.9932,2.994,2.994,2.9929,2.9978,3.0327,3.0829,3.1463,3.171,3.3029,3.3703,3.3998,3.4424,3.4709,3.4851,3.4926,3.5011,3.502,3.5056,3.5019,3.4794,3.4226,3.3989,3.3817,3.3548,3.3289,3.3289,3.2978,3.2888,3.277,3.2618,3.2492,3.2645,3.2569,3.2645,3.2824,3.2912,3.3312,3.3876,3.4143,3.4334,3.4791,3.5011,3.4965,3.4905,3.4936,3.4859,3.4791,3.473,3.468,3.467,3.4639,3.4618,3.4607,3.4586,3.4553,3.4487,3.4439,3.437,3.4293,3.4281,3.4281,3.4281,3.4281,3.4281,3.4281,3.4269,3.4215,3.4179,3.4105,3.3998,3.3934,3.3881,3.3881,3.3881,3.3881,3.3826,3.3661,3.3637,3.3541,3.5258,3.5278,3.5278,3.5285,3.5297,3.527,3.5278,3.527,3.527,3.5258,3.5262,3.5212,3.4818,3.3901,3.249,3.1308,3.0606,3.0318,3.0324,3.0324,3.0324,3.0318,3.0286,3.0286,3.0273,3.0253,3.0272,3.0192,3.0113,3.0095,3.0087,3.0068,3.0068,3.0087,3.0076,3.0076,3.008,3.0068,3.0087,3.0449,3.1069,3.1343,3.2181,3.3075,3.3714,3.417,3.4693,3.4997,3.5073,3.5084,3.5084,3.5084,3.5092,3.5089,3.5143,3.5115,3.5005,3.4904,3.4807,3.4603,3.4514,3.435,3.4132,3.3903,3.372,3.334,3.303,3.279,3.2872,3.324,3.375,3.3899,3.4366,3.4695,3.4921,3.4986,3.5281,3.5237,3.5218,3.5209,3.5098,3.5037,3.4982,3.4927,3.486,3.486,3.4841,3.4821,3.4811,3.4762,3.4722,3.466,3.4618,3.4564,3.4542,3.4531,3.452,3.4531,3.4531,3.452,3.4509,3.4498,3.4476,3.4431,3.4374,3.4316,3.4233,3.4185,3.4154,3.4142,3.4148,3.4161,3.4142,3.4185,3.4197,3.5372,3.5308,3.5308,3.5308,3.5308,3.5308,3.5308,3.5308,3.5308,3.5308,3.5308,3.5308,3.4844,3.3932,3.2801,3.1911,3.1136,3.0573,3.0343,3.0343,3.0362,3.0362,3.0362,3.033,3.0305,3.0299,3.0299,3.0266,3.0232,3.0218,3.0225,3.0218,3.0218,3.0225,3.0204,3.0199,3.0225,3.0359,3.0691,3.136,3.2067,3.2634,3.3207,3.3945,3.4377,3.4816,3.5084,3.5207,3.5198,3.5207,3.5207,3.5207,3.5207,3.5223,3.5219,3.5246,3.5231,3.5187,3.5168,3.5203,3.5203,3.5192,3.4917,3.4741,3.4661,3.4426,3.4153,3.4242,3.4223,3.4402,3.4613,3.4759,3.4944,3.52,3.5338,3.533,3.5323,3.532,3.5289,3.5289,3.5289,3.5215,3.5149,3.5089,3.5037,3.501,3.5001,3.4982,3.4974,3.4946,3.4879,3.4821,3.4801,3.4762,3.4752,3.4752,3.4742,3.4752,3.4752,3.4742,3.4711,3.4691,3.4689,3.4687,3.4645,3.4572,3.4517,3.4431,3.4374,3.4386,3.4409,3.4409,3.4409,3.4439,3.4454,3.5448,3.536,3.5364,3.5357,3.5357,3.5357,3.5338,3.5357,3.5364,3.5357,3.5357,3.5326,3.4899,3.4082,3.3224,3.2365,3.1635,3.0788,3.0481,3.0404,3.0404,3.0398,3.0392,3.0361,3.0316,3.0316,3.0317,3.0318,3.0331,3.0324,3.0299,3.0312,3.0292,3.0279,3.0305,3.0318,3.0369,3.079,3.1493,3.2279,3.3072,3.3686,3.4088,3.4522,3.4932,3.5308,3.5308,3.53,3.53,3.53,3.5293,3.5285,3.5293,3.53,3.5315,3.5342,3.5335,3.535,3.5342,3.5323,3.5323,3.533,3.5352,3.5259,3.5304,3.5393,3.5355,3.5203,3.5222,3.5254,3.5374,3.5324,3.535,3.5357,3.5388,3.5374,3.5405,3.547,3.5465,3.5415,3.5407,3.5379,3.53,3.5231,3.5182,3.516,3.5143,3.5126,3.5108,3.5092,3.5047,3.4982,3.4982,3.4945,3.4936,3.4936,3.4936,3.4936,3.4936,3.4945,3.4898,3.4879,3.4888,3.4888,3.4859,3.482,3.4751,3.4668,3.4583,3.4586,3.4599,3.4639,3.4658,3.4668,3.4718,3.5502,3.5496,3.5475,3.5474,3.5467,3.5474,3.5474,3.5467,3.5486,3.5467,3.546,3.5448,3.5012,3.4231,3.3449,3.2602,3.1718,3.0808,3.0519,3.0442,3.0404,3.0404,3.0398,3.0379,3.0379,3.0379,3.0367,3.0386,3.045,3.0572,3.0432,3.0318,3.0542,3.0395,3.0471,3.0695,3.1136,3.1654,3.2428,3.317,3.3784,3.4237,3.4506,3.5035,3.5239,3.5308,3.5308,3.5323,3.5342,3.5342,3.533,3.5323,3.5338,3.5372,3.5405,3.5386,3.5427,3.546,3.5441,3.5407,3.5393,3.5407,3.5462,3.5489,3.5522,3.5573,3.5579,3.5547,3.5534,3.5547,3.5554,3.5579,3.5522,3.5509,3.5496,3.5515,3.5573,3.5734,3.5727,3.5605,3.5721,3.6008,3.6065,3.6123,3.5458,3.5372,3.5242,3.5234,3.5218,3.5201,3.5193,3.5157,3.5157,3.5141,3.5088,3.5088,3.5079,3.5089,3.5081,3.5072,3.5065,3.5066,3.5047,3.5011,3.4992,3.4992,3.4983,3.4879,3.4802,3.4773,3.4783,3.4831,3.486,3.4879,3.4927,3.556,3.5554,3.5515,3.5489,3.55,3.55,3.55,3.55,3.55,3.55,3.55,3.5462,3.5327,3.4814,3.4083,3.3237,3.241,3.1583,3.0981,3.0519,3.0404,3.0404,3.0404,3.0404,3.0404,3.0404,3.0404,3.0404,3.0417,3.0935,3.1148,3.1162,3.12,3.1181,3.1258,3.1636,3.2334,3.2955,3.3493,3.4082,3.4773,3.4966,3.5112,3.5362,3.542,3.542,3.5439,3.542,3.5439,3.5432,3.542,3.5393,3.5393,3.5434,3.5441,3.5479,3.5538,3.5578,3.556,3.5508,3.5476,3.5515,3.5547,3.5566,3.559,3.5616,3.5622,3.5608,3.5626,3.5631,3.5631,3.5612,3.5606,3.5614,3.5705,3.5801,3.595,3.6226,3.6355,3.64,3.6858,3.7282,3.725,3.7204,3.6332,3.558,3.5438,3.5308,3.532,3.532,3.5312,3.5285,3.5312,3.5278,3.5227,3.5219,3.5231,3.5223,3.5207,3.5198,3.5201,3.522,3.5204,3.5151,3.5134,3.5124,3.5107,3.5072,3.5028,3.4992,3.4982,3.5018,3.5044,3.5079,3.5115,3.5622,3.561,3.556,3.5522,3.5501,3.5488,3.55,3.55,3.55,3.55,3.55,3.55,3.55,3.525,3.4564,3.393,3.3083,3.2199,3.1404,3.0904,3.0596,3.0442,3.0385,3.0396,3.0402,3.046,3.076,3.0862,3.0964,3.169,3.1998,3.2152,3.2325,3.2377,3.2237,3.2872,3.3622,3.4071,3.4564,3.4795,3.5442,3.5462,3.5442,3.5493,3.5474,3.5474,3.5474,3.5474,3.5474,3.5474,3.5474,3.5481,3.5481,3.5481,3.5488,3.5591,3.5758,3.5894,3.5862,3.5644,3.5579,3.5577,3.5602,3.5601,3.5631,3.5648,3.5651,3.5632,3.5643,3.5731,3.5891,3.6137,3.6466,3.6687,3.6823,3.6914,3.6947,3.7116,3.7207,3.7298,3.7699,3.7944,3.7899,3.7732,3.7135,3.6227,3.5648,3.5507,3.5435,3.5435,3.5448,3.5422,3.5422,3.5388,3.5367,3.5367,3.536,3.5319,3.5311,3.5323,3.5315,3.5335,3.5327,3.5293,3.5258,3.5251,3.5243,3.5235,3.5198,3.517,3.5176,3.5163,3.5215,3.5239,3.527,3.561,3.562,3.561,3.556,3.5509,3.5501,3.5488,3.5514,3.5488,3.5488,3.5481,3.55,3.5488,3.5334,3.4686,3.4276,3.3776,3.2615,3.1826,3.1595,3.1158,3.0685,3.0633,3.0747,3.0956,3.075,3.1224,3.1736,3.1786,3.2584,3.2918,3.3232,3.3568,3.3748,3.3057,3.3744,3.4186,3.4314,3.5064,3.5334,3.5462,3.55,3.55,3.55,3.55,3.55,3.55,3.55,3.55,3.55,3.55,3.5558,3.5692,3.568,3.572,3.5823,3.6453,3.6742,3.6749,3.6061,3.5948,3.6008,3.6231,3.6137,3.5902,3.5859,3.6057,3.6353,3.6125,3.6358,3.6644,3.7036,3.7405,3.7613,3.771,3.7758,3.7753,3.8038,3.8149,3.8308,3.8263,3.8239,3.8252,3.8158,3.7769,3.7037,3.6125,3.5804,3.5888,3.5978,3.6145,3.5875,3.5869,3.5631,3.5599,3.5522,3.5477,3.5431,3.5424,3.5431,3.5431,3.5431,3.5424,3.5391,3.5391,3.5391,3.5391,3.5391,3.5362,3.5338,3.53,3.5296,3.5345,3.5393,3.5415,3.5679,3.5664,3.5621,3.5593,3.5575,3.5585,3.556,3.5534,3.5515,3.5489,3.5488,3.55,3.5501,3.5361,3.52,3.477,3.4172,3.3999,3.3286,3.2515,3.2124,3.2187,3.2077,3.1923,3.2031,3.2191,3.2524,3.2613,3.2621,3.3467,3.3809,3.4093,3.4593,3.4949,3.4815,3.5059,3.513,3.5111,3.5374,3.5495,3.5488,3.5481,3.55,3.55,3.55,3.55,3.5519,3.5519,3.5596,3.5615,3.5635,3.5885,3.6225,3.6335,3.6613,3.698,3.7629,3.7656,3.7717,3.7486,3.7427,3.7385,3.7235,3.7235,3.7385,3.7461,3.7493,3.7404,3.7253,3.7529,3.7868,3.7926,3.8136,3.8143,3.8192,3.8203,3.8315,3.885,3.919,3.9379,3.9427,3.9649,3.9721,3.9266,3.8794,3.8535,3.7788,3.7303,3.7241,3.728,3.7357,3.6777,3.6468,3.6095,3.5877,3.5929,3.5846,3.5776,3.5641,3.5531,3.5531,3.5519,3.5519,3.5513,3.5525,3.5512,3.5519,3.5513,3.5513,3.5514,3.547,3.5457,3.5489,3.5528,3.5541,3.5747,3.5732,3.5674,3.5634,3.5643,3.5614,3.5617,3.5591,3.5554,3.5528,3.5547,3.5521,3.5534,3.5522,3.547,3.538,3.471,3.4363,3.417,3.3417,3.3089,3.2891,3.2896,3.3073,3.2814,3.3123,3.3415,3.3541,3.3585,3.4373,3.474,3.4939,3.5328,3.5455,3.5516,3.5531,3.5508,3.547,3.5534,3.5496,3.5489,3.5494,3.55,3.55,3.55,3.55,3.5577,3.5712,3.5923,3.5981,3.6238,3.6572,3.7055,3.7306,3.7565,3.7996,3.8466,3.8676,3.9066,3.9194,3.9209,3.9237,3.879,3.8363,3.8337,3.821,3.8261,3.8311,3.8504,3.8682,3.8822,3.8822,3.8951,3.8979,3.919,3.9241,3.9365,3.9902,4.003,4.0261,4.0344,4.0699,4.0864,4.0524,3.9966,3.9772,3.9524,3.9028,3.8487,3.8405,3.8288,3.7746,3.7353,3.7135,3.6781,3.6491,3.6355,3.6142,3.5954,3.578,3.5614,3.5623,3.5614,3.562,3.5614,3.5609,3.5634,3.5634,3.5658,3.5658,3.5643,3.5635,3.5656,3.5651,3.5637,3.5806,3.5803,3.5737,3.5713,3.5694,3.5648,3.5616,3.5623,3.5578,3.5578,3.5617,3.5585,3.5598,3.5598,3.5604,3.5552,3.5409,3.4772,3.4521,3.4212,3.3823,3.3503,3.3404,3.345,3.3659,3.3718,3.3989,3.4526,3.4623,3.5098,3.5485,3.5587,3.5616,3.5713,3.5707,3.567,3.5614,3.5577,3.5547,3.5528,3.5528,3.5489,3.5501,3.5533,3.5641,3.5731,3.5942,3.6308,3.6635,3.6969,3.7399,3.7805,3.8084,3.8136,3.8196,3.8537,3.9197,3.9857,4.0374,4.0475,4.0578,4.0315,3.9462,3.8816,3.873,3.902,3.9127,3.9091,3.914,3.9438,3.9675,3.9869,4.0061,4.0312,4.062,4.0672,4.0701,4.0831,4.0824,4.0871,4.0859,4.0988,4.0964,4.0754,4.0591,4.0532,4.0248,3.99,3.9403,3.9078,3.8923,3.8608,3.8312,3.8268,3.7875,3.7327,3.7172,3.7065,3.6376,3.61,3.5916,3.58,3.5712,3.5717,3.5703,3.5703,3.5736,3.576,3.5784,3.5784,3.5765,3.5737,3.5728,3.5713,3.5698,3.5852,3.5873,3.5811,3.5779,3.5771,3.5737,3.5697,3.5604,3.5623,3.562,3.5617,3.5617,3.5608,3.5618,3.5623,3.5646,3.557,3.5451,3.5354,3.5083,3.4807,3.487,3.4855,3.4768,3.4894,3.4962,3.5179,3.5333,3.5391,3.5769,3.5778,3.5754,3.5778,3.5788,3.577,3.5747,3.5678,3.561,3.5575,3.5629,3.5637,3.5624,3.565,3.5772,3.6194,3.6322,3.6572,3.7207,3.7572,3.7765,3.7928,3.8276,3.895,3.9018,3.9194,4.0002,4.038,4.0636,4.0854,4.0929,4.0967,4.101,4.0432,4.0457,4.0343,4.0173,4.0142,4.0009,3.9955,4.0255,4.0391,4.0547,4.0662,4.0838,4.105,4.1047,4.1061,4.1056,4.1048,4.1049,4.1042,4.1016,4.1016,4.0974,4.0854,4.0935,4.0854,4.0532,4.026,3.9921,3.9667,3.9371,3.9255,3.9196,3.868,3.8109,3.807,3.7914,3.7226,3.6736,3.6721,3.6526,3.606,3.5862,3.5893,3.5877,3.585,3.5873,3.5853,3.5861,3.5841,3.5815,3.5795,3.5782,3.5778,3.5098,3.5359,3.5334,3.5514,3.5799,3.5854,3.5778,3.5689,3.5654,3.5637,3.5648,3.5635,3.5626,3.5634,3.5644,3.5664,3.5718,3.5698,3.566,3.5654,3.5756,3.5635,3.5717,3.5726,3.5638,3.5763,3.5791,3.5733,3.583,3.5834,3.5842,3.5842,3.5842,3.5834,3.5826,3.5795,3.5765,3.5694,3.5681,3.5817,3.5956,3.6054,3.617,3.6505,3.7037,3.7184,3.7357,3.8108,3.85,3.8674,3.8786,3.9294,3.9848,3.9947,4.0066,4.069,4.0771,4.0852,4.0949,4.0963,4.0997,4.1039,4.1079,4.1027,4.099,4.0836,4.0875,4.0855,4.0961,4.1064,4.1083,4.1101,4.1081,4.1101,4.1101,4.1099,4.1095,4.1111,4.11,4.1086,4.1056,4.105,4.1048,4.1048,4.1048,4.1048,4.1048,4.0928,4.0776,4.0639,4.045,4.0252,4.0174,4.0077,3.9523,3.9059,3.8978,3.876,3.8176,3.7767,3.7637,3.7423,3.7086,3.6599,3.6112,3.6132,3.6171,3.5947,3.5872,3.5936,3.5978,3.5914,3.5879,3.5843,3.584,3.3841,3.4518,3.4573,3.5064,3.5733,3.583,3.5859,3.5799,3.5758,3.5703,3.5713,3.5708,3.5689,3.5698,3.5703,3.5736,3.5778,3.5806,3.581,3.5803,3.5807,3.5807,3.5795,3.5807,3.5818,3.5829,3.5859,3.5889,3.5911,3.5915,3.5898,3.5908,3.5911,3.5892,3.5866,3.6086,3.6161,3.6187,3.6256,3.6427,3.6709,3.6939,3.7263,3.7842,3.8106,3.8215,3.8408,3.889,3.9514,3.9739,4.0023,4.048,4.0572,4.0641,4.0779,4.0849,4.0902,4.0945,4.0986,4.0997,4.1044,4.1085,4.1104,4.1109,4.1111,4.1111,4.1111,4.1111,4.1115,4.1117,4.1117,4.1117,4.1117,4.1117,4.1117,4.1116,4.1114,4.1111,4.1106,4.1097,4.1094,4.107,4.107,4.1092,4.1072,4.1085,4.1083,4.1085,4.1079,4.1044,4.097,4.0866,4.0743,4.0626,4.0529,4.0123,3.9931,3.96,3.9034,3.8742,3.8567,3.8372,3.8177,3.7609,3.7024,3.6654,3.6518,3.6409,3.6319,3.6226,3.6211,3.6044,3.5999,3.6026,3.5916,3.3516,3.3756,3.4395,3.4776,3.4995,3.5641,3.5886,3.5875,3.5862,3.5822,3.5791,3.5763,3.5771,3.5783,3.5788,3.5819,3.5857,3.5861,3.5884,3.5875,3.5882,3.5866,3.5869,3.5862,3.5872,3.5878,3.5889,3.5936,3.596,3.5963,3.5965,3.5987,3.5963,3.5938,3.5967,3.6306,3.6719,3.6715,3.7365,3.7303,3.723,3.7647,3.8065,3.8439,3.8614,3.9052,3.9335,3.981,4.019,4.0421,4.0514,4.0681,4.0754,4.0848,4.0883,4.0897,4.0929,4.0986,4.1016,4.1044,4.1087,4.1101,4.1114,4.1099,4.1102,4.1103,4.1104,4.1105,4.1106,4.1107,4.1108,4.1108,4.1166,4.1166,4.1205,4.1205,4.1204,4.124,4.1239,4.1237,4.1235,4.1176,4.1194,4.1117,4.1099,4.1099,4.11,4.11,4.1097,4.109,4.1072,4.1005,4.103,4.0969,4.0991,4.0896,4.0589,4.0374,3.9906,3.9667,3.9489,3.9065,3.866,3.8439,3.8027,3.7583,3.7256,3.718,3.7067,3.6897,3.6707,3.6654,3.6445,3.6381,3.6155,3.2503,3.2924,3.3757,3.4332,3.4688,3.5175,3.5563,3.5907,3.5946,3.5928,3.5876,3.5859,3.5836,3.5846,3.5846,3.5853,3.5891,3.5894,3.5919,3.5947,3.5947,3.5933,3.5938,3.5943,3.5943,3.5948,3.5934,3.5958,3.6007,3.6003,3.6003,3.6007,3.5986,3.6023,3.6072,3.6728,3.7244,3.7238,3.8415,3.8595,3.814,3.8588,3.9102,3.9369,3.9706,3.9985,4.0127,4.0494,4.0591,4.0713,4.0756,4.0776,4.0839,4.0878,4.092,4.0953,4.099,4.1022,4.1044,4.1066,4.1104,4.1114,4.1102,4.1108,4.1109,4.111,4.113,4.113,4.115,4.1171,4.1171,4.1171,4.1522,4.1678,4.1874,4.199,4.2282,4.2574,4.2572,4.257,4.2335,4.1846,4.1709,4.126,4.1222,4.1104,4.1107,4.1186,4.1166,4.1128,4.112,4.1112,4.1122,4.1122,4.1069,4.1049,4.0991,4.0794,4.0592,4.0499,4.0228,3.9603,3.9115,3.9073,3.8878,3.8414,3.8163,3.8064,3.7969,3.7836,3.7586,3.7354,3.7103,3.6949,3.7021,3.1343,3.2045,3.2876,3.3646,3.4376,3.4649,3.5118,3.574,3.5935,3.5994,3.5972,3.5934,3.5924,3.5916,3.5914,3.5921,3.5926,3.5924,3.5973,3.5999,3.6005,3.5986,3.5988,3.6011,3.5997,3.5997,3.5999,3.5999,3.602,3.602,3.602,3.6015,3.6033,3.6072,3.6362,3.6924,3.7561,3.8188,3.9042,3.9767,3.9836,3.9815,4.014,4.0527,4.0812,4.0807,4.0807,4.0807,4.0807,4.0823,4.0853,4.0874,4.0902,4.0932,4.0968,4.1,4.1025,4.105,4.107,4.1106,4.1115,4.1102,4.1109,4.1151,4.1151,4.1308,4.1328,4.1387,4.1406,4.1426,4.1426,4.166,4.207,4.2383,4.2617,4.2793,4.3242,4.3612,4.3631,4.3649,4.3199,4.2633,4.2281,4.1793,4.1582,4.1426,4.1269,4.1269,4.1266,4.1189,4.1148,4.1147,4.1144,4.1146,4.1106,4.1124,4.1121,4.1062,4.0883,4.1026,4.095,4.036,3.9987,3.9951,3.9679,3.9385,3.9132,3.8995,3.8881,3.8766,3.8259,3.7948,3.8007,3.7949,3.8222,3.0974,3.1206,3.2005,3.2471,3.2822,3.4071,3.4795,3.5048,3.5731,3.6005,3.6003,3.5983,3.5973,3.5979,3.5979,3.5984,3.597,3.5968,3.5984,3.6005,3.6002,3.6007,3.601,3.6014,3.6004,3.6003,3.6022,3.6004,3.6018,3.6021,3.6004,3.6003,3.6004,3.6352,3.7128,3.7729,3.8442,3.9109,3.9872,4.0655,4.0662,4.0649,4.0713,4.084,4.0833,4.0818,4.0807,4.0807,4.0837,4.0863,4.0907,4.0932,4.0961,4.0983,4.101,4.1056,4.1076,4.1074,4.1109,4.1099,4.1104,4.1303,4.1326,4.1366,4.1582,4.2011,4.2089,4.2226,4.2245,4.2264,4.2362,4.2809,4.32,4.3376,4.3591,4.365,4.3886,4.3984,4.3984,4.3945,4.3769,4.3496,4.3398,4.3066,4.2949,4.2695,4.2285,4.2246,4.2109,4.1719,4.1328,4.1386,4.1464,4.1131,4.1108,4.1128,4.1127,4.1108,4.1108,4.1129,4.1129,4.1088,4.0834,4.0601,4.066,4.0561,4.0308,3.9823,3.9745,3.9531,3.8867,3.8534,3.869,3.8904,3.9159]}]]